[[{"header":{"parameterUnit":"m.s-1","parameterCategory":1,"la1":30.6,"la2":28.766,"lo1":-90.7593,"lo2":-88.6598,"dy":0.0162,"dx":0.0183,"nx":116,"ny":114,"refTime":"2024-03-21T06:00:00:Z","depth":0,"parameterNumber":2,"parameterNumberName":"U-component_of_WINDS"},"data":[0.0,0.0,0.0,0.0,0.0,0.0,0.0,0.0,0.0,0.0,0.0,0.0,0.0,0.0,0.0,0.0,0.0,0.0,0.0,0.0,0.0,0.0,0.0,0.0,0.0,0.0,0.0,0.0,0.0,0.0,0.0,0.0,0.0,0.0,0.0,0.0,0.0,0.0,0.0,0.0,0.0,0.0,0.0,0.0,0.0,0.0,0.0,0.0,0.0,0.0,0.0,0.0,0.0,0.0,0.0,0.0,0.0,0.0,0.0,0.0,0.0,0.0,0.0,0.0,0.0,0.0,0.0,0.0,0.0,0.0,0.0,0.0,0.0,0.0,0.0,0.0,0.0,0.0,0.0,0.0,0.0,0.0,0.0,0.0,0.0,0.0,0.0,0.0,0.0,0.0,0.0,0.0,0.0,0.0,0.0,0.0,0.0,0.0,0.0,0.0,0.0,0.0,0.0,0.0,0.0,0.0,0.0,0.0,0.0,0.0,0.0,0.0,0.0,0.0,0.0,0.0,0.0,0.0,0.0,0.0,0.0,0.0,0.0,0.0,0.0,0.0,0.0,0.0,0.0,0.0,0.0,0.0,0.0,0.0,0.0,0.0,0.0,0.0,0.0,0.0,0.0,0.0,0.0,0.0,0.0,0.0,0.0,0.0,0.0,0.0,0.0,0.0,0.0,0.0,0.0,0.0,0.0,0.0,0.0,0.0,0.0,0.0,0.0,0.0,0.0,0.0,0.0,0.0,0.0,0.0,0.0,0.0,0.0,0.0,0.0,0.0,0.0,0.0,0.0,0.0,0.0,0.0,0.0,0.0,0.0,0.0,0.0,0.0,0.0,0.0,0.0,0.0,0.0,0.0,0.0,0.0,0.0,0.0,0.0,0.0,0.0,0.0,0.0,0.0,0.0,0.0,0.0,0.0,0.0,0.0,0.0,0.0,0.0,0.0,0.0,0.0,0.0,0.0,0.0,0.0,0.0,0.0,0.0,0.0,0.0,0.0,0.0,0.0,0.0,0.0,0.0,0.0,0.0,0.0,0.0,0.0,0.0,0.0,0.0,0.0,0.0,0.0,0.0,0.0,0.0,0.0,0.0,0.0,0.0,0.0,0.0,0.0,0.0,0.0,0.0,0.0,0.0,0.0,0.0,0.0,0.0,0.0,0.0,0.0,0.0,0.0,0.0,0.0,0.0,0.0,0.0,0.0,0.0,0.0,0.0,0.0,0.0,0.0,0.0,0.0,0.0,0.0,0.0,0.0,0.0,0.0,0.0,0.0,0.0,0.0,0.0,0.0,0.0,0.0,0.0,0.0,0.0,0.0,0.0,0.0,0.0,0.0,0.0,0.0,0.0,0.0,0.0,0.0,0.0,0.0,0.0,0.0,0.0,0.0,0.0,0.0,0.0,0.0,0.0,0.0,0.0,0.0,0.0,0.0,0.0,0.0,0.0,0.0,0.0,0.0,0.0,0.0,0.0,0.0,0.0,0.0,0.0,0.0,0.0,0.0,0.0,0.0,0.0,0.0,0.0,0.0,0.0,0.0,0.0,0.0,0.0,0.0,0.0,0.0,0.0,0.0,0.0,0.0,0.0,0.0,0.0,0.0,0.0,0.0,0.0,0.0,0.0,0.0,0.0,0.0,0.0,0.0,0.0,0.0,0.0,0.0,0.0,0.0,0.0,0.0,0.0,0.0,0.0,0.0,0.0,0.0,0.0,0.0,0.0,0.0,0.0,0.0,0.0,0.0,0.0,0.0,0.0,0.0,0.0,0.0,0.0,0.0,0.0,0.0,0.0,0.0,0.0,0.0,0.0,0.0,0.0,0.0,0.0,0.0,0.0,0.0,0.0,0.0,0.0,0.0,0.0,0.0,0.0,0.0,0.0,0.0,0.0,0.0,0.0,0.0,0.0,0.0,0.0,0.0,0.0,0.0,0.0,0.0,0.0,0.0,0.0,0.0,0.0,0.0,0.0,0.0,0.0,0.0,0.0,0.0,0.0,0.0,0.0,0.0,0.0,0.0,0.0,0.0,0.0,0.0,0.0,0.0,0.0,0.0,0.0,0.0,0.0,0.0,0.0,0.0,0.0,0.0,0.0,0.0,0.0,0.0,0.0,0.0,0.0,0.0,0.0,0.0,0.0,0.0,0.0,0.0,0.0,0.0,0.0,0.0,0.0,0.0,0.0,0.0,0.0,0.0,0.0,0.0,0.0,0.0,0.0,0.0,0.0,0.0,0.0,0.0,0.0,0.0,0.0,0.0,0.0,0.0,0.0,0.0,0.0,0.0,0.0,0.0,0.0,0.0,0.0,0.0,0.0,0.0,0.0,0.0,0.0,0.0,0.0,0.0,0.0,0.0,0.0,0.0,0.0,0.0,0.0,0.0,0.0,0.0,0.0,0.0,0.0,0.0,0.0,0.0,0.0,0.0,0.0,0.0,0.0,0.0,0.0,0.0,0.0,0.0,0.0,0.0,0.0,0.0,0.0,0.0,0.0,0.0,0.0,0.0,0.0,0.0,0.0,0.0,0.0,0.0,0.0,0.0,0.0,0.0,0.0,0.0,0.0,0.0,0.0,0.0,0.0,0.0,0.0,0.0,0.0,0.0,0.0,0.0,0.0,0.0,0.0,0.0,0.0,0.0,0.0,0.0,0.0,0.0,0.0,0.0,0.0,0.0,0.0,0.0,0.0,0.0,0.0,0.0,0.0,0.0,0.0,0.0,0.0,0.0,0.0,0.0,0.0,0.0,0.0,0.0,0.0,0.0,0.0,0.0,0.0,0.0,0.0,0.0,0.0,0.0,0.0,0.0,0.0,0.0,0.0,0.0,0.0,0.0,0.0,0.0,0.0,0.0,0.0,0.0,0.0,0.0,0.0,0.0,0.0,0.0,0.0,0.0,0.0,0.0,0.0,0.0,0.0,0.0,0.0,0.0,0.0,0.0,0.0,0.0,0.0,0.0,0.0,0.0,0.0,0.0,0.0,0.0,0.0,0.0,0.0,0.0,0.0,0.0,0.0,0.0,0.0,0.0,0.0,0.0,0.0,0.0,0.0,0.0,0.0,0.0,0.0,0.0,0.0,0.0,0.0,0.0,0.0,0.0,0.0,0.0,0.0,0.0,0.0,0.0,0.0,0.0,0.0,0.0,0.0,0.0,0.0,0.0,0.0,0.0,0.0,0.0,0.0,0.0,0.0,0.0,0.0,0.0,0.0,0.0,0.0,0.0,0.0,0.0,0.0,0.0,0.0,0.0,0.0,0.0,0.0,0.0,0.0,0.0,0.0,0.0,0.0,0.0,0.0,0.0,0.0,0.0,0.0,0.0,0.0,0.0,0.0,0.0,0.0,0.0,0.0,0.0,0.0,0.0,0.0,0.0,0.0,0.0,0.0,0.0,0.0,0.0,0.0,0.0,0.0,0.0,0.0,0.0,0.0,0.0,0.0,0.0,0.0,0.0,0.0,0.0,0.0,0.0,0.0,0.0,0.0,0.0,0.0,0.0,0.0,0.0,0.0,0.0,0.0,0.0,0.0,0.0,0.0,0.0,0.0,0.0,0.0,0.0,0.0,0.0,0.0,0.0,0.0,0.0,0.0,0.0,0.0,0.0,0.0,0.0,0.0,0.0,0.0,0.0,0.0,0.0,0.0,0.0,0.0,0.0,0.0,0.0,0.0,0.0,0.0,0.0,0.0,0.0,0.0,0.0,0.0,0.0,0.0,0.0,0.0,0.0,0.0,0.0,0.0,0.0,0.0,0.0,0.0,0.0,0.0,0.0,0.0,0.0,0.0,0.0,0.0,0.0,0.0,0.0,0.0,0.0,0.0,0.0,0.0,0.0,0.0,0.0,0.0,0.0,0.0,0.0,0.0,0.0,0.0,0.0,0.0,0.0,0.0,0.0,0.0,0.0,0.0,0.0,0.0,0.0,0.0,0.0,0.0,0.0,0.0,0.0,0.0,0.0,0.0,0.0,0.0,0.0,0.0,0.0,0.0,0.0,0.0,0.0,0.0,0.0,0.0,0.0,0.0,0.0,0.0,0.0,0.0,0.0,0.0,0.0,0.0,0.0,0.0,0.0,0.0,0.0,0.0,0.0,0.0,0.0,0.0,0.0,0.0,0.0,0.0,0.0,0.0,0.0,0.0,0.0,0.0,0.0,0.0,0.0,0.0,0.0,0.0,0.0,0.0,0.0,0.0,0.0,0.0,0.0,0.0,0.0,0.0,0.0,0.0,0.0,0.0,0.0,0.0,0.0,0.0,0.0,0.0,0.0,0.0,0.0,0.0,0.0,0.0,0.0,0.0,0.0,0.0,0.0,0.0,0.0,0.0,0.0,0.0,0.0,0.0,0.0,0.0,0.0,0.0,0.0,0.0,0.0,0.0,0.0,0.0,0.0,0.0,0.0,0.0,0.0,0.0,0.0,0.0,0.0,0.0,0.0,0.0,0.0,0.0,0.0,0.0,0.0,0.0,0.0,0.0,0.0,0.0,0.0,0.0,0.0,0.0,0.0,0.0,0.0,0.0,0.0,0.0,0.0,0.0,0.0,0.0,0.0,0.0,0.0,0.0,0.0,0.0,0.0,0.0,0.0,0.0,0.0,0.0,0.0,0.0,0.0,0.0,0.0,0.0,0.0,0.0,0.0,0.0,0.0,0.0,0.0,0.0,0.0,0.0,0.0,0.0,0.0,0.0,0.0,0.0,0.0,0.0,0.0,0.0,0.0,0.0,0.0,0.0,0.0,0.0,0.0,0.0,0.0,0.0,0.0,0.0,0.0,0.0,0.0,0.0,0.0,0.0,0.0,0.0,0.0,0.0,0.0,0.0,0.0,0.0,0.0,0.0,0.0,0.0,0.0,0.0,0.0,0.0,0.0,0.0,0.0,0.0,0.0,0.0,0.0,0.0,0.0,0.0,0.0,0.0,0.0,0.0,0.0,0.0,0.0,0.0,0.0,0.0,0.0,0.0,0.0,0.0,0.0,0.0,0.0,0.0,0.0,0.0,0.0,0.0,0.0,0.0,0.0,0.0,0.0,0.0,0.0,0.0,0.0,0.0,0.0,0.0,0.0,0.0,0.0,0.0,0.0,0.0,0.0,0.0,0.0,0.0,0.0,0.0,0.0,0.0,0.0,0.0,0.0,0.0,0.0,0.0,0.0,0.0,0.0,0.0,0.0,0.0,0.0,0.0,0.0,0.0,0.0,0.0,0.0,0.0,0.0,0.0,0.0,0.0,0.0,0.0,0.0,0.0,0.0,0.0,0.0,0.0,0.0,0.0,0.0,0.0,0.0,0.0,0.0,0.0,0.0,0.0,0.0,0.0,0.0,0.0,0.0,0.0,0.0,0.0,0.0,0.0,0.0,0.0,0.0,0.0,0.0,0.0,0.0,0.0,0.0,0.0,0.0,0.0,0.0,0.0,0.0,0.0,0.0,0.0,0.0,0.0,0.0,0.0,0.0,0.0,0.0,0.0,0.0,0.0,0.0,0.0,0.0,0.0,0.0,0.0,0.0,0.0,0.0,0.0,0.0,0.0,0.0,0.0,0.0,0.0,0.0,0.0,0.0,0.0,0.0,0.0,0.0,0.0,0.0,0.0,0.0,0.0,0.0,0.0,0.0,0.0,0.0,0.0,0.0,0.0,0.0,0.0,0.0,0.0,0.0,0.0,0.0,0.0,0.0,0.0,0.0,0.0,0.0,0.0,0.0,0.0,0.0,0.0,0.0,0.0,0.0,0.0,0.0,0.0,0.0,0.0,0.0,0.0,0.0,0.0,0.0,0.0,0.0,0.0,0.0,0.0,0.0,0.0,0.0,0.0,0.0,0.0,0.0,0.0,0.0,0.0,0.0,0.0,0.0,0.0,0.0,0.0,0.0,0.0,0.0,0.0,0.0,0.0,0.0,0.0,0.0,0.0,0.0,0.0,0.0,0.0,0.0,0.0,0.0,0.0,0.0,0.0,0.0,0.0,0.0,0.0,0.0,0.0,0.0,0.0,0.0,0.0,0.0,0.0,0.0,0.0,0.0,0.0,0.0,0.0,0.0,0.0,0.0,0.0,0.0,0.0,0.0,0.0,0.0,0.0,0.0,0.0,0.0,0.0,0.0,0.0,0.0,7.4368,0.0,0.0,0.0,0.0,0.0,0.0,0.0,0.0,0.0,0.0,0.0,0.0,0.0,0.0,0.0,0.0,0.0,0.0,0.0,0.0,0.0,0.0,0.0,0.0,0.0,0.0,0.0,0.0,0.0,0.0,0.0,0.0,0.0,0.0,0.0,0.0,0.0,7.5906,7.6581,7.7375,7.8014,7.8449,7.9017,7.9348,7.9311,0.0,0.0,0.0,0.0,0.0,0.0,0.0,0.0,0.0,0.0,0.0,0.0,0.0,0.0,0.0,0.0,0.0,0.0,0.0,0.0,0.0,0.0,0.0,0.0,0.0,0.0,0.0,0.0,0.0,0.0,0.0,0.0,0.0,0.0,0.0,0.0,0.0,0.0,0.0,0.0,0.0,0.0,0.0,0.0,0.0,0.0,0.0,0.0,0.0,0.0,0.0,0.0,0.0,0.0,0.0,0.0,0.0,0.0,0.0,0.0,0.0,0.0,0.0,0.0,0.0,0.0,0.0,0.0,0.0,0.0,0.0,7.6224,0.0,0.0,0.0,0.0,0.0,0.0,0.0,0.0,0.0,0.0,0.0,0.0,0.0,0.0,0.0,0.0,0.0,0.0,0.0,0.0,0.0,0.0,0.0,7.5161,7.5665,7.5353,7.6133,7.6654,7.6692,7.7107,7.7107,7.6599,7.6104,7.5865,7.6003,7.555,7.5765,7.6761,7.7185,7.8552,8.069,8.0507,8.0898,8.1629,8.0588,0.0,0.0,0.0,0.0,0.0,0.0,0.0,0.0,0.0,0.0,0.0,0.0,0.0,0.0,0.0,0.0,0.0,0.0,0.0,0.0,0.0,0.0,0.0,0.0,0.0,0.0,0.0,0.0,0.0,0.0,0.0,0.0,0.0,0.0,0.0,0.0,0.0,0.0,0.0,0.0,0.0,0.0,0.0,0.0,0.0,0.0,0.0,0.0,0.0,0.0,0.0,0.0,0.0,0.0,0.0,0.0,0.0,0.0,0.0,0.0,0.0,0.0,0.0,8.2076,8.3539,8.5395,8.4717,8.5216,8.643,8.2754,7.9721,7.758,0.0,0.0,0.0,0.0,0.0,0.0,0.0,0.0,0.0,0.0,0.0,0.0,0.0,0.0,0.0,0.0,0.0,0.0,0.0,0.0,0.0,0.0,7.5285,7.6935,7.6221,7.7328,7.7636,7.6793,7.6793,7.6599,7.614,7.5621,7.555,7.6003,7.5934,7.5646,7.4997,7.7331,8.0321,8.3803,8.5152,8.6264,8.6857,8.1578,8.0849,8.3399,0.0,0.0,0.0,0.0,0.0,0.0,0.0,0.0,0.0,0.0,0.0,0.0,0.0,0.0,0.0,0.0,0.0,0.0,0.0,0.0,0.0,0.0,0.0,0.0,0.0,0.0,0.0,0.0,0.0,0.0,0.0,0.0,0.0,0.0,0.0,0.0,0.0,0.0,0.0,0.0,0.0,7.1264,7.0585,0.0,0.0,0.0,0.0,0.0,0.0,0.0,0.0,0.0,0.0,0.0,0.0,0.0,8.1755,8.2469,8.5894,8.7072,8.6002,8.75,8.8392,8.8678,8.8571,8.9035,8.9927,9.0641,0.0,8.1362,8.0435,0.0,0.0,0.0,0.0,0.0,0.0,0.0,0.0,0.0,0.0,0.0,0.0,0.0,0.0,0.0,0.0,0.0,0.0,0.0,0.0,0.0,7.5458,7.6839,7.6369,7.8559,7.9044,7.6866,7.8005,7.7953,7.6076,7.5478,7.5334,7.555,7.5865,7.7031,7.9011,8.187,8.4595,8.7192,8.8344,8.9087,8.9347,8.6676,8.53,8.4783,8.2472,0.0,0.0,0.0,0.0,0.0,0.0,0.0,0.0,0.0,0.0,0.0,0.0,0.0,0.0,0.0,0.0,0.0,0.0,0.0,0.0,0.0,0.0,0.0,0.0,0.0,0.0,0.0,0.0,0.0,0.0,0.0,0.0,0.0,0.0,0.0,0.0,0.0,0.0,0.0,7.3262,7.3869,7.262,7.394,7.444,0.0,0.0,0.0,0.0,0.0,0.0,0.0,0.0,0.0,8.3896,8.5431,8.6358,8.6715,8.8892,9.007,9.0212,9.139,9.2389,9.3246,9.2817,9.3281,9.4459,9.4673,9.2782,8.9213,8.5395,8.1702,7.8335,0.0,0.0,0.0,0.0,7.4326,7.4499,0.0,0.0,0.0,0.0,0.0,0.0,0.0,0.0,0.0,0.0,0.0,0.0,7.4184,7.6448,7.7877,7.7878,8.021,8.0677,7.8336,7.8975,7.8498,7.6364,7.5586,7.5225,7.5225,7.6442,7.9245,8.3545,8.6338,8.8827,9.087,9.191,9.2616,9.2988,9.2802,9.0759,8.7341,8.4447,8.3013,8.2417,0.0,0.0,0.0,0.0,0.0,0.0,0.0,0.0,0.0,0.0,0.0,0.0,0.0,0.0,0.0,0.0,0.0,0.0,0.0,0.0,0.0,0.0,0.0,0.0,0.0,0.0,0.0,0.0,0.0,0.0,0.0,0.0,0.0,0.0,0.0,0.0,0.0,7.5581,7.6723,7.4297,7.6795,7.7473,0.0,0.0,0.0,0.0,0.0,0.0,8.3075,8.5252,8.7393,8.9534,9.0783,9.1604,9.2032,9.3424,9.4673,9.5815,9.66,9.7599,9.8706,9.8135,9.8527,9.9562,9.8777,9.7885,9.6529,9.0783,8.55,8.0859,7.86,7.6782,7.5408,7.595,7.6223,7.6533,0.0,0.0,0.0,0.0,0.0,0.0,0.0,0.0,0.0,0.0,0.0,7.2364,7.5197,7.8772,8.1266,8.2029,8.2695,8.2793,8.2176,7.8839,7.6941,7.7156,7.5872,7.5225,7.5225,7.8448,8.226,8.6536,8.9087,9.1948,9.5143,9.674,9.8338,9.9786,9.9006,9.6406,9.2319,8.749,8.599,8.6531,8.2527,0.0,0.0,0.0,0.0,0.0,0.0,0.0,0.0,0.0,0.0,0.0,0.0,0.0,0.0,0.0,0.0,0.0,0.0,0.0,0.0,0.0,0.0,0.0,0.0,0.0,0.0,0.0,0.0,0.0,0.0,0.0,0.0,0.0,0.0,0.0,0.0,0.0,0.0,7.4582,7.8722,0.0,0.0,0.0,0.0,8.0684,8.4289,8.7143,8.8821,9.0391,9.1997,9.3638,9.5886,9.7813,9.9348,10.2417,10.3916,10.4023,10.4808,10.52,10.5236,10.52,10.52,10.5236,10.4522,10.3309,10.1382,9.5101,8.9876,8.5764,8.5214,8.3361,8.104,8.2103,8.1535,8.0327,0.0,0.0,0.0,0.0,0.0,0.0,0.0,0.0,6.7346,6.9586,7.2299,7.5561,7.958,8.2437,8.4978,8.7386,8.7799,8.713,8.5312,8.2333,8.0047,7.854,7.6374,7.6231,7.8484,8.1087,8.5189,9.0796,9.4325,9.7706,10.1012,10.261,10.3984,10.5025,10.469,10.2907,9.9563,9.1985,8.8032,8.6582,8.2681,8.1012,0.0,0.0,0.0,0.0,0.0,0.0,0.0,0.0,0.0,0.0,0.0,0.0,0.0,0.0,0.0,0.0,0.0,0.0,0.0,0.0,0.0,0.0,0.0,0.0,0.0,0.0,0.0,0.0,0.0,0.0,0.0,0.0,0.0,0.0,0.0,0.0,0.0,8.2504,8.7607,0.0,8.5074,8.6537,8.7607,8.7179,8.982,9.2139,9.3745,9.5815,9.7885,9.9954,10.1382,10.2809,10.4415,10.5022,10.5593,10.6092,10.6306,10.6485,10.6521,10.702,10.6984,10.6449,10.5783,10.4612,10.2943,9.9804,9.5194,9.0023,8.7491,8.5351,8.3832,8.4288,8.4018,8.3638,0.0,0.0,0.0,0.0,0.0,0.0,0.0,0.0,6.7884,6.9332,7.3323,7.7657,8.1883,8.5485,8.8864,9.1873,9.139,9.0137,8.8275,8.4088,8.0959,7.934,7.7342,7.8024,8.1806,8.4956,8.93,9.5068,9.8895,10.209,10.4802,10.6213,10.7402,10.8405,10.8405,10.7699,10.5991,9.8895,9.3322,8.8976,8.4706,8.3714,8.4293,0.0,0.0,0.0,0.0,0.0,0.0,0.0,0.0,0.0,0.0,0.0,0.0,0.0,0.0,0.0,0.0,0.0,0.0,0.0,0.0,0.0,0.0,0.0,0.0,0.0,0.0,0.0,0.0,0.0,0.0,0.0,0.0,0.0,0.0,0.0,8.9606,8.932,9.4637,9.6671,9.2496,9.3959,9.4673,9.3353,9.6172,9.8491,9.9812,10.1917,10.388,10.57,10.6521,10.7306,10.8091,10.8091,10.8091,10.8091,10.8412,10.8483,10.8483,10.8804,10.859,10.8019,10.7098,10.5926,10.4438,10.2982,9.9779,9.5295,9.1813,8.9186,8.757,8.8088,8.7777,8.7087,0.0,0.0,0.0,0.0,0.0,0.0,0.0,6.6053,6.8155,6.8444,7.3435,7.8332,8.1859,8.801,9.2914,9.5403,9.3285,9.1602,9.0983,8.36,7.9335,7.9503,7.8817,8.0499,8.4903,8.9836,9.4619,9.9266,10.2498,10.4987,10.6622,10.7402,10.8703,11.03,11.03,11.0709,11.1192,10.7997,10.2015,9.4251,8.9124,8.8164,8.9141,0.0,0.0,0.0,0.0,0.0,0.0,0.0,0.0,0.0,0.0,0.0,0.0,0.0,0.0,0.0,0.0,0.0,0.0,0.0,0.0,0.0,0.0,0.0,0.0,0.0,0.0,0.0,0.0,0.0,0.0,0.0,0.0,0.0,8.254,8.9891,9.5137,9.4423,9.9205,10.0704,9.6172,9.8491,9.9954,9.9134,10.3309,10.6306,10.702,10.859,10.9697,11.0517,11.1231,11.1302,11.0517,11.2016,11.2016,11.0517,11.1302,11.1624,11.1588,11.0803,11.041,11.0303,10.8804,10.7346,10.5887,10.453,10.3239,10.1665,9.8602,9.5288,9.2364,9.3813,9.2882,9.0674,0.0,0.0,0.0,0.0,0.0,0.0,6.3306,6.5625,6.7976,6.9923,7.6126,8.2113,8.6796,9.2616,9.7409,10.0418,9.6814,9.3641,9.1938,8.4987,8.0313,7.8781,7.9828,8.3243,8.9209,9.3319,9.7752,10.2684,10.5916,10.8405,11.0003,11.1415,11.2715,11.3718,11.3718,11.3495,11.3012,11.1526,10.8888,10.4987,9.648,9.1956,8.9868,0.0,0.0,0.0,0.0,0.0,0.0,0.0,0.0,0.0,0.0,0.0,0.0,0.0,0.0,0.0,0.0,0.0,0.0,0.0,0.0,0.0,0.0,0.0,0.0,0.0,0.0,0.0,0.0,0.0,0.0,0.0,0.0,8.9534,8.7643,9.4316,9.999,10.1525,10.6521,10.909,10.7306,10.8412,10.8911,10.8091,10.9804,11.091,11.1195,11.1588,11.1909,11.2087,11.2373,11.2587,11.298,11.2873,11.2873,11.298,11.2587,11.248,11.2409,11.1624,11.1017,11.0339,10.8911,10.716,10.5304,10.4455,10.2977,10.1151,9.9734,9.8238,9.6848,9.6124,9.4434,9.2261,0.0,0.0,0.0,0.0,0.0,0.0,6.3234,6.5447,6.7761,7.0032,7.755,8.4308,8.8355,9.4845,9.9526,10.1087,9.7088,9.3366,9.0443,8.4603,8.1045,8.0599,8.3251,8.7948,9.473,9.8383,10.2498,10.7105,10.9297,11.1229,11.2901,11.4201,11.5427,11.6504,11.6913,11.6801,11.6281,11.5427,11.4312,11.2529,10.5396,10.0604,9.708,9.204,9.0394,9.0324,8.6862,8.5844,8.5663,8.2467,0.0,0.0,0.0,0.0,0.0,0.0,0.0,0.0,0.0,0.0,0.0,0.0,0.0,0.0,0.0,0.0,0.0,0.0,0.0,0.0,0.0,0.0,0.0,0.0,9.2639,9.635,9.6636,10.0918,10.5093,10.8198,11.1588,11.3693,11.3586,11.4014,11.3907,11.3122,11.38,11.4086,11.38,11.38,11.38,11.38,11.4086,11.43,11.4478,11.4693,11.4693,11.4478,11.43,11.43,11.4229,11.3258,11.2363,0.0,10.9707,10.7732,10.5539,10.4949,10.3613,0.0,0.0,0.0,0.0,0.0,9.5262,9.3434,0.0,0.0,0.0,0.0,0.0,0.0,6.3127,6.5375,6.7509,6.9377,7.8098,8.508,8.7316,9.4845,9.9526,9.9006,9.5322,9.1397,8.7705,8.3375,8.206,8.4432,8.8545,9.3916,10.0715,10.4207,10.7811,11.1712,11.2529,11.3792,11.5427,11.6207,11.7396,11.8919,11.9699,11.9996,11.9996,11.9216,11.8399,11.7396,11.4424,11.1006,10.688,9.9612,9.8429,9.9867,9.4263,9.0777,8.8472,8.5917,0.0,0.0,0.0,0.0,0.0,0.0,0.0,0.0,0.0,0.0,0.0,0.0,0.0,0.0,0.0,0.0,0.0,0.0,0.0,0.0,0.0,0.0,0.0,0.0,9.8063,10.3095,10.7199,10.859,11.0375,11.3693,11.4907,11.5799,11.6512,11.662,11.6405,11.5727,11.6298,11.6405,11.5727,0.0,0.0,0.0,0.0,11.612,11.5406,11.6798,11.6798,11.5406,11.6013,11.6298,11.6334,11.4803,11.3642,11.2828,11.0733,10.8558,10.6433,10.5807,10.4619,10.2987,10.1608,10.0159,9.8607,9.7158,9.5675,9.4296,0.0,0.0,0.0,0.0,0.0,0.0,6.3056,6.4912,6.6899,6.9304,7.8098,8.4198,8.416,9.1428,9.6814,9.804,9.3329,8.9268,8.6792,8.3814,8.4632,9.0315,9.4837,9.9493,10.4207,10.8108,11.1526,11.4312,11.513,11.6318,11.7916,11.8807,11.9699,12.0591,12.0776,12.0888,12.0888,12.0702,12.0182,11.929,11.799,11.3904,10.8294,10.4727,10.2092,10.0126,9.8275,9.7285,9.6392,9.2856,9.1479,9.052,8.6522,8.4023,0.0,0.0,0.0,0.0,0.0,0.0,0.0,0.0,0.0,0.0,0.0,0.0,0.0,0.0,0.0,0.0,0.0,0.0,0.0,9.6577,10.2203,10.7591,11.2801,11.48,11.5478,11.5014,11.6691,11.8083,11.819,11.8796,11.9117,11.8939,11.901,11.9117,11.8939,11.8297,11.7976,11.7976,11.7512,11.719,11.7012,11.7298,11.7298,11.7012,0.0,0.0,11.6227,11.4723,11.3283,11.2014,11.1015,10.8989,10.6503,10.6329,10.4793,10.2298,10.1401,10.0159,9.8676,9.7779,9.6469,9.5055,0.0,0.0,0.0,0.0,0.0,0.0,6.2985,6.4769,6.6801,6.9491,7.6905,8.2048,8.2407,8.8287,9.2048,9.1643,8.7941,8.5651,8.5879,8.6402,8.9719,9.6577,10.0571,10.5099,11.0003,11.2901,11.539,11.7507,11.8696,11.9699,12.0516,12.0911,12.18,12.2894,12.2504,12.2282,12.23,12.23,12.178,12.0999,12.0182,11.7693,11.4089,11.1192,10.8814,10.6769,10.472,10.3043,10.1139,9.756,9.5404,9.3541,9.0097,8.7418,8.515,0.0,0.0,0.0,0.0,0.0,0.0,0.0,0.0,0.0,0.0,0.0,0.0,0.0,0.0,8.2914,8.6375,0.0,9.6875,10.2091,10.724,11.1936,11.5834,11.746,11.8021,11.7433,11.8511,11.9296,11.9296,11.9617,12.001,12.0402,12.0402,12.0402,12.0402,11.9688,11.9296,11.9296,11.8475,11.8083,11.8083,11.8083,11.7904,11.7512,11.7083,11.6905,11.6905,11.5362,11.3951,11.2435,11.0567,10.8607,10.6545,10.5817,10.4243,10.216,10.178,10.047,9.8745,9.8366,9.7503,9.6331,0.0,0.0,0.0,0.0,0.0,0.0,0.0,6.4912,6.696,6.9543,7.52,7.942,8.0406,8.4633,8.6463,8.435,8.3103,8.3646,8.65,9.0254,9.554,10.261,10.6213,11.0411,11.539,11.7396,11.9216,12.0888,12.23,12.308,12.3303,12.3268,12.4025,12.5197,12.4488,12.4099,12.3971,12.3786,12.3178,12.2236,12.142,12.0517,11.9342,11.6677,11.5095,11.3918,11.1115,10.7672,10.396,10.161,9.8432,9.5169,9.3395,9.1403,8.8972,8.5771,8.3904,0.0,0.0,0.0,0.0,0.0,0.0,0.0,0.0,0.0,7.9678,8.1888,8.4725,8.8108,9.2665,9.7709,10.27,10.7152,11.151,11.5175,11.7638,11.8638,11.9491,12.0142,12.0117,12.0117,12.0295,12.0402,12.0795,12.1401,12.1508,12.1401,12.1223,12.0509,12.001,11.9831,11.9189,11.8796,11.8689,11.8796,11.8475,11.769,11.7611,11.754,11.7282,11.6152,11.4631,11.288,10.9871,10.785,10.6609,10.5091,10.3574,10.2194,10.2194,10.0883,9.8986,9.8849,9.8331,9.74,0.0,0.0,0.0,0.0,0.0,0.0,0.0,0.0,6.739,6.8831,7.3363,7.6451,7.6291,7.9413,8.1109,8.0261,8.3495,8.7353,9.1433,9.5143,10.0384,10.7811,11.1897,11.5018,11.7099,12.0182,12.2597,12.4269,12.5086,12.5978,12.6683,12.6668,12.6779,12.6906,12.6779,12.6371,12.568,12.4974,12.3689,12.2158,12.1385,12.0199,11.8852,11.8353,11.7331,11.582,11.4825,11.0554,10.5627,10.5836,10.2981,9.9254,9.898,9.7765,9.5315,8.9679,8.5817,8.2594,7.9601,7.7667,7.6782,7.7972,7.8621,7.9653,0.0,0.0,8.6276,8.8989,9.1073,9.3374,9.6729,10.0761,10.4969,10.961,11.3152,11.6191,11.9321,12.025,12.0962,12.183,12.1294,12.1116,12.1901,12.2579,12.3007,12.3079,12.3079,12.2793,12.2115,12.1294,12.0509,11.9831,11.9724,11.9403,11.8689,11.9296,11.9296,11.8582,11.7964,11.7301,11.6628,11.584,11.4456,11.2231,10.8445,10.6919,10.6609,10.5091,10.3574,10.2194,10.2194,10.1194,9.9676,9.9021,9.8331,9.7538,0.0,0.0,0.0,0.0,0.0,0.0,0.0,0.0,0.0,6.8342,7.1421,7.3644,7.392,7.6043,7.7091,7.6338,8.0681,8.6306,9.2899,9.7986,10.4616,11.3495,11.6393,11.9105,12.1705,12.3488,12.4833,12.5412,12.7319,12.7838,12.7223,12.7703,12.8246,12.8615,12.7596,12.7023,12.6609,12.5301,12.3784,12.2322,12.1952,12.0607,11.8812,11.9214,11.6672,11.2678,11.1935,10.883,0.0,10.2778,10.078,9.9205,9.9205,9.6946,9.3804,9.0793,8.647,8.2102,7.9747,7.9241,7.9437,8.0175,8.2278,8.4656,8.6662,8.874,9.1122,9.3933,9.7004,10.0188,10.359,10.6983,11.0348,0.0,11.5418,11.7635,11.9715,11.9892,11.9924,12.0071,12.0224,12.1009,12.2686,12.3186,12.3792,12.4684,12.4292,12.3899,12.3578,12.2401,12.133,12.0509,12.0509,12.0117,11.9296,11.9617,11.917,11.807,11.7372,11.6554,11.5875,11.5227,11.3464,11.0888,10.801,10.6505,10.6022,10.4884,10.3574,10.2194,10.2194,10.1263,9.9849,9.9538,9.8952,9.8159,0.0,0.0,0.0,0.0,0.0,0.0,0.0,0.0,0.0,0.0,7.0015,7.1656,7.2405,7.3726,7.4297,7.3726,7.8201,8.4423,9.235,9.8872,10.6693,11.6318,11.9179,12.199,12.4949,12.6408,12.7097,12.733,12.913,12.9426,12.8103,12.8803,12.9283,12.9542,12.8434,12.7585,12.706,12.5415,12.3566,12.1903,12.1737,12.0196,11.7957,11.7552,11.3848,10.8914,10.8286,10.5224,10.1018,9.7789,9.6363,9.6079,9.6541,9.4645,9.1917,9.0105,8.5581,8.0841,7.9761,8.05,8.1942,8.3085,8.6263,8.9633,9.1743,9.4247,9.701,10.0126,10.3067,10.6111,10.9144,11.173,11.4044,11.5537,11.7023,11.8379,11.9237,11.9045,11.8305,11.7594,11.7682,11.8725,12.0902,12.2293,12.3685,12.5291,12.4613,12.4185,12.4185,12.29,12.1794,12.1009,12.1009,12.0616,11.9831,11.9831,11.9205,11.7987,11.6957,11.6208,11.5509,11.4217,11.2539,11.0403,10.8023,10.6609,10.5815,10.5091,10.3781,10.2194,10.2194,10.1263,9.9883,9.9883,9.9435,9.8607,0.0,0.0,0.0,0.0,0.0,0.0,0.0,0.0,0.0,0.0,0.0,0.0,0.0,7.2405,7.2869,7.2834,7.7055,8.2686,8.9862,9.7613,10.5938,11.4721,11.9699,12.3393,12.5857,12.832,12.9913,13.0718,13.0681,13.0681,13.0681,13.0681,13.0276,12.9576,12.9502,12.8692,12.7109,12.5463,12.3316,12.1115,12.0248,11.8551,11.6018,11.216,10.8378,10.5356,10.5175,10.0219,9.3451,9.2127,9.0633,8.9612,9.1256,9.2207,9.1864,8.7501,8.2581,7.8784,7.9892,8.0997,8.2795,8.6915,9.0284,9.3799,9.8359,10.1656,10.4924,10.8679,10.9746,11.0506,11.1989,11.2989,11.4059,11.5576,11.7072,11.7988,11.8154,11.7775,11.6828,11.4598,11.3609,11.3622,0.0,11.951,12.29,12.4399,12.3864,12.34,12.34,12.2615,12.1794,12.1009,12.1009,12.0616,11.9831,11.9831,11.9439,11.8725,11.7281,11.6281,11.5439,11.2667,11.1299,11.1127,10.892,10.7402,10.6643,10.5919,10.4229,10.2194,10.2194,10.1263,9.9883,9.9883,9.9435,9.8676,0.0,0.0,0.0,0.0,0.0,0.0,0.0,0.0,0.0,0.0,0.0,0.0,0.0,0.0,0.0,0.0,7.569,8.044,8.61,9.463,10.2529,10.9304,11.6726,12.2085,12.5134,12.7555,12.9505,13.0791,13.1363,13.1363,13.0791,13.0791,13.0681,13.0386,12.9797,12.8987,12.7919,12.6297,12.4457,12.2472,12.0063,11.8553,11.7399,11.2439,10.7133,10.146,0.0,9.3114,8.8636,8.6129,8.523,8.5406,8.6425,8.6416,8.51,8.0719,8.0755,8.2138,8.2257,8.56,9.0148,9.49,9.7743,10.0683,10.5341,10.7741,10.9206,11.0554,11.0082,10.9609,11.0092,11.0403,11.123,11.3231,11.5774,11.7592,11.8474,11.8985,11.7442,11.2509,11.3822,0.0,0.0,0.0,0.0,12.2686,12.3186,12.34,12.34,12.3079,12.2401,12.1009,12.1508,12.0951,11.9242,11.9242,11.8372,11.6667,11.5297,11.4748,11.4852,11.2974,11.23,11.261,10.9333,10.7712,10.7402,10.5609,10.3781,10.2194,10.2677,10.1677,9.9952,10.047,10.0194,9.94,0.0,0.0,0.0,0.0,0.0,0.0,0.0,0.0,0.0,0.0,0.0,0.0,0.0,0.0,0.0,0.0,0.0,7.7919,8.2357,8.9384,9.6355,10.297,10.9202,11.4028,11.7297,11.8783,12.0768,12.3276,12.4177,12.5438,12.6968,12.7526,12.7919,12.8214,12.7993,12.7219,12.6152,12.4828,12.2588,11.9803,11.5795,11.3553,11.1908,10.5535,9.9843,0.0,8.9493,8.5809,8.3005,8.105,8.0701,8.1155,8.1329,8.0907,7.9921,7.821,8.0707,8.4357,8.6307,9.0806,9.5951,10.0509,10.3381,10.5991,10.9649,11.0865,11.123,11.092,10.923,10.7609,10.7092,10.6298,10.6712,10.9506,11.1403,11.3657,11.6551,11.6236,11.4298,11.0858,11.1708,11.1438,0.0,0.0,0.0,12.0616,12.1164,12.1912,12.3293,12.3159,12.2696,12.1901,12.1805,12.1067,11.9307,11.878,11.7635,11.5691,11.4445,11.4218,11.461,11.2817,11.261,11.3403,11.0127,10.8402,10.7816,10.6298,10.447,10.2608,10.3091,10.2091,10.0401,10.0883,10.0573,9.978,0.0,0.0,0.0,0.0,0.0,0.0,0.0,0.0,0.0,0.0,0.0,0.0,0.0,0.0,0.0,0.0,0.0,0.0,7.8565,8.2357,8.7946,9.5777,9.8006,10.0536,10.358,10.34,10.5388,10.9519,11.0345,11.3625,11.9177,12.0632,12.1728,12.261,12.3382,12.2904,12.1323,12.0508,11.7545,11.2922,10.7692,10.3838,10.0428,9.2268,8.7925,8.5565,8.1743,7.8985,7.7154,7.7223,7.7223,7.7085,7.6395,7.6223,7.6878,7.9913,8.2569,8.5846,9.1778,9.6262,10.0159,10.4039,10.6988,10.9506,11.0989,11.123,11.092,10.992,10.723,10.4608,0.0,0.0,10.0918,10.4815,10.5195,10.7057,11.2955,11.0759,10.8642,0.0,0.0,0.0,0.0,0.0,0.0,11.8039,0.0,11.9264,12.3066,12.2758,12.2722,12.3435,12.2047,12.09,11.9963,11.8498,11.7062,11.5562,11.4763,11.454,11.461,11.2403,11.2196,11.3507,11.1127,10.923,10.7919,10.7816,10.6022,10.3298,10.3298,10.2401,10.109,10.109,10.0573,9.978,0.0,0.0,0.0,0.0,0.0,0.0,0.0,0.0,0.0,0.0,0.0,0.0,0.0,0.0,0.0,0.0,0.0,0.0,7.4297,7.932,8.3618,8.6637,9.222,9.6291,9.8699,10.0128,10.2018,10.4344,10.4527,10.5707,10.7668,10.7992,10.8628,10.9359,11.008,10.9899,10.889,10.8147,10.6538,10.387,9.9595,9.7824,9.7076,9.1486,8.8034,8.5844,8.3157,7.9695,7.6464,7.7016,7.7223,7.7189,7.7301,7.7975,7.9258,8.2259,8.7191,9.2609,9.6849,10.1682,10.6318,10.951,11.0508,11.0817,11.1196,11.0403,10.8402,10.4263,10.0504,9.7021,9.3744,0.0,0.0,10.2401,10.7678,0.0,11.7072,11.7822,0.0,11.2948,0.0,11.256,10.9411,11.0743,0.0,0.0,11.7479,11.918,12.2386,12.3464,12.382,12.3486,12.2546,12.1395,12.0116,11.7552,11.5771,11.491,11.4184,11.4087,11.461,11.292,11.2714,11.3403,11.0506,10.8816,10.7816,10.6712,10.5022,10.3367,10.3988,10.2884,10.1159,10.1677,10.109,9.9849,0.0,0.0,0.0,0.0,0.0,0.0,0.0,0.0,0.0,0.0,0.0,0.0,0.0,0.0,0.0,0.0,0.0,0.0,0.0,7.5831,7.8302,8.0161,8.32,8.5472,8.706,8.7638,8.9679,9.3211,9.3581,9.577,9.9749,10.0069,10.0551,10.1377,10.2095,10.1988,10.1197,10.049,9.8865,0.0,0.0,8.9681,8.93,8.4856,8.2755,8.213,8.08,7.8982,7.7416,7.9247,7.9346,7.897,8.0393,8.2234,8.4647,8.8397,9.3131,9.8167,10.2535,10.6717,11.0287,11.219,11.2238,11.1131,10.8873,10.7092,10.4298,9.8331,9.4572,9.133,8.7846,8.9778,9.3503,0.0,0.0,0.0,11.6836,11.7737,11.728,0.0,11.5564,0.0,11.2024,11.296,11.4361,0.0,11.6964,11.8669,12.2103,12.3149,12.3751,12.4015,12.302,12.1488,11.9757,11.7447,11.5858,11.5197,11.4093,11.399,11.4714,11.3507,11.33,11.3921,0.0,10.992,10.8816,10.723,10.5712,10.4298,10.4091,10.3194,10.1987,10.178,10.1159,10.0366,0.0,0.0,0.0,0.0,0.0,0.0,0.0,0.0,0.0,0.0,0.0,0.0,0.0,0.0,0.0,0.0,0.0,0.0,0.0,0.0,7.3487,7.5996,7.4251,7.3555,7.4217,7.3178,7.5119,8.021,8.0992,8.5159,9.2367,9.3191,9.4007,9.4799,9.5642,9.5606,9.4835,9.4057,9.2079,8.9129,8.3777,8.1188,8.026,0.0,7.5913,7.7085,7.7085,7.743,7.8542,8.2276,8.2544,8.1905,8.4993,8.8015,9.1331,9.6179,9.9442,10.2664,10.786,11.0923,11.2607,11.3429,11.2746,11.0641,10.5351,10.278,9.9435,9.2399,8.9191,8.6742,8.3569,8.5259,8.8984,9.4606,0.0,10.6712,11.5197,11.53,11.5532,11.8107,11.644,11.5169,11.4978,11.5087,11.5803,11.7223,11.7248,11.8761,12.2207,12.2637,12.3307,12.4419,12.3271,12.1367,11.9004,11.764,11.6448,11.5818,11.43,11.3921,11.4507,11.3886,11.3817,11.4197,11.2817,0.0,10.9782,10.8333,10.6919,10.5505,10.3988,10.3401,10.3091,10.1884,10.1263,10.0987,0.0,0.0,0.0,0.0,0.0,0.0,0.0,0.0,0.0,0.0,6.8016,6.8088,0.0,0.0,0.0,0.0,0.0,0.0,0.0,0.0,0.0,7.4871,7.3639,7.2827,7.2649,7.2348,7.2533,7.3219,7.4633,7.6348,7.8379,7.9808,8.0907,8.1673,8.244,8.2718,8.2474,8.1081,8.0156,7.9456,7.7181,7.6141,7.6,7.5913,0.0,0.0,7.6292,7.5982,7.6537,8.3031,8.5286,8.6212,9.1231,9.3898,9.6242,10.1369,10.4154,10.6579,11.0626,11.2528,11.3458,11.4207,11.2459,10.9184,10.3746,9.9952,9.5193,8.7053,8.4121,8.1845,7.8154,8.1914,8.795,9.5124,10.1815,10.9299,11.8301,11.9405,11.9543,0.0,11.9957,11.9438,11.9266,11.9149,0.0,0.0,0.0,12.1708,12.2465,12.367,12.3881,12.2931,12.2661,12.1033,11.8231,11.7412,11.6448,11.5818,11.43,11.3679,11.3783,11.3679,11.2989,11.1886,11.161,0.0,10.823,10.7333,10.6436,10.554,10.4608,10.3884,10.3298,10.2987,10.2091,10.1056,0.0,0.0,0.0,0.0,0.0,0.0,0.0,6.4947,6.6232,7.0621,7.1192,7.055,6.8908,6.7624,0.0,0.0,0.0,0.0,0.0,0.0,0.0,0.0,7.351,7.2474,7.1273,7.1619,7.1953,7.2119,0.0,7.4602,7.612,7.6878,7.743,7.781,7.8154,7.8327,7.8258,7.712,7.6637,7.6533,7.5395,7.5188,7.5602,7.5982,0.0,0.0,7.6671,7.6706,7.7485,8.2901,8.7228,9.1403,9.6891,10.0589,10.352,10.7234,10.9183,11.0837,11.4154,11.4578,11.4262,11.5411,11.1654,10.6233,10.0102,9.5089,8.9605,8.2052,8.0258,7.9224,7.6602,8.0741,8.6294,9.1537,9.7124,10.4401,11.4783,11.6197,11.7715,12.1612,12.1784,12.1405,12.0991,12.0957,12.1056,0.0,0.0,12.2549,12.3053,12.3785,12.3564,12.1969,12.1944,12.0746,11.8568,11.7509,11.6448,11.5818,11.43,11.361,11.361,11.399,11.361,11.2507,11.2093,0.0,10.9506,10.8023,10.6919,10.6126,10.4884,10.4263,10.3781,10.2987,10.2504,10.2091,0.0,0.0,0.0,0.0,0.0,0.0,0.0,6.7231,6.873,7.4761,7.5225,7.3869,7.0907,6.8623,6.7374,0.0,0.0,0.0,0.0,0.0,0.0,0.0,0.0,0.0,7.0799,0.0,0.0,7.2671,7.3602,0.0,0.0,0.0,0.0,0.0,7.7223,7.7223,7.7154,7.643,7.6223,0.0,0.0,7.5637,0.0,0.0,0.0,0.0,0.0,7.7534,7.8521,8.2696,8.7622,9.3099,9.883,10.4745,10.9762,11.1046,11.274,11.442,11.6703,11.6096,11.4983,11.6227,11.0748,10.3313,9.6857,9.1019,8.5087,7.8568,7.7706,7.7741,7.6361,7.9913,8.4156,8.7536,9.1916,9.8814,11.0127,11.2403,11.53,12.1819,12.2785,0.0,12.2302,12.2033,0.0,0.0,0.0,0.0,12.36,12.3425,12.2872,12.1399,12.1165,12.0396,11.8871,11.7551,11.6489,11.5818,11.4507,11.3783,11.361,11.4404,11.4197,11.33,11.2714,0.0,0.0,10.8816,10.7506,10.6816,10.5298,10.4677,10.4574,10.3194,10.2987,10.3091,0.0,0.0,0.0,0.0,0.0,0.0,0.0,6.8623,7.1763,7.9435,7.9186,7.733,7.4939,7.3155,7.0514,0.0,0.0,0.0,0.0,0.0,0.0,0.0,0.0,0.0,0.0,0.0,0.0,7.2671,7.4119,0.0,0.0,0.0,0.0,0.0,0.0,7.7223,7.7154,7.643,0.0,0.0,0.0,0.0,0.0,0.0,0.0,0.0,0.0,7.6844,7.7175,8.2905,8.4812,8.6044,9.2519,10.2615,11.1638,10.9757,11.2566,11.6281,11.579,11.5677,11.5541,11.5631,10.9513,10.214,9.6607,9.0192,8.3845,7.8361,7.7292,7.7085,7.6258,7.8189,8.1362,8.5811,9.0329,9.7055,10.7816,11.23,11.6507,12.1991,12.3198,12.3888,12.4509,12.4066,0.0,0.0,0.0,0.0,12.3729,12.3102,12.2335,12.1399,12.0733,11.9635,11.8231,11.7436,11.6677,11.5818,11.499,11.4197,11.361,11.4404,11.3921,11.2507,11.2438,0.0,0.0,10.8609,10.7919,10.7609,10.6126,10.5505,10.5402,10.4574,10.3884,10.3194,0.0,0.0,0.0,0.0,0.0,0.0,6.7731,6.7481,7.0336,8.1077,8.1113,7.9971,7.9471,7.8008,7.4047,0.0,0.0,0.0,0.0,0.0,0.0,0.0,0.0,0.0,0.0,0.0,7.2696,7.1981,7.3947,0.0,0.0,0.0,0.0,0.0,0.0,7.7223,7.7189,7.6913,0.0,0.0,0.0,0.0,0.0,0.0,0.0,0.0,0.0,0.0,7.7085,7.9463,8.2241,8.4875,8.5602,9.3242,10.2614,10.5924,10.9643,11.3241,11.6071,11.6271,11.575,11.6122,10.8243,9.9676,9.6193,8.8674,8.1466,7.7948,7.7223,7.712,7.6844,7.7534,7.9017,8.1776,8.2604,8.6294,9.602,9.9504,10.4712,11.461,11.8094,0.0,0.0,0.0,0.0,0.0,0.0,0.0,12.3071,12.2726,12.2064,12.0752,11.9956,11.9093,11.8094,11.7404,11.6611,11.5818,11.5093,11.43,11.361,11.3886,11.3403,11.2403,11.192,0.0,0.0,10.9023,10.8299,10.7816,10.723,10.6436,10.5609,10.5298,10.4677,10.3781,0.0,0.0,0.0,0.0,0.0,6.0094,6.7481,6.7552,7.0478,8.097,8.1826,8.1541,8.1826,7.965,7.5403,6.848,0.0,0.0,0.0,0.0,0.0,0.0,0.0,0.0,0.0,0.0,7.3078,7.2153,7.4016,7.505,0.0,0.0,7.7223,7.7223,0.0,0.0,0.0,0.0,0.0,0.0,0.0,0.0,0.0,0.0,0.0,0.0,0.0,0.0,0.0,0.0,0.0,8.2466,8.0293,8.462,9.2095,9.9806,10.5794,11.0662,11.4718,11.6048,11.6249,11.6297,10.7736,9.8469,9.5951,8.7915,8.0258,7.7741,7.7223,7.7223,7.7223,7.7223,7.7568,7.8672,7.8051,8.0396,8.8846,9.1744,9.7227,10.8609,0.0,0.0,0.0,0.0,0.0,0.0,0.0,0.0,12.2612,12.2449,12.1687,12.037,11.9405,11.8611,11.8094,11.7404,11.6611,11.5818,11.5093,11.43,11.361,11.3403,11.3093,11.2714,11.1506,0.0,0.0,10.9402,10.8713,10.8195,10.7712,10.6919,10.5919,10.5436,10.4884,10.4263,0.0,0.0,0.0,0.0,0.0,0.0,6.6053,6.9622,7.3619,7.9221,8.1255,8.1898,8.1184,7.6902,7.3726,7.2798,0.0,0.0,0.0,0.0,0.0,0.0,0.0,0.0,0.0,0.0,7.3891,7.3774,7.4533,7.5326,7.612,7.6878,7.7223,7.7223,0.0,0.0,0.0,0.0,0.0,0.0,0.0,0.0,0.0,0.0,0.0,0.0,0.0,0.0,0.0,0.0,0.0,0.0,0.0,7.8361,8.1603,9.1502,10.1664,11.0001,11.0757,11.4472,11.7475,11.5895,10.7547,9.909,9.6089,8.8329,8.0914,7.7844,7.7223,7.7223,7.7223,7.7223,7.7223,7.7258,7.912,8.2983,8.9916,9.3468,9.8193,0.0,0.0,0.0,0.0,0.0,0.0,0.0,0.0,0.0,12.2612,12.1888,12.1198,12.0405,11.8887,11.8094,11.8094,11.7404,11.6611,11.5818,11.5093,11.43,11.361,11.2817,11.2817,11.3507,0.0,0.0,0.0,10.9609,10.9023,10.8816,10.7333,10.6712,10.654,10.4988,10.447,10.4367,0.0,0.0,0.0,0.0,0.0,0.0,0.0,6.3341,6.6196,7.3369,7.4225,7.5332,7.8329,7.4903,7.2334,7.2049,7.0371,0.0,0.0,0.0,0.0,0.0,0.0,0.0,0.0,0.0,7.3361,7.3891,7.3594,7.4221,7.5759,7.6173,7.674,7.7223,7.7223,0.0,0.0,0.0,0.0,0.0,0.0,0.0,0.0,0.0,0.0,0.0,0.0,0.0,0.0,0.0,0.0,0.0,0.0,0.0,0.0,8.4225,9.2477,10.027,10.1938,10.5539,10.7916,10.4735,9.8764,9.3158,9.1192,8.5294,7.9672,7.7637,7.7223,7.7223,7.7223,7.7223,7.7913,8.0017,8.05,8.1914,8.5673,9.1054,0.0,10.4401,11.4404,0.0,0.0,0.0,0.0,0.0,0.0,0.0,12.1922,12.1095,12.0612,12.0405,11.9405,11.8611,11.8094,11.7887,11.7094,11.5818,11.5611,11.4817,11.361,11.33,11.3093,0.0,0.0,0.0,0.0,10.9437,10.9023,10.892,10.7919,10.723,10.6609,10.5609,10.4884,10.4367,0.0,0.0,0.0,0.0,0.0,0.0,0.0,6.0594,6.2985,6.7909,6.8908,7.0835,7.526,7.1727,6.9729,7.1549,6.9943,0.0,0.0,0.0,0.0,0.0,0.0,0.0,0.0,7.2977,7.3308,7.5239,7.4649,7.5587,7.7789,7.8059,7.8189,7.8085,7.781,7.7499,0.0,0.0,0.0,0.0,0.0,0.0,7.7223,0.0,0.0,0.0,0.0,0.0,0.0,0.0,0.0,0.0,0.0,0.0,0.0,0.0,8.5312,9.1122,9.5332,9.9379,10.1751,9.9165,9.449,8.9985,8.8501,8.3673,7.9086,7.7534,7.7223,7.7223,7.7223,7.7223,7.7844,7.9776,7.9638,8.0534,8.3983,0.0,0.0,10.4332,0.0,0.0,0.0,0.0,0.0,0.0,0.0,0.0,12.1577,12.0784,12.0301,11.9991,11.9198,11.8611,11.8094,11.7818,11.7094,11.5818,11.5507,11.4783,11.361,11.33,11.3024,0.0,0.0,0.0,0.0,10.9437,10.9023,10.892,10.7919,10.7126,10.6609,10.5609,10.4884,10.4367,0.0,0.0,0.0,0.0,0.0,0.0,0.0,0.0,6.2985,6.3056,6.5054,6.7873,7.1549,6.7517,6.6303,7.0728,0.0,0.0,0.0,0.0,0.0,0.0,0.0,0.0,7.3464,7.2167,7.3491,7.7404,7.7094,7.8479,8.1255,8.147,8.081,7.9465,7.8741,7.7948,0.0,0.0,0.0,0.0,7.7223,7.7223,0.0,0.0,0.0,0.0,0.0,0.0,0.0,0.0,0.0,0.0,0.0,0.0,0.0,0.0,0.0,0.0,0.0,9.4739,9.7562,9.7318,9.3067,8.8674,8.7191,8.3018,0.0,7.7534,7.7223,7.7223,7.7223,7.7223,7.7292,7.7499,7.7499,7.9293,8.4604,8.9157,0.0,0.0,0.0,0.0,0.0,0.0,0.0,0.0,0.0,0.0,12.1508,12.0784,11.9991,11.9129,11.8404,11.799,11.799,11.7301,11.6507,11.5714,11.5024,11.43,11.361,11.2817,11.2886,0.0,0.0,0.0,0.0,10.9609,10.9023,10.8816,10.7333,10.6712,10.654,10.4988,10.447,10.447,0.0,0.0,0.0,0.0,0.0,0.0,0.0,0.0,0.0,0.0,6.0843,6.2164,6.3663,6.3734,6.4126,0.0,0.0,0.0,0.0,0.0,0.0,0.0,0.0,0.0,7.3831,7.1823,7.274,7.6636,7.5078,7.6272,8.0123,7.9861,7.9658,7.9465,7.8741,7.7948,0.0,0.0,0.0,0.0,7.7223,7.7223,0.0,0.0,0.0,0.0,7.7223,7.7223,0.0,0.0,0.0,0.0,0.0,0.0,0.0,0.0,7.8017,7.8775,8.117,0.0,8.6839,8.4523,8.3355,8.25,0.0,7.9982,7.8396,0.0,0.0,0.0,7.7223,7.7223,7.7982,8.0362,8.0224,8.1466,8.6225,0.0,0.0,0.0,0.0,0.0,0.0,0.0,0.0,0.0,0.0,0.0,12.0715,12.0508,11.9784,11.8404,11.7611,11.7301,11.7301,11.6507,11.5714,11.499,11.4817,11.43,11.361,11.3403,11.3093,0.0,0.0,0.0,11.0334,10.9402,10.9023,10.8816,10.7333,10.6712,10.654,10.4988,10.447,10.447,0.0,0.0,0.0,0.0,0.0,0.0,0.0,0.0,0.0,0.0,0.0,0.0,0.0,0.0,0.0,0.0,0.0,0.0,0.0,0.0,0.0,0.0,0.0,7.187,7.344,7.1336,7.2575,7.7437,7.5379,7.6755,8.1191,8.026,7.9878,7.9948,7.8499,7.743,0.0,0.0,0.0,0.0,7.7223,0.0,0.0,0.0,0.0,0.0,7.7223,7.7223,0.0,7.7223,7.7223,7.7223,0.0,0.0,0.0,0.0,7.7223,7.7327,7.7741,7.9879,8.1638,8.0362,8.0051,8.0017,7.9603,7.8672,7.7741,0.0,0.0,0.0,0.0,7.7223,7.7879,7.9913,8.0155,8.2811,0.0,0.0,0.0,0.0,0.0,0.0,0.0,0.0,0.0,0.0,0.0,12.1612,12.0474,11.9991,11.9301,11.8094,11.7025,11.6611,11.699,11.6197,11.5404,11.4714,11.4714,11.43,11.361,11.3196,11.2817,0.0,0.0,0.0,11.0127,10.9333,10.8609,10.7919,10.7023,10.6333,10.5505,10.4367,10.416,10.4367,0.0,0.0,0.0,0.0,0.0,0.0,0.0,0.0,0.0,0.0,0.0,0.0,0.0,0.0,0.0,0.0,0.0,0.0,0.0,0.0,0.0,0.0,0.0,7.1228,7.2762,7.0913,7.2689,7.8329,7.6713,7.8396,8.305,8.1956,8.1145,8.0534,7.8465,7.7085,0.0,0.0,0.0,0.0,7.7223,0.0,0.0,0.0,0.0,0.0,0.0,0.0,0.0,7.7223,7.7223,7.7223,7.7223,0.0,0.0,0.0,0.0,0.0,7.7637,7.8844,8.0051,8.0086,7.9707,7.9327,7.9189,7.8154,7.7223,0.0,0.0,0.0,0.0,7.7327,0.0,0.0,0.0,0.0,0.0,0.0,0.0,0.0,0.0,0.0,0.0,0.0,0.0,0.0,0.0,12.1095,12.0405,11.9508,11.8715,11.799,11.6404,11.599,11.6611,11.5887,11.5197,11.4507,11.4404,11.4024,11.3403,11.261,11.2196,11.2024,0.0,0.0,10.9816,10.9023,10.7816,10.654,10.6333,10.5402,10.4194,10.3574,10.3677,10.4194,0.0,0.0,0.0,0.0,0.0,0.0,0.0,0.0,0.0,0.0,0.0,0.0,0.0,0.0,0.0,0.0,0.0,0.0,0.0,0.0,0.0,7.0443,7.0514,7.1228,7.2762,7.0913,7.2156,7.6759,7.7636,7.9823,8.3155,8.4426,8.3469,8.0569,7.9603,7.8361,7.7051,0.0,0.0,7.7223,7.7223,0.0,0.0,0.0,0.0,0.0,0.0,0.0,0.0,7.7223,7.7223,7.7223,7.7223,0.0,0.0,0.0,0.0,0.0,7.9569,8.1224,8.1638,7.8534,7.8154,7.8396,7.7741,0.0,7.7223,7.7223,0.0,0.0,0.0,7.7879,0.0,0.0,0.0,0.0,0.0,0.0,0.0,0.0,0.0,0.0,0.0,0.0,0.0,0.0,0.0,0.0,12.0405,11.9025,11.7922,11.7197,11.568,11.4921,11.5093,11.43,11.3886,11.3783,11.3093,11.2714,11.261,11.1817,11.1127,11.0506,0.0,10.9402,10.8195,10.7402,10.654,10.5643,10.4298,10.3677,10.347,10.3298,10.3367,10.3574,0.0,0.0,0.0,0.0,0.0,0.0,0.0,0.0,0.0,0.0,0.0,0.0,0.0,0.0,0.0,0.0,0.0,0.0,0.0,0.0,6.9372,7.2298,7.1585,7.1656,7.2762,7.2798,7.5006,7.9543,8.0964,8.3576,8.7434,8.6116,8.3521,7.9982,7.881,7.7672,7.6637,7.7051,7.7223,7.7223,0.0,0.0,0.0,0.0,0.0,0.0,0.0,0.0,0.0,0.0,7.7223,7.7223,7.7223,0.0,0.0,0.0,0.0,0.0,7.8499,7.9603,8.0051,7.8292,7.9362,8.0327,0.0,0.0,0.0,0.0,0.0,0.0,0.0,0.0,0.0,0.0,0.0,0.0,0.0,0.0,0.0,0.0,0.0,0.0,0.0,0.0,0.0,0.0,0.0,0.0,11.9715,11.7922,11.6921,11.699,11.5507,11.4714,11.4714,11.399,11.361,11.361,11.2817,11.2403,11.2403,11.123,11.0506,11.0196,0.0,10.8506,10.7816,10.7023,10.6022,10.4884,10.4194,10.3401,10.278,10.3194,10.3298,10.3401,0.0,0.0,0.0,0.0,0.0,0.0,0.0,0.0,0.0,0.0,0.0,0.0,0.0,0.0,0.0,0.0,0.0,0.0,0.0,0.0,6.9551,7.2762,7.2655,7.3119,7.444,7.5688,7.8609,8.333,8.5252,8.8005,9.1591,8.7592,8.3776,8.0224,7.8534,7.7258,7.6395,7.6982,7.7223,7.7223,0.0,0.0,0.0,0.0,0.0,0.0,0.0,0.0,0.0,0.0,0.0,0.0,0.0,0.0,0.0,7.7223,7.7223,7.7327,7.7879,7.8603,7.9155,7.8982,0.0,0.0,0.0,0.0,0.0,0.0,0.0,0.0,0.0,0.0,0.0,0.0,0.0,0.0,0.0,0.0,0.0,0.0,0.0,0.0,0.0,0.0,0.0,0.0,0.0,0.0,11.8922,11.6818,11.5818,11.6404,11.5128,11.4404,11.4404,11.3886,11.361,11.361,11.2817,11.23,11.2127,11.0817,10.9989,10.9609,10.8402,10.7712,10.7299,10.6333,10.5126,10.3884,10.3574,10.278,10.1987,10.278,10.3194,10.3367,0.0,0.0,0.0,0.0,0.0,0.0,0.0,0.0,0.0,0.0,0.0,0.0,0.0,0.0,0.0,0.0,0.0,0.0,0.0,0.0,6.8551,6.9622,7.3048,7.6331,7.9328,7.9507,8.1978,8.6806,9.008,9.2123,9.2886,8.9019,8.5604,8.2569,8.0327,7.8534,7.7154,7.7189,7.7223,7.7223,7.7223,0.0,0.0,0.0,0.0,0.0,0.0,0.0,0.0,0.0,0.0,0.0,0.0,0.0,7.7223,7.7223,7.7223,7.7672,7.981,8.0948,8.1397,8.0638,7.9017,0.0,8.1845,8.2017,0.0,8.419,0.0,0.0,0.0,0.0,0.0,0.0,0.0,0.0,0.0,0.0,0.0,0.0,0.0,0.0,0.0,0.0,0.0,0.0,0.0,0.0,11.8094,11.6025,11.4817,11.4886,11.4093,11.3679,11.3679,11.361,11.361,11.361,11.2817,11.2024,11.1403,11.0506,10.9402,10.8092,10.7919,10.7126,10.5712,10.4194,10.3091,10.2194,10.078,10.0608,10.1263,10.1987,10.2677,10.3298,0.0,0.0,0.0,0.0,0.0,0.0,0.0,0.0,0.0,0.0,0.0,0.0,0.0,0.0,0.0,0.0,0.0,0.0,0.0,6.7267,6.8623,7.1371,7.3405,7.5938,7.9079,8.3504,8.8418,9.3731,9.6799,9.6754,9.3744,8.9433,8.5294,8.1397,7.912,7.7775,7.7223,7.7223,7.7223,7.7223,7.7223,7.7223,0.0,0.0,0.0,0.0,0.0,0.0,0.0,0.0,7.7223,7.7223,7.7223,7.7223,7.7223,7.7223,7.7223,7.7396,7.8258,7.9086,7.9603,7.9327,7.8948,0.0,0.0,8.4466,8.5673,8.7018,0.0,0.0,0.0,0.0,0.0,0.0,0.0,0.0,0.0,0.0,0.0,0.0,0.0,0.0,0.0,0.0,0.0,0.0,0.0,0.0,11.6714,11.499,11.4197,11.4714,11.399,11.361,11.361,11.361,11.33,11.2817,11.2093,11.161,11.123,10.9506,10.8437,10.7816,10.6919,10.6126,10.5505,10.3919,10.3091,10.2677,10.1194,10.078,10.109,10.1366,10.2263,10.3298,0.0,0.0,0.0,0.0,0.0,0.0,0.0,0.0,0.0,0.0,0.0,0.0,0.0,0.0,0.0,0.0,0.0,0.0,6.6517,6.6839,6.8266,7.1192,7.3048,7.565,7.9209,8.639,9.2198,9.6393,9.9658,9.8437,9.2744,8.8639,8.4777,8.1224,7.8465,7.7637,7.8258,7.7534,7.7223,7.7223,7.7223,7.7223,0.0,0.0,0.0,0.0,0.0,0.0,0.0,0.0,7.7223,7.7223,7.7223,7.7223,7.7223,7.7223,7.7223,7.7223,7.7223,7.743,7.7741,0.0,0.0,0.0,8.5466,8.8122,9.0295,9.2744,0.0,0.0,0.0,0.0,0.0,0.0,0.0,0.0,0.0,0.0,0.0,0.0,0.0,0.0,0.0,0.0,0.0,0.0,0.0,0.0,0.0,11.43,11.3817,11.43,11.3886,11.3507,11.3196,11.3196,11.2817,11.2024,11.1299,11.0989,11.092,10.9092,10.7919,10.7126,10.5815,10.4988,10.4401,10.3091,10.247,10.2091,10.109,10.0883,10.109,10.1366,10.2194,10.3298,0.0,0.0,0.0,0.0,0.0,0.0,0.0,0.0,0.0,0.0,0.0,0.0,0.0,0.0,0.0,0.0,0.0,0.0,6.5732,6.6517,6.7302,6.8052,7.187,7.5964,8.0187,8.785,9.2374,9.33,9.7675,9.6331,8.9571,8.657,8.4328,8.2673,7.8913,7.8499,8.0431,7.8189,7.7223,7.7223,7.7223,7.7223,7.7223,0.0,0.0,0.0,0.0,0.0,0.0,0.0,7.7223,7.7223,7.7223,7.7223,7.7223,7.7223,7.7223,7.7223,7.7223,7.6671,0.0,0.0,0.0,0.0,9.0157,9.3227,9.602,10.2091,0.0,0.0,0.0,0.0,0.0,0.0,0.0,0.0,0.0,0.0,0.0,0.0,0.0,0.0,0.0,0.0,0.0,0.0,0.0,0.0,0.0,11.399,11.361,11.361,11.361,11.3196,11.2403,11.2403,11.2024,11.1299,11.0506,11.0196,11.0196,10.9333,10.7712,10.554,10.4781,10.3574,10.2091,10.1366,10.0573,9.9883,9.9883,10.0366,10.1159,10.1884,10.2608,10.3194,0.0,0.0,0.0,0.0,0.0,0.0,0.0,0.0,0.0,0.0,0.0,0.0,0.0,0.0,0.0,0.0,0.0,0.0,6.4912,6.5697,6.6517,6.7267,7.055,7.23,7.2186,7.8644,8.6452,9.5402,9.5729,9.1916,8.4121,8.3776,8.1638,7.8189,7.9155,7.9086,7.8189,7.7499,7.7223,7.7223,7.7223,7.7223,7.7223,0.0,0.0,0.0,0.0,0.0,0.0,0.0,0.0,0.0,7.7223,7.7603,7.7948,7.7396,7.7223,7.712,7.6568,0.0,0.0,0.0,0.0,0.0,0.0,9.6331,0.0,0.0,0.0,0.0,0.0,0.0,0.0,0.0,0.0,0.0,0.0,0.0,0.0,0.0,0.0,0.0,0.0,0.0,0.0,0.0,0.0,0.0,0.0,11.3714,11.33,11.2817,11.2817,11.2403,11.161,11.161,11.0989,10.9713,10.9506,10.9402,10.9299,10.7437,10.5988,10.4781,10.3401,10.2573,10.2091,10.1366,10.0573,9.9883,9.9883,9.9987,10.0297,10.0504,10.109,10.1677,0.0,0.0,0.0,0.0,0.0,0.0,0.0,0.0,0.0,0.0,6.0415,6.0201,0.0,0.0,0.0,0.0,0.0,0.0,0.0,6.4876,6.5839,6.6946,6.9087,7.0842,7.2101,7.6865,8.2488,8.8763,8.9743,8.6708,8.0051,8.2604,8.219,7.9396,8.2742,8.2811,8.0362,8.0051,7.9051,7.7706,7.8017,7.7948,7.7741,0.0,0.0,0.0,0.0,0.0,0.0,0.0,0.0,0.0,7.7223,7.7534,7.7844,7.7361,7.7016,7.6671,7.6223,0.0,0.0,0.0,0.0,0.0,0.0,0.0,0.0,0.0,0.0,0.0,0.0,0.0,0.0,0.0,0.0,0.0,0.0,0.0,0.0,0.0,0.0,0.0,0.0,0.0,0.0,0.0,0.0,0.0,0.0,11.3093,11.2817,11.2024,11.1989,11.1506,11.0403,11.0403,10.9609,10.8126,10.8126,10.7919,10.7609,10.5919,10.4712,10.3884,10.2401,10.178,10.1677,10.1263,10.078,10.0366,10.0366,10.0366,10.0366,10.0366,10.0883,10.147,0.0,0.0,5.6418,5.649,0.0,0.0,0.0,0.0,0.0,0.0,6.0451,6.0308,0.0,0.0,0.0,0.0,0.0,0.0,0.0,6.4126,6.5304,6.6803,6.7736,7.0877,7.6584,7.9401,7.9362,7.6499,8.1259,8.1259,7.6913,8.2569,8.4742,8.4087,8.7812,8.7846,8.5018,8.388,8.1431,7.8361,7.9017,7.8913,7.8361,7.9051,0.0,0.0,0.0,0.0,0.0,0.0,0.0,0.0,7.7223,7.7258,7.7327,7.7258,7.674,7.6223,7.6292,0.0,0.0,0.0,0.0,0.0,0.0,0.0,0.0,0.0,0.0,0.0,0.0,0.0,0.0,0.0,0.0,0.0,0.0,0.0,0.0,0.0,0.0,0.0,0.0,0.0,0.0,0.0,0.0,0.0,0.0,11.2334,11.192,11.1024,11.1092,11.0334,10.8713,10.8816,10.8126,10.6643,10.6643,10.6229,10.5402,10.4781,10.3988,10.3091,10.178,10.1159,10.1159,10.109,10.109,10.109,10.0987,10.0987,10.0987,10.0987,10.1401,10.1884,0.0,0.0,5.6597,5.7204,0.0,0.0,0.0,0.0,0.0,0.0,0.0,0.0,0.0,0.0,0.0,0.0,0.0,0.0,0.0,6.3841,6.5054,6.6018,6.7939,7.0078,7.2345,7.2645,7.2222,7.0981,7.7361,7.812,7.3843,8.1569,8.4466,8.3293,8.6467,8.6536,8.4018,8.0258,7.8223,7.7499,7.7637,7.7637,7.7499,7.7637,7.7499,0.0,0.0,0.0,0.0,0.0,0.0,0.0,7.7223,7.7637,7.8017,7.7396,7.712,7.712,0.0,7.8775,0.0,0.0,0.0,0.0,0.0,0.0,0.0,0.0,0.0,0.0,0.0,0.0,0.0,0.0,0.0,0.0,0.0,0.0,0.0,0.0,0.0,0.0,0.0,0.0,0.0,0.0,0.0,0.0,11.2403,11.1886,11.061,10.8713,10.9196,10.8506,10.6402,10.6919,10.6747,0.0,10.5815,10.5126,10.3815,10.4263,10.3677,10.2401,10.2091,10.1987,10.1884,10.1297,10.109,10.0987,10.0401,10.0194,10.0194,10.0194,10.0263,10.0401,0.0,0.0,0.0,0.0,0.0,0.0,0.0,0.0,0.0,0.0,0.0,0.0,0.0,0.0,0.0,0.0,0.0,0.0,0.0,0.0,6.4813,6.6576,6.85,6.9701,6.9888,7.0603,7.0187,6.8704,7.3395,7.4843,7.336,8.0672,8.4052,8.4156,8.795,8.7536,8.3845,8.1466,7.9431,7.781,7.8189,7.812,7.781,7.8189,7.7844,7.7223,7.7223,0.0,0.0,0.0,0.0,0.0,0.0,0.0,7.7741,7.7327,7.6982,7.6844,0.0,0.0,0.0,0.0,0.0,0.0,0.0,0.0,0.0,0.0,0.0,0.0,0.0,0.0,0.0,0.0,0.0,0.0,0.0,0.0,0.0,0.0,0.0,0.0,0.0,0.0,0.0,0.0,0.0,11.1713,11.1334,11.061,10.9506,10.7919,10.7919,10.723,10.5609,10.5609,10.5298,10.4505,10.4125,10.3574,10.278,10.3194,10.2573,10.109,10.147,10.1677,10.1608,10.1263,10.109,10.1056,10.0608,10.0194,9.9883,9.9883,9.9883,9.9883,0.0,0.0,0.0,0.0,0.0,0.0,0.0,0.0,0.0,0.0,0.0,0.0,0.0,0.0,0.0,0.0,0.0,0.0,0.0,0.0,0.0,6.7551,6.8978,6.9505,6.9122,7.0707,7.0429,6.829,7.0705,7.274,7.4499,8.0224,8.388,8.5742,8.926,8.8364,8.4156,8.3225,8.1052,7.8258,7.8879,7.8672,7.8085,7.8706,7.8051,7.6809,7.6809,7.6809,7.6844,7.6982,0.0,0.0,0.0,0.0,7.7223,7.7223,7.6775,7.6499,0.0,0.0,0.0,0.0,0.0,0.0,0.0,0.0,0.0,0.0,0.0,0.0,0.0,0.0,0.0,0.0,0.0,0.0,0.0,0.0,0.0,0.0,0.0,0.0,0.0,0.0,0.0,0.0,0.0,11.061,10.992,10.9127,10.823,10.7299,10.6816,10.6022,10.5022,10.4505,10.3781,10.2884,10.2298,10.1884,10.178,10.178,10.1263,10.0297,10.0987,10.1263,10.1263,10.1159,10.109,10.1056,10.0883,10.047,9.9883,9.9883,9.9883,9.9883,0.0,0.0,0.0,0.0,0.0,0.0,0.0,0.0,0.0,0.0,6.1093,6.1093,0.0,6.1093,6.1093,6.1093,6.1093,6.1379,6.2092,0.0,0.0,6.7938,6.8548,6.9436,7.0689,7.1261,7.0705,6.9118,7.205,7.4602,7.6844,8.0983,8.4397,8.7087,8.6398,8.5708,8.4742,8.0086,7.7844,7.7396,7.7499,7.7085,7.643,7.6533,7.6016,7.5223,7.5223,7.5223,7.5326,7.6016,7.6258,0.0,0.0,0.0,7.7223,7.7223,7.7154,7.7396,0.0,0.0,0.0,0.0,0.0,0.0,0.0,0.0,0.0,0.0,0.0,0.0,0.0,0.0,0.0,0.0,0.0,0.0,0.0,0.0,0.0,0.0,0.0,0.0,0.0,0.0,0.0,0.0,11.0092,10.9299,10.9196,10.7816,10.6402,10.4988,10.5505,10.4815,10.2677,10.3194,10.278,10.1366,10.1263,10.0883,10.0194,10.0194,10.078,10.1884,10.1987,10.2056,10.1987,10.1366,10.109,10.0987,10.0297,9.9987,9.9883,9.9883,9.9883,9.9883,0.0,0.0,0.0,0.0,0.0,0.0,0.0,0.0,0.0,0.0,0.0,6.1093,6.1093,6.1093,6.1093,6.1093,6.1521,6.221,6.3271,6.4108,6.5367,6.712,6.7318,6.7996,6.9367,7.0338,7.036,6.9291,7.2291,7.5844,0.0,8.2362,8.4708,8.6674,8.4328,8.3293,8.3018,7.8948,7.7223,7.7223,7.7223,7.7016,7.6671,7.6292,7.5913,7.5533,7.5085,7.4947,7.4981,0.0,7.574,7.6189,7.6499,0.0,0.0,0.0,7.7223,0.0,8.3776,0.0,0.0,0.0,0.0,0.0,0.0,0.0,0.0,0.0,0.0,0.0,0.0,0.0,0.0,0.0,0.0,0.0,0.0,0.0,0.0,0.0,0.0,0.0,0.0,0.0,0.0,0.0,10.8126,10.7712,10.7712,10.6298,10.5195,10.447,10.3988,10.3194,10.2194,10.1677,10.0676,9.9193,9.9607,9.94,9.8676,9.909,9.9642,10.0297,10.0297,10.0504,10.0883,10.0573,10.0401,10.0401,9.9987,9.9883,9.9883,9.9883,9.9883,9.9883,0.0,0.0,0.0,0.0,0.0,0.0,0.0,0.0,0.0,0.0,0.0,6.1093,6.1093,0.0,0.0,0.0,6.1889,6.2666,6.3842,6.427,6.5056,6.6485,6.6542,6.7121,6.8206,6.9682,7.0015,6.9291,7.2291,0.0,8.2397,8.3707,8.5949,8.8743,8.5328,8.3604,8.3018,7.9776,7.8603,7.8844,7.7762,7.7175,7.6878,7.6415,7.607,7.5706,7.4912,7.4636,0.0,0.0,0.0,0.0,0.0,0.0,0.0,0.0,0.0,0.0,0.0,0.0,9.2019,10.0608,10.4919,10.7506,0.0,0.0,0.0,0.0,0.0,0.0,0.0,0.0,0.0,0.0,0.0,0.0,0.0,0.0,0.0,0.0,0.0,0.0,0.0,0.0,0.0,0.0,10.654,10.6436,10.6436,10.4988,10.4194,10.4194,10.2884,10.2091,10.1884,10.0194,9.878,9.7676,9.8021,9.8021,9.7676,9.8055,9.8331,9.8504,9.8504,9.9021,9.9883,9.9676,9.9607,9.9642,9.9814,9.978,9.9642,9.9814,9.9883,9.9883,0.0,0.0,0.0,0.0,0.0,0.0,0.0,0.0,0.0,0.0,0.0,6.1093,6.1093,6.1093,6.1414,6.2164,6.1929,6.2223,6.3474,6.4567,6.579,6.6917,0.0,0.0,6.8593,6.9842,7.0015,6.9291,7.2291,0.0,8.3914,8.4742,8.9019,9.5779,9.1295,8.8501,8.688,8.3156,8.2362,8.3293,7.9401,7.7128,7.6154,7.6643,7.5985,7.4878,7.4119,0.0,0.0,0.0,0.0,0.0,0.0,0.0,0.0,0.0,0.0,0.0,0.0,8.4259,0.0,9.3641,9.9814,0.0,0.0,0.0,0.0,0.0,0.0,0.0,0.0,0.0,0.0,0.0,0.0,0.0,0.0,0.0,0.0,0.0,0.0,0.0,0.0,0.0,0.0,0.0,10.6126,10.5712,10.5712,10.4194,10.3367,10.3367,10.2573,10.1884,10.1159,9.8917,9.7745,9.7676,9.6952,9.6986,9.7676,9.6952,9.7021,9.7745,9.7745,9.8573,9.9849,9.9124,9.8849,9.8917,9.9607,9.9469,9.8917,9.9642,9.9883,9.9883,0.0,0.0,0.0,0.0,0.0,0.0,0.0,0.0,0.0,0.0,0.0,0.0,0.0,6.0914,6.1173,6.2199,6.3314,6.4235,6.4952,6.5864,6.6593,6.6989,0.0,0.0,0.0,6.9474,7.0015,7.0705,7.2291,7.6085,8.1914,8.4639,8.8398,9.2709,8.9122,8.7225,8.6363,8.1086,7.9155,7.95,7.8059,7.7229,7.6775,7.6468,7.6123,0.0,0.0,0.0,0.0,0.0,0.0,0.0,0.0,0.0,0.0,0.0,0.0,0.0,0.0,0.0,0.0,9.1882,9.6848,10.0883,0.0,0.0,0.0,0.0,0.0,0.0,0.0,0.0,0.0,0.0,0.0,0.0,0.0,0.0,0.0,0.0,0.0,0.0,0.0,0.0,0.0,0.0,0.0,10.4091,10.4091,10.2677,10.1884,10.1884,10.109,10.0366,9.9607,9.7814,9.6917,9.6917,9.6641,9.6641,9.6917,9.7158,9.74,9.7641,9.7124,9.7503,9.8469,9.8193,9.8055,9.8159,9.8883,9.9021,9.8883,9.9607,9.9883,9.9883,0.0,0.0,0.0,0.0,0.0,0.0,0.0,0.0,0.0,0.0,0.0,0.0,0.0,0.0,6.1219,6.2186,6.4226,6.5441,6.5618,6.6488,6.7069,6.7177,6.7496,6.818,6.9256,6.9291,7.0015,7.1498,7.2015,7.5154,8.0672,8.3466,8.7087,9.1054,8.7225,8.6811,8.8639,0.0,0.0,8.012,7.8653,7.7698,7.7258,0.0,0.0,0.0,0.0,0.0,0.0,0.0,0.0,0.0,0.0,0.0,0.0,0.0,0.0,0.0,8.0327,0.0,0.0,0.0,0.0,9.602,10.1366,0.0,0.0,0.0,0.0,0.0,0.0,0.0,0.0,0.0,0.0,0.0,0.0,0.0,0.0,0.0,0.0,0.0,0.0,0.0,0.0,0.0,0.0,0.0,10.2884,10.178,10.0987,10.0676,9.9918,9.9159,9.8435,9.7124,9.6365,9.6124,9.6124,9.6262,9.6503,9.6779,9.7055,9.7227,9.6469,9.671,9.7676,9.74,9.7296,9.7365,9.8124,9.84,9.8504,9.9262,9.9676,9.9883,0.0,0.0,0.0,0.0,0.0,0.0,0.0,0.0,0.0,6.1093,0.0,0.0,0.0,0.0,0.0,6.2354,6.4532,6.5723,6.5364,6.6415,6.7169,6.7551,6.7973,6.8497,6.9325,6.9325,7.0049,7.1532,7.1498,7.4568,8.0431,8.1293,8.5259,9.1468,8.6363,8.7777,9.3813,0.0,8.8088,8.5772,0.0,7.8677,7.7658,0.0,0.0,0.0,7.812,7.6947,0.0,0.0,0.0,0.0,0.0,0.0,0.0,0.0,7.7223,7.7223,0.0,0.0,0.0,0.0,0.0,0.0,10.0573,0.0,0.0,0.0,0.0,0.0,0.0,0.0,0.0,0.0,0.0,0.0,0.0,0.0,0.0,0.0,0.0,0.0,0.0,0.0,0.0,0.0,10.3677,10.2884,10.2194,10.1401,10.0676,9.9883,9.9124,9.8366,9.7641,9.6848,9.6089,9.5365,9.5331,9.571,9.64,9.5675,9.5744,9.6434,9.571,9.6227,9.7538,9.6779,9.6469,9.6538,9.7331,9.7676,9.7779,9.8504,9.9262,9.9883,0.0,0.0,0.0,0.0,0.0,0.0,6.1093,6.1093,6.1093,0.0,0.0,0.0,6.195,6.3697,6.511,6.5619,6.705,6.7745,6.7333,6.7607,6.8128,6.8759,6.8922,6.9566,7.0843,7.036,7.0808,7.236,7.1774,7.2912,7.5706,7.7603,8.0672,8.4639,8.5363,8.6432,8.7398,8.2673,0.0,8.1879,7.8459,7.8529,0.0,0.0,0.0,0.0,0.0,7.9227,0.0,0.0,7.7139,7.7146,0.0,0.0,7.7223,7.7223,7.7223,7.7223,7.7223,0.0,0.0,0.0,0.0,0.0,8.9433,9.2088,9.5055,0.0,0.0,0.0,0.0,0.0,0.0,0.0,0.0,0.0,0.0,0.0,0.0,0.0,0.0,0.0,0.0,0.0,0.0,0.0,10.2091,10.1573,10.1366,10.0159,9.9331,9.909,9.7814,9.7021,9.6814,9.5537,9.4813,9.4572,9.402,9.4158,9.4882,9.4675,9.4986,9.5675,9.5468,9.5641,9.602,9.5779,9.571,9.5779,9.6538,9.7158,9.7779,9.8504,9.9262,9.9883,0.0,0.0,6.12,6.1521,0.0,6.2449,6.2092,6.2342,6.2449,0.0,0.0,0.0,6.3013,6.5711,6.72,6.6567,6.7885,6.8392,6.7701,6.7904,6.8463,6.9256,6.9291,6.998,7.1463,7.0774,7.1153,7.2671,7.1877,7.2119,7.336,7.5016,7.7085,7.95,8.1259,8.2155,8.2155,0.0,0.0,0.0,7.9574,0.0,0.0,8.2502,8.3171,0.0,0.0,0.0,8.2366,8.0177,7.8571,0.0,0.0,0.0,0.0,0.0,7.7223,7.7223,7.7223,7.7223,7.7879,8.0707,0.0,0.0,8.5777,8.7432,8.9571,0.0,0.0,0.0,0.0,0.0,0.0,0.0,0.0,0.0,0.0,0.0,0.0,0.0,0.0,0.0,10.178,10.2573,10.278,10.2194,10.147,10.078,10.0159,9.8986,9.8331,9.8331,9.6848,9.602,9.602,9.4537,9.3778,9.3778,9.333,9.333,9.3778,9.3778,9.4192,9.4917,9.4572,9.4606,9.4951,9.5262,9.54,9.5434,9.5848,9.671,9.7745,9.8159,9.8986,9.9883,0.0,0.0,6.1379,6.2271,6.3627,6.4412,6.3877,6.4278,6.4492,0.0,6.3172,6.3271,6.511,6.7797,6.8737,6.6775,6.8055,6.8405,6.723,6.7807,6.8566,6.936,6.9394,7.0118,7.1601,7.0877,7.1222,7.2671,7.1981,7.1981,7.2705,7.336,7.443,7.5878,7.5947,7.6809,7.812,0.0,0.0,7.8819,8.2467,8.3571,0.0,0.0,8.9929,0.0,8.7859,8.7281,8.6439,8.2453,7.95,0.0,0.0,0.0,0.0,0.0,7.7223,7.7223,7.7223,7.7292,7.8292,8.2259,8.0465,0.0,8.5777,8.4915,8.4363,8.9847,0.0,0.0,0.0,0.0,0.0,0.0,0.0,0.0,0.0,10.0987,10.078,9.9987,10.009,10.0366,10.0883,10.109,10.1366,10.178,10.109,10.009,9.8607,9.7848,9.7434,9.7434,9.5951,9.5089,9.502,9.3641,9.2916,9.2847,9.2847,9.2847,9.2847,9.2847,9.3261,9.3985,9.3296,9.3434,9.4192,9.4848,9.5193,9.5296,9.5537,9.6469,9.7676,9.7779,9.8676,9.9883,5.9737,6.0558,6.1521,6.2949,6.3984,6.4983,6.6125,6.5581,6.5587,6.7017,6.7824,6.9388,7.2507,7.2084,7.1638,7.1812,7.0798,6.9599,6.8412,6.8838,6.9394,7.0153,7.0187,7.0877,7.2429,7.167,7.1739,7.2671,7.2533,7.2533,7.2671,7.2843,7.336,7.4257,7.4878,7.5671,7.6602,0.0,0.0,7.9058,8.0542,0.0,8.6333,8.6544,8.8323,9.0722,8.9757,8.8986,8.8065,0.0,8.2093,7.9844,0.0,0.0,0.0,0.0,0.0,0.0,0.0,0.0,0.0,0.0,0.0,0.0,7.8913,8.0362,8.2535,0.0,8.5777,0.0,0.0,0.0,9.3503,9.2709,9.54,9.8193,9.9883,10.0676,10.078,9.9987,10.0987,10.1297,10.0194,10.1263,10.1263,9.9573,9.8745,9.7917,9.6986,9.6227,9.5848,9.5848,9.433,9.3261,9.2675,9.2364,9.1882,9.1261,9.1261,9.1261,9.1261,9.1261,9.1675,9.2433,9.2261,9.264,9.333,9.3503,9.3916,9.4675,9.6503,9.7434,9.7745,9.8366,9.9124,9.9883,6.0344,6.1165,6.2164,6.3734,6.5304,6.6767,6.798,6.8311,6.8919,7.03,7.2156,7.3587,7.4361,7.3786,7.2927,7.2014,7.066,6.9405,6.8466,6.9001,6.9601,7.036,7.0739,7.1498,7.2636,7.2291,7.2291,7.2671,7.2671,7.2671,7.2671,7.2671,7.3084,7.3809,7.4602,7.5361,7.612,0.0,7.6814,7.7424,8.2202,0.0,8.9477,9.1399,9.3863,9.6111,9.4524,9.3025,9.1354,8.8264,8.5973,0.0,0.0,8.0351,8.0396,0.0,7.9096,7.8741,0.0,0.0,0.0,7.8361,0.0,0.0,0.0,7.8706,7.9844,8.0983,8.2121,8.3845,8.6846,0.0,8.995,9.0674,9.3054,9.5331,9.6883,9.8745,9.9642,9.8883,9.9124,9.9193,9.8814,9.9124,9.9055,9.8297,9.7538,9.6745,9.5986,9.5227,9.4675,9.4261,9.3158,9.2364,9.1985,9.1606,9.1192,9.0812,9.0812,9.0812,9.0812,9.0812,9.1226,9.1985,9.1571,9.1847,9.2571,9.2951,9.333,9.3847,9.54,9.6676,9.771,9.809,9.8952,9.9883,6.0986,6.1628,6.2556,6.4091,6.6303,6.8195,6.9158,7.0588,7.205,7.3226,7.56,7.6596,7.5293,7.5102,7.4391,7.2641,7.0976,6.9876,6.9589,0.0,0.0,7.0153,7.0739,7.1498,7.2429,7.2326,7.236,7.2671,7.2671,7.2671,7.2671,7.2671,7.3084,7.3809,7.4688,7.5379,0.0,0.0,0.0,7.6867,0.0,8.8463,9.0045,9.5379,9.8504,9.9981,9.8395,9.675,9.4794,9.1316,0.0,8.7798,8.3435,8.2962,0.0,0.0,0.0,0.0,0.0,0.0,0.0,0.0,0.0,7.981,0.0,0.0,0.0,7.8913,7.9534,0.0,0.0,0.0,0.0,0.0,0.0,0.0,0.0,9.5158,0.0,9.6986,9.6469,9.6365,9.7158,9.5986,9.5744,9.7124,9.5848,9.4951,9.4951,9.4261,9.3537,9.2916,9.2157,9.1778,9.1778,9.1123,9.0812,9.0812,9.0812,9.0812,9.0812,9.0812,9.1157,9.1744,9.1088,9.1157,9.1813,9.2399,9.2847,9.3227,9.4296,9.5917,9.771,9.7848,9.8745,9.9883,6.1093,6.1165,6.17,6.327,6.5518,6.7624,6.9087,7.0344,7.2226,7.5099,7.6937,7.8417,7.9539,0.0,0.0,0.0,0.0,0.0,7.4809,0.0,7.0382,6.9428,6.9497,7.0187,7.1601,7.0981,7.1325,7.2671,7.2671,7.2671,7.2671,7.2671,7.3084,0.0,7.4996,0.0,0.0,0.0,7.8224,0.0,8.5224,8.5189,0.0,9.014,9.3943,9.5703,9.7009,9.7321,9.6482,0.0,9.0419,8.8914,0.0,8.5088,8.4046,0.0,0.0,0.0,0.0,0.0,0.0,0.0,8.35,0.0,0.0,0.0,7.9707,7.7844,0.0,0.0,0.0,0.0,0.0,0.0,0.0,0.0,8.895,8.8915,9.0192,9.4192,9.4606,9.4813,9.5572,9.2502,9.1916,9.54,9.1813,9.064,9.3227,9.264,9.2226,9.2123,9.1364,9.095,9.095,9.0847,9.0812,9.0812,9.0812,9.0812,9.0812,9.0812,9.0847,9.095,9.0847,9.0847,9.095,9.1054,9.1882,9.3296,9.5434,9.6848,9.7745,9.84,9.9193,9.9883,6.1022,6.1486,6.2271,6.3841,6.5304,6.7124,6.9622,7.3511,7.6666,7.7848,8.0268,8.1792,0.0,0.0,0.0,0.0,0.0,0.0,0.0,0.0,7.1018,6.867,0.0,0.0,7.0877,7.1843,7.2222,7.1981,7.2464,7.2671,7.2671,7.2671,7.3326,0.0,7.4498,0.0,7.6223,0.0,0.0,0.0,0.0,0.0,0.0,9.318,9.8023,9.9387,10.0062,9.9814,9.8724,0.0,9.3618,0.0,0.0,0.0,0.0,0.0,0.0,0.0,0.0,0.0,0.0,0.0,0.0,0.0,8.0983,0.0,7.9707,0.0,0.0,0.0,0.0,0.0,0.0,0.0,8.1914,0.0,0.0,0.0,8.6811,0.0,0.0,0.0,9.0054,9.026,9.064,9.1399,8.926,8.8846,9.1019,9.0847,9.0847,9.1295,9.0985,9.0812,9.0812,9.0812,9.0812,9.0812,9.0812,9.0812,9.0812,9.0812,9.0812,9.0812,9.0812,9.0812,9.0847,9.1295,9.2123,9.3227,9.4675,9.5951,9.709,9.7848,9.8607,9.9297,6.1272,6.1878,6.2628,6.377,0.0,6.6874,7.0015,7.4582,7.8064,0.0,0.0,0.0,8.3295,8.2242,0.0,0.0,0.0,7.6894,0.0,0.0,7.2035,0.0,0.0,0.0,0.0,7.2119,7.2602,7.2119,7.2498,7.2774,7.2981,7.2774,7.3498,7.4947,0.0,7.6019,7.7367,0.0,0.0,7.8771,8.2307,8.4642,8.6943,9.6064,10.0741,10.2316,10.2351,10.1858,10.0589,9.7704,9.6719,0.0,9.3651,0.0,0.0,0.0,0.0,0.0,8.5185,0.0,0.0,0.0,0.0,0.0,0.0,0.0,0.0,0.0,0.0,0.0,0.0,0.0,0.0,8.0672,0.0,8.0845,0.0,8.2328,0.0,0.0,0.0,0.0,0.0,8.7467,8.8088,8.826,8.6398,8.6294,8.8639,8.895,8.9502,9.0467,9.0709,9.0812,9.0812,9.0812,9.0812,9.0812,9.0812,9.0812,9.0812,9.0812,9.0812,9.0812,9.0812,9.0812,9.0881,9.1675,9.2433,9.3192,9.3985,9.5055,9.6331,9.7296,9.8159,9.8883,6.2092,6.2271,0.0,0.0,0.0,0.0,0.0,0.0,0.0,0.0,0.0,0.0,0.0,0.0,0.0,0.0,0.0,8.4575,8.2572,0.0,7.3922,0.0,0.0,0.0,0.0,0.0,7.1567,7.3705,7.3015,7.305,7.374,7.3015,7.3498,7.5016,0.0,7.852,7.8224,8.1826,8.381,8.4715,8.7144,9.1818,9.7286,0.0,9.8258,10.1819,10.2281,0.0,0.0,9.9729,9.895,0.0,0.0,0.0,0.0,0.0,0.0,0.0,0.0,0.0,0.0,8.4535,0.0,0.0,0.0,0.0,8.2362,0.0,0.0,0.0,0.0,0.0,8.1672,8.1741,8.0534,0.0,0.0,0.0,0.0,0.0,0.0,0.0,0.0,8.3466,8.2742,0.0,8.2673,8.1707,8.6191,8.7087,8.8191,8.9674,9.0433,9.0812,9.0812,9.0812,9.0812,9.0812,9.0812,9.0812,9.0812,9.0812,9.0812,9.0812,9.0812,9.0812,9.0881,9.1675,9.2433,9.3192,9.3985,9.4744,9.5606,9.7124,9.8159,9.8883,6.3663,6.4269,0.0,0.0,0.0,0.0,0.0,7.2513,0.0,0.0,0.0,0.0,0.0,0.0,9.3699,0.0,0.0,8.9406,8.5457,8.2207,0.0,0.0,0.0,7.3567,0.0,0.0,7.3809,7.305,7.3809,7.4292,0.0,0.0,7.443,7.4981,0.0,7.756,0.0,0.0,0.0,0.0,0.0,9.4794,10.0342,0.0,0.0,10.1645,10.2244,10.2316,0.0,10.0548,9.9675,9.8991,9.8444,9.7324,9.5985,9.5052,9.5115,0.0,0.0,0.0,9.3089,8.6742,0.0,0.0,0.0,0.0,0.0,0.0,0.0,0.0,0.0,0.0,8.1466,8.0431,7.9844,7.9327,0.0,7.7879,0.0,0.0,0.0,0.0,0.0,0.0,0.0,0.0,8.0534,0.0,8.2431,8.4708,8.6398,8.7432,8.9157,9.0329,9.0812,9.0812,9.0812,9.0812,9.0812,9.0812,9.0812,9.0812,9.0812,9.0812,9.0812,9.0812,9.0916,9.2192,9.2882,9.3227,9.4503,9.5468,9.6262,9.7296,9.7848,9.8228,6.4876,6.5233,0.0,0.0,0.0,0.0,0.0,0.0,0.0,0.0,8.7761,0.0,9.7576,0.0,9.9009,0.0,9.7987,9.4277,8.7302,8.6536,0.0,7.7712,7.7754,0.0,0.0,7.5966,7.5119,7.3084,7.4602,7.5188,0.0,0.0,0.0,0.0,0.0,7.8335,8.0289,0.0,8.4627,0.0,0.0,9.6096,0.0,0.0,10.1499,10.2597,0.0,10.2316,10.1891,10.1349,10.0585,9.992,9.9861,9.8859,9.7568,9.6437,9.6428,9.6012,9.2851,9.3847,0.0,8.8915,8.8674,0.0,8.3707,0.0,0.0,0.0,0.0,0.0,0.0,0.0,8.1879,8.0879,8.0051,7.8982,0.0,7.7223,0.0,0.0,0.0,0.0,0.0,0.0,0.0,0.0,0.0,0.0,0.0,8.2742,8.4742,8.5466,8.8226,8.9916,9.0398,9.0674,9.0812,9.0812,9.0812,9.0812,9.0812,9.0812,9.0812,9.0812,9.0812,9.0812,9.0916,9.2468,9.3089,9.3261,9.4779,9.5675,9.6227,9.7296,9.7848,9.8228,6.5768,6.534,0.0,0.0,6.7802,0.0,0.0,0.0,8.147,0.0,8.993,9.5131,10.1953,10.2868,10.3156,10.3701,10.3666,0.0,8.904,9.1679,0.0,0.0,8.0998,8.1205,7.9705,7.7579,7.5671,0.0,0.0,0.0,0.0,0.0,0.0,0.0,7.8499,0.0,8.3489,8.6968,8.9631,9.1572,9.418,9.603,9.7566,10.0267,10.288,10.4685,10.3057,10.2455,10.2526,10.1891,10.1819,10.1819,10.1711,10.075,9.9437,9.7906,9.7606,9.6986,9.333,9.4468,9.5572,9.1088,0.0,0.0,0.0,0.0,8.7191,0.0,0.0,0.0,0.0,0.0,0.0,8.2742,8.0879,7.8879,7.743,7.7223,7.7223,0.0,0.0,0.0,0.0,0.0,0.0,0.0,0.0,0.0,0.0,8.1155,8.3156,8.388,8.757,8.9605,8.9709,9.0398,9.0778,9.0812,9.0812,9.0812,9.0881,9.0812,9.0812,9.0881,9.0812,9.0812,9.0916,9.2433,9.3054,9.3192,9.4744,9.5365,9.5606,9.709,9.809,9.8745,6.7481,6.7838,6.798,0.0,6.8516,6.9729,0.0,0.0,0.0,0.0,9.59,10.1248,10.7627,10.7879,10.77,10.777,10.7199,0.0,0.0,0.0,0.0,9.16,8.8864,8.6934,8.5959,8.2662,0.0,8.031,0.0,0.0,7.8292,7.6602,7.5913,7.6223,0.0,0.0,8.2395,8.6118,8.9844,9.3379,9.5645,9.778,0.0,0.0,10.288,10.465,10.3646,10.3178,10.3077,10.2526,10.263,10.2733,10.1423,10.1134,10.075,9.9034,9.8859,9.8986,9.7469,9.8021,9.8193,9.4779,9.4227,9.3572,0.0,0.0,0.0,0.0,0.0,0.0,0.0,0.0,0.0,8.0672,7.8948,7.7672,7.7292,0.0,0.0,7.7223,0.0,0.0,0.0,0.0,0.0,0.0,0.0,0.0,7.674,0.0,8.1569,8.2362,8.5501,8.7984,8.9674,8.9881,9.026,9.0812,9.0812,9.1123,9.1675,9.1088,9.1123,9.164,9.1054,9.0812,9.0881,9.1882,9.2261,9.2433,9.3951,9.5227,9.6262,9.6641,9.7296,9.7952,6.8623,0.0,0.0,6.9479,0.0,0.0,7.4832,0.0,0.0,9.1426,9.7171,0.0,10.5914,10.8697,10.9982,10.9375,10.8876,0.0,0.0,0.0,0.0,9.6957,9.4819,9.2828,9.1003,8.6452,0.0,8.2056,0.0,0.0,7.8017,7.7051,7.643,7.6223,0.0,8.0317,8.2915,8.7038,9.1091,9.5088,9.617,9.8025,0.0,10.1398,10.249,10.341,10.3392,10.3244,10.2939,10.2281,10.2457,10.2561,10.1458,10.1349,10.1497,10.0419,10.0144,10.0159,9.9858,9.9803,9.9469,9.7779,9.7124,9.6089,9.302,9.3468,9.3606,0.0,0.0,0.0,0.0,0.0,0.0,7.8879,7.7775,7.7223,0.0,0.0,0.0,0.0,7.7223,0.0,0.0,0.0,0.0,0.0,0.0,0.0,0.0,0.0,8.05,8.1259,8.488,8.7743,8.9674,9.0364,9.0743,9.0812,9.1157,9.1364,9.1468,9.1364,9.1364,9.1468,9.1019,9.0812,9.0881,9.1675,9.1985,9.2157,9.3675,9.4986,9.602,9.602,9.6503,9.7158,6.9337,0.0,0.0,0.0,0.0,0.0,0.0,8.1255,0.0,9.1033,0.0,10.1632,10.2203,10.7805,11.0981,10.9375,0.0,10.7237,10.202,10.5034,10.4574,9.9269,9.9344,9.8177,9.5242,8.9407,0.0,0.0,0.0,0.0,0.0,7.6602,7.6464,7.6016,0.0,0.0,0.0,8.8126,9.2265,9.561,9.603,9.7324,9.9499,10.147,10.1855,10.1602,10.2757,10.2904,10.2455,10.214,10.1926,10.1819,10.1676,10.1567,10.1602,10.1494,10.1164,10.0717,10.0717,10.0343,9.9883,9.9883,9.94,9.8262,9.5606,9.3985,9.2537,9.0812,8.8191,8.6432,0.0,0.0,0.0,7.7465,0.0,0.0,0.0,0.0,0.0,0.0,0.0,0.0,0.0,0.0,0.0,0.0,0.0,0.0,0.0,0.0,7.9844,8.0879,8.4742,8.7846,8.9985,9.1019,9.1399,9.1123,9.1606,9.1537,9.0985,9.1571,9.1502,9.095,9.0847,9.0812,9.0847,9.1537,9.195,9.2261,9.3606,9.4641,9.54,9.54,9.5813,9.6365,0.0,0.0,0.0,0.0,0.0,8.1648,8.4967,9.1105,9.6315,9.8848,10.52,0.0,10.8804,11.0517,11.0981,10.9375,10.9875,0.0,0.0,0.0,0.0,10.4952,10.2679,10.064,9.8716,9.2161,8.8259,0.0,0.0,0.0,0.0,0.0,0.0,0.0,0.0,0.0,8.2035,8.6003,0.0,9.228,9.4171,9.6342,9.8586,10.0202,10.1082,10.1535,10.1893,10.2526,10.3244,10.3143,10.2769,10.2316,10.1749,10.1384,10.0942,10.0378,10.0079,10.0149,10.0149,9.9999,9.9883,9.9883,9.978,9.9573,9.9021,9.8711,9.771,9.4951,9.2951,9.064,8.7156,0.0,0.0,0.0,0.0,0.0,0.0,0.0,0.0,0.0,0.0,7.6533,0.0,0.0,0.0,0.0,0.0,0.0,0.0,0.0,7.981,0.0,8.3293,8.6225,0.0,0.0,9.0364,9.2675,9.1571,9.1295,9.1778,9.1261,9.1295,9.1744,9.1088,9.0812,9.0812,9.095,9.1778,9.2916,9.3192,9.4158,9.54,9.54,9.5468,9.5572,0.0,0.0,0.0,0.0,0.0,0.0,0.0,9.8311,0.0,9.8884,10.2631,10.5414,10.5022,10.8198,11.0089,10.9375,10.9197,10.9197,10.9197,10.827,10.7553,10.7343,10.5107,0.0,10.2175,9.5066,9.0511,8.8645,0.0,0.0,0.0,0.0,0.0,7.4395,0.0,7.7925,0.0,0.0,0.0,8.9588,9.2958,9.5681,9.7953,9.9849,10.087,10.1646,10.1713,10.2069,10.2526,10.2526,10.2599,10.2491,10.1924,10.1774,10.1764,10.1011,10.057,10.0481,10.0793,10.0391,9.9987,10.0401,10.0194,9.9883,9.9883,9.9297,9.809,9.5848,9.3847,9.1123,8.657,8.2328,0.0,0.0,0.0,0.0,0.0,0.0,0.0,0.0,0.0,0.0,0.0,0.0,0.0,0.0,0.0,0.0,0.0,0.0,7.881,0.0,0.0,0.0,8.9571,0.0,9.0467,9.1916,9.1571,9.1399,9.1364,9.1399,9.1399,9.1364,9.0985,9.0812,9.0847,9.1261,9.2088,9.3123,9.3537,9.4399,9.54,9.54,9.54,9.54,0.0,7.8198,0.0,0.0,8.9924,0.0,0.0,10.2981,10.4402,9.9205,10.049,10.181,10.1703,10.6485,10.959,10.909,10.8769,10.8483,10.8376,10.8092,10.7951,10.8165,10.6279,10.514,10.4536,9.7215,9.181,0.0,0.0,0.0,0.0,0.0,0.0,0.0,0.0,0.0,0.0,0.0,8.4882,8.7804,9.2165,9.5262,9.7495,9.9529,10.0796,10.143,10.1279,10.1349,10.1494,10.1384,10.1874,10.251,10.1879,10.2154,10.2463,10.1629,10.1262,10.1195,10.1577,10.1059,10.0504,10.1159,10.0711,10.0194,10.0194,9.8986,9.7434,9.5744,9.333,9.026,8.6191,8.2845,0.0,0.0,0.0,0.0,0.0,0.0,0.0,0.0,0.0,0.0,7.612,0.0,0.0,0.0,0.0,0.0,7.6154,0.0,0.0,0.0,0.0,8.5018,8.7639,0.0,9.0743,9.1054,9.1502,9.1399,9.0812,9.1468,9.1399,9.0812,9.0812,9.0916,9.1088,9.1744,9.2537,9.3399,9.4054,9.4744,9.54,9.54,9.54,9.54,0.0,0.0,0.0,0.0,0.0,0.0,0.0,10.4327,10.7296,10.6088,10.7377,10.8091,10.7377,10.9804,11.0517,10.8376,10.9411,10.9911,10.9197,10.8058,10.7627,10.83,10.5666,10.4143,10.4143,9.743,9.1391,0.0,0.0,0.0,0.0,0.0,0.0,0.0,0.0,0.0,0.0,8.0802,8.4519,8.8016,9.2263,9.5158,9.7184,9.8995,10.0156,10.0656,10.0214,10.0457,10.0795,10.0263,10.0942,10.2057,10.1839,10.2052,10.205,10.0563,10.0966,10.1933,10.1311,10.1656,10.1987,10.2091,10.1504,10.0987,10.0987,9.978,9.8055,9.5848,9.2468,8.9157,8.6674,8.5363,8.3535,0.0,0.0,0.0,0.0,0.0,7.9879,7.8465,0.0,0.0,7.6189,7.6775,0.0,0.0,7.7223,0.0,0.0,0.0,0.0,7.9465,8.1776,8.4777,8.8433,8.9364,9.0502,9.1882,9.1226,9.0881,9.0812,9.0881,9.0881,9.0812,9.0812,9.1226,9.1882,9.195,9.2847,9.4192,9.4261,9.4744,9.54,9.54,9.54,9.54,0.0,0.0,0.0,0.0,0.0,0.0,0.0,10.7524,10.8699,10.892,10.8676,10.8804,10.9411,10.9482,10.9697,11.0196,10.9482,10.909,10.9268,10.8307,10.7916,10.82,10.6314,10.5034,10.4505,9.9745,9.4213,0.0,0.0,0.0,0.0,0.0,0.0,0.0,0.0,7.5999,7.7754,8.1798,8.5112,8.786,9.205,9.4914,9.6819,9.8318,9.9709,10.0848,10.0736,10.1151,10.1717,10.1933,10.1933,10.1994,10.1578,10.2119,10.2677,10.1573,10.1677,10.2194,10.2366,10.2298,10.2298,10.2711,10.1987,10.109,10.109,9.9538,9.7607,9.5779,9.2709,8.995,8.8605,8.6984,8.5501,0.0,0.0,0.0,0.0,0.0,0.0,7.8534,0.0,7.574,0.0,7.6499,0.0,0.0,0.0,0.0,0.0,0.0,0.0,7.7465,0.0,8.2983,8.4501,8.7536,8.9571,9.0605,9.0295,9.0364,9.0812,9.0812,9.0812,9.0847,9.133,9.1709,9.2054,9.2985,9.3709,9.433,9.4779,9.5124,9.54,9.54,9.54,9.54,9.4405,0.0,9.625,0.0,10.2628,10.3536,10.9317,10.9546,10.9437,11.0242,10.9451,10.907,11.0011,10.9267,10.9375,11.0803,10.959,10.8911,10.9268,10.8483,10.795,10.7844,10.6743,0.0,10.4898,10.1576,9.6863,9.0563,8.7326,0.0,0.0,0.0,0.0,0.0,7.6381,7.8187,8.0098,8.3612,8.6386,8.8946,9.2405,9.5017,9.6941,9.8132,9.9467,10.078,10.0987,10.1401,10.1987,10.2677,10.278,10.2401,10.1884,10.247,10.3194,10.2401,10.2504,10.2884,10.3194,10.3091,10.2987,10.3505,10.2504,10.1366,10.109,9.9331,9.7124,9.5124,9.264,9.064,9.0123,8.8364,8.7018,8.7087,0.0,0.0,0.0,0.0,0.0,0.0,7.674,7.543,7.4981,7.612,0.0,0.0,0.0,0.0,0.0,0.0,0.0,0.0,0.0,0.0,8.2121,8.6846,8.9295,8.9398,8.9812,9.0295,9.0812,9.0812,9.0812,9.0847,9.164,9.2123,9.2433,9.3744,9.4399,9.4675,9.5193,9.54,9.54,9.54,9.54,9.5434,9.8576,9.9977,10.2347,10.792,10.8814,10.9111,11.0003,10.9518,10.9324,11.0134,11.0221,11.0036,10.9304,10.9936,11.0089,10.9375,10.9982,11.0089,10.9304,10.8483,10.7844,0.0,0.0,10.6172,10.4792,10.2561,9.8767,9.3368,0.0,0.0,8.0907,0.0,7.8555,7.7841,8.0171,8.2048,8.3554,8.5907,8.8654,9.1678,9.3511,9.5487,9.7415,9.842,9.9228,9.9987,10.078,10.109,10.1194,10.1987,10.2677,10.3298,10.3298,10.3298,10.3194,10.2401,10.3263,10.4263,10.3505,10.3884,10.447,10.447,10.3298,10.1987,10.1263,9.9331,9.6814,9.3744,9.1882,9.0812,9.0812,8.9571,8.8088,8.657,0.0,0.0,0.0,0.0,0.0,7.8775,7.7672,7.6602,7.5085,7.5671,0.0,0.0,0.0,0.0,0.0,0.0,0.0,7.7223,8.1603,0.0,8.2914,8.8122,9.0054,8.8639,9.0088,9.0812,9.0812,9.0812,9.0812,9.0847,9.164,9.2399,9.3158,9.3951,9.471,9.5365,9.54,9.54,9.54,9.54,9.54,9.5503,10.4095,10.491,10.6025,10.7737,10.9,10.9817,11.0114,11.0439,11.0687,11.0909,11.0514,11.0106,10.9876,11.0181,11.0486,0.0,11.0101,10.9501,0.0,10.8483,10.795,10.7844,10.7453,10.6423,10.4898,10.3834,10.0801,9.587,0.0,0.0,0.0,8.1666,8.0905,8.104,8.3462,8.562,8.7639,8.9808,9.1945,9.4043,9.4562,9.5873,9.759,9.7962,9.9124,10.078,10.1573,10.2194,10.2608,10.2884,10.278,10.2573,10.2573,10.3263,10.3988,10.3194,10.3677,10.4367,10.416,10.4263,10.447,10.447,10.3298,10.2091,10.1884,9.8849,9.5537,9.3503,9.1882,9.0812,9.0812,9.0433,8.9778,8.8777,8.795,0.0,0.0,0.0,7.9672,7.7154,7.6154,7.5257,7.4257,7.4843,0.0,0.0,0.0,0.0,0.0,0.0,0.0,0.0,7.9879,0.0,8.2155,8.6915,8.9053,8.8605,8.9605,9.0329,9.0812,9.1364,9.133,9.0847,9.164,9.2399,9.3158,9.3951,9.471,9.54,9.54,9.54,9.54,9.54,9.54,9.5434,10.6919,10.7291,10.7699,10.7997,10.9,10.9817,11.0114,11.0523,11.1006,11.1303,11.0865,11.0692,11.0987,11.1092,0.0,11.1505,11.0863,11.0342,11.0058,10.9375,10.8705,10.8228,10.7984,10.7097,10.5393,10.4932,0.0,9.9521,9.6464,9.2154,8.6557,8.5811,8.5409,8.5525,8.7917,8.9553,9.0837,9.2674,9.3972,9.4802,9.508,9.6006,9.7262,9.7572,9.8745,10.0366,10.1401,10.2091,10.2504,10.278,10.2573,10.2194,10.2194,10.2884,10.3574,10.3367,10.3677,10.4091,10.4367,10.4263,10.3988,10.3988,10.3091,10.1987,10.109,9.8055,9.5124,9.4158,9.2502,9.1261,9.1261,9.0778,9.0157,8.9398,8.7777,8.5535,8.2466,0.0,7.7913,0.0,0.0,0.0,0.0,7.4636,7.4947,0.0,0.0,0.0,0.0,0.0,0.0,7.6947,7.9913,8.1845,8.2638,8.688,8.8881,8.8605,8.964,9.0502,9.1261,9.1468,9.1433,9.1295,9.2054,9.2675,9.3192,9.4261,9.4951,9.54,9.54,9.54,9.54,9.54,9.54,9.5468,10.7625,10.7625,0.0,0.0,10.8925,0.0,11.0114,11.0114,11.03,11.1192,11.1229,11.1415,11.2232,11.2418,11.2226,11.1541,0.0,0.0,0.0,11.0717,10.9643,10.8496,10.8935,10.8173,10.6138,10.5956,10.4986,10.338,9.8335,9.432,9.1116,9.1711,9.1641,9.1116,9.3206,9.3764,9.3206,9.4635,9.4944,9.4543,9.5158,9.5917,9.6676,9.74,9.8159,9.9055,10.047,10.1056,10.1194,10.1884,10.2091,10.2091,10.2091,10.2091,10.2263,10.2987,10.3194,10.3401,10.4194,10.3884,10.3298,10.3367,10.278,10.1573,9.9297,9.7055,9.5434,9.54,9.3606,9.2054,9.2019,9.0812,8.9571,8.8743,8.6639,8.4052,8.1052,7.8603,7.6568,0.0,0.0,0.0,0.0,7.4912,7.4947,0.0,0.0,0.0,0.0,0.0,7.6878,7.843,8.1293,8.3225,8.4087,8.7777,8.9329,8.8777,9.0192,9.1261,9.1882,9.1261,9.133,9.195,9.2709,9.302,9.3123,9.4606,9.5262,9.5331,9.5365,9.54,9.54,9.54,9.54,9.5606,0.0,0.0,10.8703,10.8888,10.9408,11.0114,11.0894,11.0003,10.9706,11.1117,11.0226,10.9817,11.0597,11.1229,11.1478,11.1375,11.157,11.1373,11.0571,11.0388,11.0223,10.9738,10.9427,10.8746,10.7556,10.687,10.5593,10.338,10.1097,9.9274,9.7975,9.7144,9.6622,9.6447,9.6821,9.6579,9.6131,9.6379,9.624,9.5812,9.6138,9.671,9.7434,9.7607,9.8504,9.9676,10.009,10.0573,10.109,10.1263,10.1366,10.1263,10.0608,10.0883,10.147,10.2194,10.247,10.2573,10.3367,10.3401,10.3401,10.4057,10.3194,10.1573,9.9297,9.7469,9.6089,9.5503,9.402,9.2675,9.2088,9.1709,9.0812,8.8915,8.6191,8.3431,8.0983,7.8154,7.5809,0.0,7.4947,7.5154,7.4154,7.4602,7.5188,0.0,0.0,0.0,7.5775,7.6533,7.7672,7.9189,8.1086,8.2983,8.4915,8.7536,8.9329,9.0295,9.1261,9.1502,9.1123,9.2123,9.2019,9.1123,9.1916,9.2261,9.233,9.3261,9.402,9.4606,9.5158,9.54,9.54,9.54,9.54,9.5503,10.822,10.8888,10.9408,10.9408,11.0114,11.0709,11.0709,11.0003,10.9817,11.0597,10.9706,10.9297,11.0523,11.0709,11.0894,11.1303,11.1724,11.1679,11.13,11.13,11.1038,11.0242,11.0186,10.9534,10.813,10.7599,10.6328,10.4041,10.3017,10.2068,10.1505,10.1082,10.0343,9.9324,9.911,9.8654,9.7779,9.7673,9.7353,9.6913,9.734,9.7607,9.771,9.8055,9.8676,9.9435,9.978,10.0194,10.0573,10.0573,10.078,10.1056,10.0987,10.1263,10.1677,10.247,10.247,10.2366,10.3091,10.3298,10.3298,10.3367,10.2298,10.0711,9.9159,9.7883,9.6814,9.6055,9.4399,9.2985,9.2571,9.164,9.0088,8.7467,8.5052,8.2466,7.95,7.7051,7.5395,7.4912,7.5292,7.5671,7.5878,7.6258,7.6533,7.6602,7.643,0.0,7.6602,7.8672,7.9741,7.9534,8.1672,8.3742,8.5673,8.795,8.9674,9.0812,9.1226,9.1433,9.1364,9.2226,9.2123,9.1399,9.2157,9.2502,9.2571,9.333,9.4089,9.4813,9.5227,9.54,9.54,9.54,9.54,9.5537,10.9111,10.9594,11.0114,11.0114,11.0597,11.082,11.03,11.0003,10.9929,11.0597,10.9594,10.9594,11.1489,11.0709,11.0523,11.1415,11.2009,11.2306,11.212,11.2306,11.1708,11.0278,11.0905,11.028,10.8317,10.8097,10.7116,10.5393,10.4683,10.4154,10.3513,10.4111,10.3263,10.1151,10.0975,10.0127,9.8672,9.8672,9.8306,9.7745,9.8469,9.84,9.7917,9.8538,9.8849,9.9021,9.9538,9.9814,9.9918,9.9987,10.0504,10.1194,10.1987,10.2194,10.2298,10.2987,10.278,10.2504,10.3091,10.3298,10.3091,10.2366,10.109,9.9849,9.8986,9.8228,9.7469,9.6676,9.4779,9.3227,9.3123,9.133,8.8915,8.6018,8.3949,8.1535,7.8051,0.0,7.5395,7.6189,7.5982,7.6568,7.8534,7.8844,7.8637,7.7982,7.95,7.9707,7.8017,8.1086,8.2086,8.0258,8.2811,8.4984,8.6639,8.8674,9.0088,9.0812,9.0812,9.1157,9.1813,9.195,9.1916,9.1847,9.2606,9.2916,9.2985,9.3778,9.4537,9.5227,9.5365,9.54,9.54,9.5392,9.5315,9.5521,10.9817,11.0003,11.0114,11.0114,10.9594,10.9706,11.0932,10.9297,10.9223,11.2789,11.0709,11.0114,11.3123,11.1415,11.0709,11.2195,11.1823,11.1229,11.0523,11.1117,11.1113,11.0168,11.0313,10.9889,10.8881,10.8218,10.7829,10.7503,10.7395,10.6996,10.6348,10.6455,10.5677,10.4225,10.3518,10.1749,9.9507,9.9507,9.8826,9.7745,9.8469,9.8711,9.8607,9.8745,9.9193,9.9642,9.9124,9.9366,9.9987,10.0676,10.0987,10.1194,10.1987,10.2194,10.2194,10.2298,10.2677,10.3194,10.3298,10.3298,10.3091,10.2366,10.1573,10.0504,9.909,9.8228,9.7469,9.6676,9.5227,9.3882,9.3227,9.1744,8.9847,8.7467,8.419,8.1328,7.9431,0.0,7.6223,7.6947,7.8637,7.9879,8.0224,8.0879,8.1224,8.1086,8.0224,8.0086,8.1052,8.2259,8.3018,8.3293,8.4432,8.6053,8.8226,8.9226,9.0088,9.0812,9.0812,9.0881,9.1019,9.1675,9.164,9.1054,9.1813,9.2157,9.2226,9.2985,9.3744,9.4503,9.5158,9.54,9.5358,9.5149,9.5006,9.5093,11.0003,11.0411,11.0523,10.9594,11.0226,11.0709,11.0114,10.9817,11.0114,11.16,11.0523,11.03,11.2195,11.0709,10.9891,11.1117,11.0894,11.03,10.952,11.0597,11.0996,11.0228,11.0117,10.999,10.9729,10.8888,10.8597,10.8592,10.8195,10.7799,10.752,10.7204,10.6315,10.4925,10.3436,10.1862,10.0412,9.9581,9.9042,9.8883,9.9262,9.9366,9.9366,9.9366,9.9607,9.9883,9.9987,9.9952,10.009,10.1263,10.1677,10.178,10.2573,10.3091,10.3401,10.3401,10.3367,10.3401,10.3781,10.3298,10.2573,10.2298,10.1297,10.0159,9.9021,9.8538,9.7952,9.6745,9.5641,9.4503,9.333,9.1537,8.9467,8.7191,8.3638,0.0,7.912,7.7637,7.7154,7.8327,8.0465,8.219,8.3018,8.3776,8.388,8.3052,8.2328,8.2086,8.2397,8.3087,8.3845,8.4639,8.6191,8.7536,8.857,8.9743,9.0467,9.0812,9.0812,9.0812,9.0847,9.164,9.1571,9.0847,9.164,9.1985,9.2054,9.2778,9.3572,9.4365,9.5089,9.5031,9.4545,9.4427,9.4332,9.4328,11.0114,11.0597,11.0597,10.9408,11.0597,11.1192,10.9706,11.03,11.1006,11.1006,11.082,11.1006,11.212,11.1117,11.0597,11.1192,11.1117,11.0709,11.0114,11.0709,11.0693,10.9907,10.9761,10.9915,11.0239,10.9803,10.9605,10.9499,10.8811,10.843,10.8091,10.7346,10.6164,10.4801,10.291,10.1567,10.0745,9.9654,9.9481,9.9883,10.0033,9.9999,9.9883,9.9883,9.9883,9.9987,10.078,10.0676,10.0401,10.1884,10.2298,10.2298,10.3091,10.3677,10.4194,10.4194,10.3884,10.3677,10.4298,10.3367,10.2194,10.2194,10.0987,9.9711,9.8952,9.878,9.8331,9.6814,9.5917,9.4917,9.3365,9.1226,8.8915,8.6432,0.0,8.0569,0.0,7.8603,7.9051,8.0396,8.2569,8.4501,8.5846,8.6501,8.6329,8.5156,8.4915,8.4535,8.3983,8.4501,8.5156,8.5984,8.7674,8.8674,8.8846,9.0157,9.0812,9.0812,9.0812,9.0812,9.0847,9.164,9.164,9.1123,9.1744,9.2192,9.2537,9.2951,9.3675,9.4606,9.5158,9.4772,9.3903,9.384,9.3534,9.3315,11.0114,11.0114,11.0189,11.0003,10.952,10.9594,11.0894,11.0597,11.1006,11.3198,11.2826,11.2901,11.4609,11.4609,11.4609,11.4609,11.4015,11.3495,11.3421,11.1415,10.9817,10.8996,10.9037,10.9334,11.011,11.0773,11.083,11.0186,11.0186,10.939,10.8091,10.6814,10.5352,10.3993,10.263,10.1254,9.9952,10.0457,10.0457,9.9883,10.0457,10.0343,9.9883,9.9883,9.9883,9.9987,10.078,10.1056,10.1194,10.2677,10.278,10.2298,10.3091,10.3298,10.3367,10.3367,10.3884,10.4367,10.447,10.3367,10.2194,10.2194,10.0987,9.9711,9.8952,9.878,9.8331,9.6814,9.5917,9.4917,9.3365,9.1226,8.8743,8.5777,0.0,0.0,7.9741,8.119,8.2776,8.3569,8.5708,8.7432,8.826,8.8398,8.8364,8.826,8.757,8.7122,8.7087,8.7122,8.7536,8.8329,8.8501,8.8915,8.9605,9.0398,9.0812,9.0812,9.0812,9.0812,9.0847,9.164,9.195,9.1916,9.195,9.2813,9.4054,9.3365,9.3985,9.5296,9.5365,9.4772,9.3855,9.3581,9.3024,9.2312,11.0003,10.9706,10.9223,10.8628,10.9594,11.0411,11.0523,11.1117,11.1897,11.2901,11.2715,11.2715,11.3421,11.3012,11.2715,11.2715,11.2901,11.3012,11.3012,11.2603,11.1303,10.9,10.9408,11.0003,11.082,11.16,11.1671,11.0949,11.0042,10.8953,10.7987,10.6352,10.5198,10.4625,10.325,10.2421,10.1879,10.1548,10.1018,10.0491,10.0683,10.0422,9.9883,9.9883,9.9607,9.9366,10.0608,10.047,9.9952,10.1987,10.2091,10.1677,10.2884,10.2987,10.2677,10.3194,10.3884,10.447,10.447,10.3677,10.278,10.2298,10.178,10.109,10.0366,10.0194,9.978,9.8228,9.7331,9.6331,9.4813,9.264,9.0571,8.895,0.0,8.3466,8.3087,8.3362,8.388,8.4639,8.7156,8.895,8.926,8.9709,8.9778,8.9329,8.9019,8.8639,8.8157,8.8157,8.8501,8.926,8.9295,8.9433,8.9709,9.0433,9.0812,9.0812,9.1295,9.1537,9.1571,9.233,9.2433,9.2019,9.2468,9.2744,9.2916,9.3572,9.4192,9.4744,9.4566,9.3903,9.2995,9.2168,9.1591,9.1173,10.9594,10.9297,10.8703,10.8108,10.9594,11.082,11.0523,11.16,11.2529,11.2529,11.2715,11.2826,11.2529,11.2306,11.212,11.212,11.2306,11.2529,11.2529,11.2418,11.1489,10.9706,10.9929,11.0523,11.1303,11.212,11.2095,11.1423,11.0142,10.8855,10.8014,10.6208,10.514,10.4565,10.3519,10.2867,10.263,10.2167,10.1458,10.0795,10.1018,10.057,9.9883,9.9883,9.9573,9.9297,10.0573,10.0401,9.978,10.1573,10.1677,10.1263,10.2298,10.2401,10.2366,10.3367,10.4057,10.4367,10.4194,10.3677,10.3194,10.2677,10.2194,10.1677,10.1194,10.0883,10.0366,9.9055,9.8193,9.7193,9.5675,9.3709,9.1847,9.0364,8.7674,8.5811,8.588,8.6053,8.6432,8.7225,8.9157,9.0433,9.0433,9.064,9.0605,9.0088,8.9847,8.9467,8.8984,8.895,8.9295,9.0019,9.0054,9.0054,9.0054,9.0571,9.0812,9.0812,9.1364,9.1606,9.164,9.2399,9.2468,9.2019,9.2778,9.2951,9.2778,9.3847,9.4434,9.4565,9.4078,9.3318,9.2392,9.1371,9.0716,9.032,10.8925,10.8888,10.8888,10.8888,10.9594,11.0411,11.1192,11.2009,11.2529,11.2529,11.3309,11.3495,11.2603,11.3309,11.3792,11.3792,11.3012,11.2529,11.2529,11.03,10.9706,11.1229,11.0523,11.0523,11.1303,11.212,11.2095,11.1423,11.0613,10.9437,10.7978,10.6658,10.5129,10.3694,10.3125,10.2378,10.1854,10.2316,10.1821,10.083,10.1494,10.1053,9.9883,9.9883,9.9883,9.9987,10.078,10.1056,10.1159,10.1884,10.1677,10.109,10.109,10.1573,10.247,10.3988,10.447,10.4263,10.347,10.3298,10.3298,10.3298,10.2194,10.109,10.109,10.047,9.9676,9.8952,9.8193,9.7227,9.5675,9.4158,9.2123,8.9122,8.9226,8.9191,8.7674,8.9398,9.1123,9.1916,9.1985,9.1985,9.1985,9.1261,9.0812,9.0812,9.0123,8.9709,8.9709,8.9709,9.0054,9.0778,9.0812,9.0812,9.0812,9.0812,9.0812,9.0812,9.0812,9.0812,9.0847,9.164,9.2019,9.2019,9.2778,9.3537,9.4261,9.4296,9.471,9.5254,9.4249,9.3318,9.2392,9.1404,9.0422,8.9672,11.0411,10.9706,10.8888,10.8888,10.9594,11.0189,11.0411,11.16,11.2529,11.2529,11.2715,11.2826,11.2529,11.2715,11.2901,11.2901,11.2715,11.2826,11.3421,11.2715,11.2603,11.3012,11.1192,11.0709,11.212,11.2418,11.2412,11.2169,11.083,10.9702,10.867,10.7395,10.595,10.4508,10.4259,10.3835,10.3129,10.305,10.2561,10.1458,10.1567,10.1053,9.9883,9.9883,9.9573,9.9228,9.9987,9.9918,9.9573,10.0297,10.0401,10.0366,10.0883,10.1987,10.2987,10.2884,10.3263,10.347,10.2677,10.2504,10.2677,10.3194,10.2573,10.1884,10.1884,10.1263,10.0504,9.9711,9.8986,9.8159,9.7158,9.5744,9.4054,9.2088,9.1502,9.1157,9.0674,9.1192,9.1916,9.2675,9.2295,9.1985,9.1985,9.1261,9.0812,9.0812,9.0605,9.0467,9.0467,9.0467,9.0571,9.0812,9.0812,9.0812,9.0812,9.0812,9.0812,9.0812,9.1364,9.164,9.1675,9.2985,9.302,9.2088,9.3916,9.4227,9.3537,9.3871,9.4192,9.4134,9.2568,9.1745,9.1404,9.0422,8.9837,8.9607,11.1006,11.0003,10.9,10.9297,10.9817,11.0226,11.0523,11.1712,11.2529,11.2529,11.2529,11.2529,11.2529,11.2232,11.2009,11.2009,11.1712,11.1897,11.2789,11.2492,11.2492,11.2826,11.1415,11.1192,11.2529,11.2529,11.2529,11.2529,11.1198,11.0086,10.9075,10.8328,10.6917,10.518,10.55,10.5003,10.3973,10.3957,10.3017,10.1711,10.1711,10.1053,9.9883,9.9883,9.9607,9.9297,9.9745,9.9607,9.9297,9.9745,9.9883,10.009,10.1194,10.2091,10.278,10.2677,10.3194,10.3505,10.247,10.2194,10.2298,10.278,10.2298,10.178,10.2091,10.1366,10.047,9.9987,9.9297,9.8642,9.8193,9.6848,9.5434,9.4192,9.3641,9.333,9.333,9.333,9.3606,9.4365,9.3261,9.2433,9.2433,9.1433,9.0812,9.0812,9.0812,9.0812,9.0812,9.0812,9.0812,9.0812,9.0812,9.0812,9.0812,9.0812,9.0812,9.0812,9.1295,9.1537,9.1571,9.2813,9.2882,9.2088,9.3725,9.3812,9.3058,9.3311,9.3318,9.32,9.1621,9.1027,9.09,8.9936,8.9575,8.9575,11.0894,11.0003,10.9223,10.9891,11.0114,11.0411,11.1117,11.1897,11.2529,11.2529,11.2603,11.2603,11.2529,11.2009,11.16,11.1415,11.082,11.0709,11.1526,11.082,11.0709,11.1415,11.1415,11.1823,11.2529,11.2529,11.2529,11.2529,11.1823,11.0729,10.9185,10.9185,10.7979,10.5807,10.6592,10.6092,10.4701,10.4563,10.3445,10.1816,10.1746,10.0872,9.9883,9.9883,9.9883,9.9883,9.9883,9.9883,9.9918,9.9987,9.9987,10.0297,10.1677,10.2298,10.247,10.2987,10.3677,10.3988,10.2401,10.1987,10.1987,10.2091,10.1504,10.1159,10.1884,10.0987,9.9883,9.9883,9.9366,9.8849,9.8814,9.7572,9.6365,9.5606,9.5434,9.54,9.54,9.54,9.5606,9.6227,9.4399,9.3054,9.302,9.1675,9.0812,9.0812,9.0812,9.0847,9.0916,9.0847,9.0847,9.0916,9.0847,9.0812,9.0812,9.0812,9.0812,9.0812,9.0881,9.0916,9.095,9.1813,9.2157,9.2157,9.2723,9.2963,9.2734,9.2539,9.2514,9.227,9.1279,9.09,9.0773,8.9936,8.9575,8.9607,11.03,11.0114,10.9706,10.9223,11.0189,11.0894,11.0411,11.16,11.2529,11.2529,11.3123,11.3309,11.2603,11.3495,11.3718,11.2418,11.2715,11.3086,11.3198,11.3123,11.2789,11.2306,11.2232,11.2306,11.2529,11.2529,11.2529,11.2529,11.2306,11.1504,10.9987,10.9987,10.8739,10.6628,10.6806,10.6414,10.545,10.4361,10.3376,10.2518,10.1373,10.0605,9.9883,9.9883,9.9883,9.9883,9.9883,9.9883,9.9987,10.0573,10.078,10.0987,10.1884,10.2987,10.3677,10.2056,10.2504,10.3091,10.0987,10.0401,10.0504,10.1159,10.0711,10.0366,10.1159,10.0573,9.9883,9.9883,9.9745,9.9469,9.8883,9.8021,9.7158,9.64,9.5779,9.54,9.54,9.54,9.5227,9.4813,9.3778,9.2882,9.2295,9.1364,9.0812,9.0812,9.0812,9.1088,9.1709,9.1157,9.1088,9.1709,9.1123,9.0812,9.0812,9.0812,9.0812,9.0812,9.1433,9.1744,9.1778,9.3158,9.3434,9.2951,9.4248,9.4077,9.2734,9.2539,9.2025,9.1279,9.0293,8.9936,8.9805,8.9706,8.9575,8.9737,11.0003,10.9817,10.9594,11.0003,11.0411,11.082,11.1192,11.2009,11.2529,11.2529,11.2901,11.3012,11.2529,11.3309,11.3606,11.3198,11.3495,11.3792,11.3792,11.3792,11.3421,11.2529,11.2529,11.2529,11.2529,11.2529,11.2529,11.2529,11.2529,11.1726,11.0279,11.0279,10.9342,10.7484,10.7484,10.702,10.6235,10.4755,10.3905,10.3256,10.1471,10.0734,10.0401,9.9987,9.9883,9.9883,9.9883,9.9883,9.9952,10.0366,10.078,10.1159,10.1573,10.247,10.3091,10.1573,10.1884,10.2366,10.0401,10.0194,10.047,10.0504,10.0194,10.009,10.0883,10.047,9.9883,9.9883,9.9883,9.978,9.94,9.84,9.7538,9.7124,9.6124,9.5503,9.5882,9.5606,9.5365,9.5331,9.402,9.2675,9.1537,9.1054,9.0812,9.0812,9.0812,9.0985,9.1399,9.1019,9.0985,9.1399,9.1019,9.0812,9.0812,9.0812,9.0812,9.0812,9.1226,9.1433,9.1468,9.302,9.3503,9.3192,9.3782,9.3467,9.2542,9.1488,9.0806,9.026,8.9448,8.9283,8.9542,8.9186,8.9283,8.9737,10.9594,10.9297,10.9297,11.0709,11.0597,11.082,11.212,11.2418,11.2529,11.2529,11.2603,11.2715,11.2529,11.2603,11.3123,11.4127,11.4089,11.4015,11.4015,11.4015,11.3606,11.2529,11.2603,11.2715,11.2529,11.2529,11.2529,11.2529,11.2368,11.1557,11.0279,11.0223,10.9365,10.8091,10.7984,10.7591,10.7056,10.5252,10.4291,10.3853,10.1569,10.0724,10.078,10.0194,9.9883,9.9883,9.9883,9.9883,9.9918,10.009,10.0504,10.109,10.109,10.1677,10.2194,10.1194,10.147,10.1884,10.0297,10.0366,10.0676,10.009,9.9883,10.009,10.0676,10.0366,9.9883,9.9883,9.9883,9.9883,9.9883,9.8676,9.7676,9.7676,9.64,9.5572,9.6055,9.5606,9.5331,9.5675,9.3951,9.2192,9.0916,9.0812,9.0812,9.0812,9.0812,9.0881,9.1019,9.0881,9.0881,9.1019,9.0881,9.0812,9.0812,9.0812,9.0743,9.064,9.0881,9.1088,9.1261,9.2675,9.3365,9.3428,9.2793,9.2433,9.2191,9.0255,8.935,8.9154,8.8538,8.87,8.9154,8.8668,8.8959,8.9672,10.822,10.8517,10.9,10.9223,11.03,11.1229,11.1415,11.212,11.2529,11.2529,11.3198,11.3309,11.2603,11.3198,11.4201,11.5724,11.5204,11.4832,11.4832,11.4832,11.4127,11.2603,11.3198,11.3309,11.2529,11.2529,11.2529,11.2529,11.1921,11.1126,11.0315,10.962,10.8907,10.8091,10.7377,10.7377,10.7665,10.4542,10.3436,10.3853,10.1046,10.0033,10.009,9.9918,9.9883,9.9883,9.9883,9.9883,9.9987,10.0676,10.0987,10.109,10.109,10.1987,10.2711,10.0676,10.109,10.1884,10.0297,9.9987,9.9987,9.9918,9.9883,9.9918,9.9987,9.9987,9.9883,9.9883,9.9883,9.9883,9.9883,9.8676,9.7676,9.7676,9.64,9.5193,9.4641,9.4503,9.3985,9.2744,9.1709,9.1054,9.0812,9.0812,9.0812,9.0812,9.0812,9.1088,9.1778,9.1192,9.1123,9.1813,9.1157,9.0812,9.0812,9.0812,9.0502,8.9881,9.1192,9.2157,9.2813,9.3709,9.4468,9.5055,9.3532,9.2372,9.1476,8.966,8.8431,8.7696,8.7599,8.7632,8.7761,8.8312,8.8959,8.9672,10.7811,10.7922,10.8294,10.8814,10.952,11.03,11.1192,11.16,11.2009,11.2418,11.2826,11.2901,11.2529,11.3309,11.4424,11.6095,11.591,11.5501,11.5018,11.5018,11.4312,11.2603,11.2901,11.2901,11.2529,11.2529,11.2529,11.2529,11.2169,11.1557,11.086,11.0223,10.9365,10.8741,10.7406,10.7092,10.7272,10.4646,10.3888,10.4373,10.174,10.078,10.109,10.0194,9.9883,9.9883,9.9883,9.9883,9.9952,10.0297,10.0676,10.0987,10.0573,10.1194,10.178,10.0297,10.0401,10.078,10.009,9.9883,9.9883,9.9883,9.9573,9.9262,9.9262,9.8952,9.8883,9.9711,9.9573,9.9262,9.9262,9.8055,9.6883,9.6469,9.5468,9.4503,9.3744,9.3606,9.3227,9.2123,9.1675,9.1295,9.0847,9.0812,9.0812,9.0812,9.0812,9.095,9.133,9.0985,9.095,9.133,9.0985,9.0812,9.0812,9.0812,9.064,9.0329,9.1019,9.1295,9.1261,9.2715,9.3143,9.2698,9.2086,9.1147,8.9896,8.9071,8.8147,8.7373,8.7016,8.7081,8.7567,8.87,8.9316,8.9639]},{"header":{"parameterUnit":"m.s-1","parameterCategory":1,"la1":30.6,"la2":28.766,"lo1":-90.7593,"lo2":-88.6598,"dy":0.0162,"dx":0.0183,"nx":116,"ny":114,"refTime":"2024-03-21T06:00:00:Z","depth":0,"parameterNumber":3,"parameterNumberName":"V-component_of_WINDS"},"data":[0.0,0.0,0.0,0.0,0.0,0.0,0.0,0.0,0.0,0.0,0.0,0.0,0.0,0.0,0.0,0.0,0.0,0.0,0.0,0.0,0.0,0.0,0.0,0.0,0.0,0.0,0.0,0.0,0.0,0.0,0.0,0.0,0.0,0.0,0.0,0.0,0.0,0.0,0.0,0.0,0.0,0.0,0.0,0.0,0.0,0.0,0.0,0.0,0.0,0.0,0.0,0.0,0.0,0.0,0.0,0.0,0.0,0.0,0.0,0.0,0.0,0.0,0.0,0.0,0.0,0.0,0.0,0.0,0.0,0.0,0.0,0.0,0.0,0.0,0.0,0.0,0.0,0.0,0.0,0.0,0.0,0.0,0.0,0.0,0.0,0.0,0.0,0.0,0.0,0.0,0.0,0.0,0.0,0.0,0.0,0.0,0.0,0.0,0.0,0.0,0.0,0.0,0.0,0.0,0.0,0.0,0.0,0.0,0.0,0.0,0.0,0.0,0.0,0.0,0.0,0.0,0.0,0.0,0.0,0.0,0.0,0.0,0.0,0.0,0.0,0.0,0.0,0.0,0.0,0.0,0.0,0.0,0.0,0.0,0.0,0.0,0.0,0.0,0.0,0.0,0.0,0.0,0.0,0.0,0.0,0.0,0.0,0.0,0.0,0.0,0.0,0.0,0.0,0.0,0.0,0.0,0.0,0.0,0.0,0.0,0.0,0.0,0.0,0.0,0.0,0.0,0.0,0.0,0.0,0.0,0.0,0.0,0.0,0.0,0.0,0.0,0.0,0.0,0.0,0.0,0.0,0.0,0.0,0.0,0.0,0.0,0.0,0.0,0.0,0.0,0.0,0.0,0.0,0.0,0.0,0.0,0.0,0.0,0.0,0.0,0.0,0.0,0.0,0.0,0.0,0.0,0.0,0.0,0.0,0.0,0.0,0.0,0.0,0.0,0.0,0.0,0.0,0.0,0.0,0.0,0.0,0.0,0.0,0.0,0.0,0.0,0.0,0.0,0.0,0.0,0.0,0.0,0.0,0.0,0.0,0.0,0.0,0.0,0.0,0.0,0.0,0.0,0.0,0.0,0.0,0.0,0.0,0.0,0.0,0.0,0.0,0.0,0.0,0.0,0.0,0.0,0.0,0.0,0.0,0.0,0.0,0.0,0.0,0.0,0.0,0.0,0.0,0.0,0.0,0.0,0.0,0.0,0.0,0.0,0.0,0.0,0.0,0.0,0.0,0.0,0.0,0.0,0.0,0.0,0.0,0.0,0.0,0.0,0.0,0.0,0.0,0.0,0.0,0.0,0.0,0.0,0.0,0.0,0.0,0.0,0.0,0.0,0.0,0.0,0.0,0.0,0.0,0.0,0.0,0.0,0.0,0.0,0.0,0.0,0.0,0.0,0.0,0.0,0.0,0.0,0.0,0.0,0.0,0.0,0.0,0.0,0.0,0.0,0.0,0.0,0.0,0.0,0.0,0.0,0.0,0.0,0.0,0.0,0.0,0.0,0.0,0.0,0.0,0.0,0.0,0.0,0.0,0.0,0.0,0.0,0.0,0.0,0.0,0.0,0.0,0.0,0.0,0.0,0.0,0.0,0.0,0.0,0.0,0.0,0.0,0.0,0.0,0.0,0.0,0.0,0.0,0.0,0.0,0.0,0.0,0.0,0.0,0.0,0.0,0.0,0.0,0.0,0.0,0.0,0.0,0.0,0.0,0.0,0.0,0.0,0.0,0.0,0.0,0.0,0.0,0.0,0.0,0.0,0.0,0.0,0.0,0.0,0.0,0.0,0.0,0.0,0.0,0.0,0.0,0.0,0.0,0.0,0.0,0.0,0.0,0.0,0.0,0.0,0.0,0.0,0.0,0.0,0.0,0.0,0.0,0.0,0.0,0.0,0.0,0.0,0.0,0.0,0.0,0.0,0.0,0.0,0.0,0.0,0.0,0.0,0.0,0.0,0.0,0.0,0.0,0.0,0.0,0.0,0.0,0.0,0.0,0.0,0.0,0.0,0.0,0.0,0.0,0.0,0.0,0.0,0.0,0.0,0.0,0.0,0.0,0.0,0.0,0.0,0.0,0.0,0.0,0.0,0.0,0.0,0.0,0.0,0.0,0.0,0.0,0.0,0.0,0.0,0.0,0.0,0.0,0.0,0.0,0.0,0.0,0.0,0.0,0.0,0.0,0.0,0.0,0.0,0.0,0.0,0.0,0.0,0.0,0.0,0.0,0.0,0.0,0.0,0.0,0.0,0.0,0.0,0.0,0.0,0.0,0.0,0.0,0.0,0.0,0.0,0.0,0.0,0.0,0.0,0.0,0.0,0.0,0.0,0.0,0.0,0.0,0.0,0.0,0.0,0.0,0.0,0.0,0.0,0.0,0.0,0.0,0.0,0.0,0.0,0.0,0.0,0.0,0.0,0.0,0.0,0.0,0.0,0.0,0.0,0.0,0.0,0.0,0.0,0.0,0.0,0.0,0.0,0.0,0.0,0.0,0.0,0.0,0.0,0.0,0.0,0.0,0.0,0.0,0.0,0.0,0.0,0.0,0.0,0.0,0.0,0.0,0.0,0.0,0.0,0.0,0.0,0.0,0.0,0.0,0.0,0.0,0.0,0.0,0.0,0.0,0.0,0.0,0.0,0.0,0.0,0.0,0.0,0.0,0.0,0.0,0.0,0.0,0.0,0.0,0.0,0.0,0.0,0.0,0.0,0.0,0.0,0.0,0.0,0.0,0.0,0.0,0.0,0.0,0.0,0.0,0.0,0.0,0.0,0.0,0.0,0.0,0.0,0.0,0.0,0.0,0.0,0.0,0.0,0.0,0.0,0.0,0.0,0.0,0.0,0.0,0.0,0.0,0.0,0.0,0.0,0.0,0.0,0.0,0.0,0.0,0.0,0.0,0.0,0.0,0.0,0.0,0.0,0.0,0.0,0.0,0.0,0.0,0.0,0.0,0.0,0.0,0.0,0.0,0.0,0.0,0.0,0.0,0.0,0.0,0.0,0.0,0.0,0.0,0.0,0.0,0.0,0.0,0.0,0.0,0.0,0.0,0.0,0.0,0.0,0.0,0.0,0.0,0.0,0.0,0.0,0.0,0.0,0.0,0.0,0.0,0.0,0.0,0.0,0.0,0.0,0.0,0.0,0.0,0.0,0.0,0.0,0.0,0.0,0.0,0.0,0.0,0.0,0.0,0.0,0.0,0.0,0.0,0.0,0.0,0.0,0.0,0.0,0.0,0.0,0.0,0.0,0.0,0.0,0.0,0.0,0.0,0.0,0.0,0.0,0.0,0.0,0.0,0.0,0.0,0.0,0.0,0.0,0.0,0.0,0.0,0.0,0.0,0.0,0.0,0.0,0.0,0.0,0.0,0.0,0.0,0.0,0.0,0.0,0.0,0.0,0.0,0.0,0.0,0.0,0.0,0.0,0.0,0.0,0.0,0.0,0.0,0.0,0.0,0.0,0.0,0.0,0.0,0.0,0.0,0.0,0.0,0.0,0.0,0.0,0.0,0.0,0.0,0.0,0.0,0.0,0.0,0.0,0.0,0.0,0.0,0.0,0.0,0.0,0.0,0.0,0.0,0.0,0.0,0.0,0.0,0.0,0.0,0.0,0.0,0.0,0.0,0.0,0.0,0.0,0.0,0.0,0.0,0.0,0.0,0.0,0.0,0.0,0.0,0.0,0.0,0.0,0.0,0.0,0.0,0.0,0.0,0.0,0.0,0.0,0.0,0.0,0.0,0.0,0.0,0.0,0.0,0.0,0.0,0.0,0.0,0.0,0.0,0.0,0.0,0.0,0.0,0.0,0.0,0.0,0.0,0.0,0.0,0.0,0.0,0.0,0.0,0.0,0.0,0.0,0.0,0.0,0.0,0.0,0.0,0.0,0.0,0.0,0.0,0.0,0.0,0.0,0.0,0.0,0.0,0.0,0.0,0.0,0.0,0.0,0.0,0.0,0.0,0.0,0.0,0.0,0.0,0.0,0.0,0.0,0.0,0.0,0.0,0.0,0.0,0.0,0.0,0.0,0.0,0.0,0.0,0.0,0.0,0.0,0.0,0.0,0.0,0.0,0.0,0.0,0.0,0.0,0.0,0.0,0.0,0.0,0.0,0.0,0.0,0.0,0.0,0.0,0.0,0.0,0.0,0.0,0.0,0.0,0.0,0.0,0.0,0.0,0.0,0.0,0.0,0.0,0.0,0.0,0.0,0.0,0.0,0.0,0.0,0.0,0.0,0.0,0.0,0.0,0.0,0.0,0.0,0.0,0.0,0.0,0.0,0.0,0.0,0.0,0.0,0.0,0.0,0.0,0.0,0.0,0.0,0.0,0.0,0.0,0.0,0.0,0.0,0.0,0.0,0.0,0.0,0.0,0.0,0.0,0.0,0.0,0.0,0.0,0.0,0.0,0.0,0.0,0.0,0.0,0.0,0.0,0.0,0.0,0.0,0.0,0.0,0.0,0.0,0.0,0.0,0.0,0.0,0.0,0.0,0.0,0.0,0.0,0.0,0.0,0.0,0.0,0.0,0.0,0.0,0.0,0.0,0.0,0.0,0.0,0.0,0.0,0.0,0.0,0.0,0.0,0.0,0.0,0.0,0.0,0.0,0.0,0.0,0.0,0.0,0.0,0.0,0.0,0.0,0.0,0.0,0.0,0.0,0.0,0.0,0.0,0.0,0.0,0.0,0.0,0.0,0.0,0.0,0.0,0.0,0.0,0.0,0.0,0.0,0.0,0.0,0.0,0.0,0.0,0.0,0.0,0.0,0.0,0.0,0.0,0.0,0.0,0.0,0.0,0.0,0.0,0.0,0.0,0.0,0.0,0.0,0.0,0.0,0.0,0.0,0.0,0.0,0.0,0.0,0.0,0.0,0.0,0.0,0.0,0.0,0.0,0.0,0.0,0.0,0.0,0.0,0.0,0.0,0.0,0.0,0.0,0.0,0.0,0.0,0.0,0.0,0.0,0.0,0.0,0.0,0.0,0.0,0.0,0.0,0.0,0.0,0.0,0.0,0.0,0.0,0.0,0.0,0.0,0.0,0.0,0.0,0.0,0.0,0.0,0.0,0.0,0.0,0.0,0.0,0.0,0.0,0.0,0.0,0.0,0.0,0.0,0.0,0.0,0.0,0.0,0.0,0.0,0.0,0.0,0.0,0.0,0.0,0.0,0.0,0.0,0.0,0.0,0.0,0.0,0.0,0.0,0.0,0.0,0.0,0.0,0.0,0.0,0.0,0.0,0.0,0.0,0.0,0.0,0.0,0.0,0.0,0.0,0.0,0.0,0.0,0.0,0.0,0.0,0.0,0.0,0.0,0.0,0.0,0.0,0.0,0.0,0.0,0.0,0.0,0.0,0.0,0.0,0.0,0.0,0.0,0.0,0.0,0.0,0.0,0.0,0.0,0.0,0.0,0.0,0.0,0.0,0.0,0.0,0.0,0.0,0.0,0.0,0.0,0.0,0.0,0.0,0.0,0.0,0.0,0.0,0.0,0.0,0.0,0.0,0.0,0.0,0.0,0.0,0.0,0.0,0.0,0.0,0.0,0.0,0.0,0.0,0.0,0.0,0.0,0.0,0.0,0.0,0.0,0.0,0.0,0.0,0.0,0.0,0.0,0.0,0.0,0.0,0.0,0.0,0.0,0.0,0.0,0.0,0.0,0.0,0.0,0.0,0.0,0.0,0.0,0.0,0.0,0.0,0.0,0.0,0.0,0.0,0.0,0.0,0.0,0.0,0.0,0.0,0.0,0.0,0.0,0.0,0.0,0.0,0.0,0.0,0.0,0.0,0.0,0.0,0.0,0.0,0.0,0.0,0.0,0.0,0.0,0.0,0.0,0.0,0.0,0.0,0.0,0.0,0.0,0.0,0.0,0.0,0.0,0.0,0.0,0.0,0.0,0.0,0.0,0.0,0.0,0.0,0.0,0.0,0.0,0.0,0.0,0.0,0.0,0.0,0.0,0.0,0.0,0.0,0.0,0.0,0.0,0.0,0.0,0.0,0.0,0.0,0.0,0.0,0.0,0.0,0.0,0.0,0.0,0.0,0.0,0.0,0.0,0.0,0.0,0.0,0.0,0.0,0.0,0.0,0.0,0.0,0.0,0.0,-3.3111,0.0,0.0,0.0,0.0,0.0,0.0,0.0,0.0,0.0,0.0,0.0,0.0,0.0,0.0,0.0,0.0,0.0,0.0,0.0,0.0,0.0,0.0,0.0,0.0,0.0,0.0,0.0,0.0,0.0,0.0,0.0,0.0,0.0,0.0,0.0,0.0,0.0,-3.222,-3.1721,-3.205,-3.152,-3.031,-3.1325,-3.1657,-3.1642,0.0,0.0,0.0,0.0,0.0,0.0,0.0,0.0,0.0,0.0,0.0,0.0,0.0,0.0,0.0,0.0,0.0,0.0,0.0,0.0,0.0,0.0,0.0,0.0,0.0,0.0,0.0,0.0,0.0,0.0,0.0,0.0,0.0,0.0,0.0,0.0,0.0,0.0,0.0,0.0,0.0,0.0,0.0,0.0,0.0,0.0,0.0,0.0,0.0,0.0,0.0,0.0,0.0,0.0,0.0,0.0,0.0,0.0,0.0,0.0,0.0,0.0,0.0,0.0,0.0,0.0,0.0,0.0,0.0,0.0,0.0,-3.3937,0.0,0.0,0.0,0.0,0.0,0.0,0.0,0.0,0.0,0.0,0.0,0.0,0.0,0.0,0.0,0.0,0.0,0.0,0.0,0.0,0.0,0.0,0.0,-2.7171,-2.829,-2.6869,-2.6773,-2.7522,-2.9439,-2.8446,-2.8446,-2.9788,-3.1135,-3.1813,-3.1482,-3.2654,-3.2747,-3.1796,-3.1381,-3.0153,-2.8178,-2.9501,-3.0246,-3.052,-3.0733,0.0,0.0,0.0,0.0,0.0,0.0,0.0,0.0,0.0,0.0,0.0,0.0,0.0,0.0,0.0,0.0,0.0,0.0,0.0,0.0,0.0,0.0,0.0,0.0,0.0,0.0,0.0,0.0,0.0,0.0,0.0,0.0,0.0,0.0,0.0,0.0,0.0,0.0,0.0,0.0,0.0,0.0,0.0,0.0,0.0,0.0,0.0,0.0,0.0,0.0,0.0,0.0,0.0,0.0,0.0,0.0,0.0,0.0,0.0,0.0,0.0,0.0,0.0,-3.6543,-3.7194,-3.802,-3.7718,-3.7941,-3.8481,-3.6845,-3.5494,-3.4541,0.0,0.0,0.0,0.0,0.0,0.0,0.0,0.0,0.0,0.0,0.0,0.0,0.0,0.0,0.0,0.0,0.0,0.0,0.0,0.0,0.0,0.0,-2.7402,-2.7433,-2.6991,-2.6061,-2.6732,-2.9286,-2.9286,-2.9788,-3.115,-3.2489,-3.2654,-3.1482,-3.1647,-3.1527,-3.1257,-2.9298,-2.8049,-2.7634,-2.8285,-2.8654,-2.8851,-3.0096,-3.1035,-3.1805,0.0,0.0,0.0,0.0,0.0,0.0,0.0,0.0,0.0,0.0,0.0,0.0,0.0,0.0,0.0,0.0,0.0,0.0,0.0,0.0,0.0,0.0,0.0,0.0,0.0,0.0,0.0,0.0,0.0,0.0,0.0,0.0,0.0,0.0,0.0,0.0,0.0,0.0,0.0,0.0,0.0,-3.1729,-3.1427,0.0,0.0,0.0,0.0,0.0,0.0,0.0,0.0,0.0,0.0,0.0,0.0,0.0,-3.64,-3.6717,-3.8243,-3.8767,-3.829,-3.8958,-3.9355,-3.9482,-3.9434,-3.9641,-4.0038,-4.0356,0.0,-3.6225,-3.5812,0.0,0.0,0.0,0.0,0.0,0.0,0.0,0.0,0.0,0.0,0.0,0.0,0.0,0.0,0.0,0.0,0.0,0.0,0.0,0.0,0.0,-2.7838,-2.8157,-2.7044,-2.705,-2.7797,-2.9314,-2.9943,-3.051,-3.1512,-3.2819,-3.3148,-3.2654,-3.1813,-3.0927,-2.9935,-2.859,-2.81,-2.8331,-2.8705,-2.8946,-2.9031,-2.9633,-2.9788,-2.9608,-2.9814,0.0,0.0,0.0,0.0,0.0,0.0,0.0,0.0,0.0,0.0,0.0,0.0,0.0,0.0,0.0,0.0,0.0,0.0,0.0,0.0,0.0,0.0,0.0,0.0,0.0,0.0,0.0,0.0,0.0,0.0,0.0,0.0,0.0,0.0,0.0,0.0,0.0,0.0,0.0,-3.2618,-3.2888,-3.2332,-3.292,-3.3143,0.0,0.0,0.0,0.0,0.0,0.0,0.0,0.0,0.0,-3.7353,-3.8036,-3.8449,-3.8608,-3.9577,-4.0102,-4.0165,-4.0689,-4.1134,-4.1516,-4.1325,-4.1532,-4.2056,-4.2151,-4.1309,-3.972,-3.802,-3.6804,-3.5906,0.0,0.0,0.0,0.0,-3.952,-3.9612,0.0,0.0,0.0,0.0,0.0,0.0,0.0,0.0,0.0,0.0,0.0,0.0,-2.7001,-2.8203,-2.873,-2.7578,-2.8011,-2.8569,-2.9289,-2.9921,-3.0724,-3.1631,-3.2866,-3.3492,-3.3492,-3.2055,-3.0419,-2.8767,-2.8679,-2.8862,-2.9526,-2.9864,-3.0093,-3.0214,-3.0153,-2.9489,-2.8379,-2.8666,-2.899,-2.9388,0.0,0.0,0.0,0.0,0.0,0.0,0.0,0.0,0.0,0.0,0.0,0.0,0.0,0.0,0.0,0.0,0.0,0.0,0.0,0.0,0.0,0.0,0.0,0.0,0.0,0.0,0.0,0.0,0.0,0.0,0.0,0.0,0.0,0.0,0.0,0.0,0.0,-3.3651,-3.4159,-3.3079,-3.4191,-3.4493,0.0,0.0,0.0,0.0,0.0,0.0,-3.6988,-3.7957,-3.891,-3.9863,-4.0419,-4.0785,-4.0975,-4.1595,-4.2151,-4.266,-4.3009,-4.3454,-4.3947,-4.3692,-4.3867,-4.4328,-4.3978,-4.3581,-4.2977,-4.0419,-3.874,-3.7705,-3.7912,-3.8073,-3.863,-3.9959,-4.0529,-4.0694,0.0,0.0,0.0,0.0,0.0,0.0,0.0,0.0,0.0,0.0,0.0,-2.9237,-2.8865,-2.8671,-2.8778,-2.8847,-2.787,-2.7702,-2.8898,-2.9281,-3.0308,-3.1762,-3.299,-3.3492,-3.3492,-3.1695,-2.994,-2.8326,-2.8946,-2.9876,-3.0914,-3.1433,-3.1952,-3.2423,-3.2169,-3.1324,-2.9996,-2.8427,-2.8981,-3.0642,-2.9427,0.0,0.0,0.0,0.0,0.0,0.0,0.0,0.0,0.0,0.0,0.0,0.0,0.0,0.0,0.0,0.0,0.0,0.0,0.0,0.0,0.0,0.0,0.0,0.0,0.0,0.0,0.0,0.0,0.0,0.0,0.0,0.0,0.0,0.0,0.0,0.0,0.0,0.0,-3.3206,-3.5049,0.0,0.0,0.0,0.0,-3.5923,-3.7528,-3.8799,-3.9546,-4.0245,-4.096,-4.169,-4.2691,-4.3549,-4.4233,-4.5599,-4.6266,-4.6314,-4.6663,-4.6838,-4.6854,-4.6838,-4.6838,-4.6854,-4.6536,-4.5996,-4.5138,-4.2342,-4.0722,-4.022,-4.1103,-4.1335,-4.1515,-4.3197,-4.3353,-4.2711,0.0,0.0,0.0,0.0,0.0,0.0,0.0,0.0,-2.9283,-2.8291,-2.8662,-2.9005,-2.8965,-2.8385,-2.8433,-2.9239,-2.8739,-2.8521,-2.8545,-2.9967,-3.0727,-3.0938,-3.2616,-3.2949,-3.171,-3.0519,-2.9749,-2.9501,-3.0648,-3.1747,-3.2821,-3.334,-3.3787,-3.4125,-3.4016,-3.3437,-3.235,-2.9888,-2.9029,-2.918,-2.8874,-2.9486,0.0,0.0,0.0,0.0,0.0,0.0,0.0,0.0,0.0,0.0,0.0,0.0,0.0,0.0,0.0,0.0,0.0,0.0,0.0,0.0,0.0,0.0,0.0,0.0,0.0,0.0,0.0,0.0,0.0,0.0,0.0,0.0,0.0,0.0,0.0,0.0,0.0,-3.6733,-3.9005,0.0,-3.7877,-3.8529,-3.9005,-3.8815,-3.999,-4.1023,-4.1738,-4.266,-4.3581,-4.4503,-4.5138,-4.5774,-4.6489,-4.6759,-4.7013,-4.7235,-4.7331,-4.741,-4.7426,-4.7648,-4.7633,-4.7394,-4.8208,-4.795,-4.7185,-4.6805,-4.5405,-4.318,-4.3383,-4.3723,-4.4106,-4.4581,-4.4673,-4.4471,0.0,0.0,0.0,0.0,0.0,0.0,0.0,0.0,-2.9517,-2.8188,-2.8514,-2.8649,-2.8195,-2.8396,-2.8874,-2.9851,-2.9695,-2.9505,-2.9537,-3.0398,-3.1077,-3.1253,-3.2432,-3.2319,-3.0383,-3.0293,-3.0531,-3.089,-3.2133,-3.3171,-3.4052,-3.4511,-3.4897,-3.5223,-3.5223,-3.4994,-3.4438,-3.2133,-3.0322,-2.891,-2.8754,-2.9234,-3.0057,0.0,0.0,0.0,0.0,0.0,0.0,0.0,0.0,0.0,0.0,0.0,0.0,0.0,0.0,0.0,0.0,0.0,0.0,0.0,0.0,0.0,0.0,0.0,0.0,0.0,0.0,0.0,0.0,0.0,0.0,0.0,0.0,0.0,0.0,0.0,-3.9895,-3.9768,-4.2135,-4.3041,-4.1182,-4.1833,-4.2151,-4.1563,-4.2818,-4.3851,-4.4439,-4.5376,-4.625,-4.7061,-4.7426,-4.7776,-4.8125,-4.8125,-4.8125,-4.8125,-4.8268,-4.83,-4.83,-4.8443,-4.8348,-4.8093,-4.8807,-4.8833,-4.87,-4.9673,-4.8935,-4.7253,-4.6529,-4.6427,-4.6562,-4.6837,-4.6672,-4.6305,0.0,0.0,0.0,0.0,0.0,0.0,0.0,-2.9409,-2.9282,-2.6616,-2.8005,-2.8511,-2.6795,-2.8596,-3.0189,-3.0998,-3.031,-3.0427,-3.1996,-3.1049,-3.1051,-3.2728,-3.2446,-3.1507,-2.9857,-3.1372,-3.2119,-3.2254,-3.3304,-3.4113,-3.4644,-3.4897,-3.532,-3.5839,-3.5839,-3.5971,-3.6128,-3.509,-3.3147,-3.0624,-2.8958,-2.9499,-3.1348,0.0,0.0,0.0,0.0,0.0,0.0,0.0,0.0,0.0,0.0,0.0,0.0,0.0,0.0,0.0,0.0,0.0,0.0,0.0,0.0,0.0,0.0,0.0,0.0,0.0,0.0,0.0,0.0,0.0,0.0,0.0,0.0,0.0,-3.6749,-4.0022,-4.2358,-4.204,-4.4169,-4.4836,-4.2818,-4.3851,-4.4503,-4.4137,-4.5996,-4.7331,-4.7648,-4.8348,-4.884,-4.9205,-4.9523,-4.9555,-4.9205,-4.9873,-4.9873,-4.9205,-4.9555,-4.9698,-4.9682,-4.9333,-4.9158,-4.911,-4.8443,-4.8638,-4.9658,-5.0419,-5.1192,-5.1801,-5.024,-4.934,-4.9111,-4.9881,-4.9386,-4.8212,0.0,0.0,0.0,0.0,0.0,0.0,-2.8186,-2.9218,-2.9205,-2.7016,-2.8841,-2.9887,-2.8411,-3.0093,-3.165,-3.2628,-3.1457,-3.1105,-3.2106,-3.1353,-3.1232,-3.2431,-3.0643,-3.0093,-3.1153,-3.1451,-3.2234,-3.3364,-3.4414,-3.5223,-3.5742,-3.6201,-3.6623,-3.6949,-3.6949,-3.6877,-3.672,-3.6237,-3.538,-3.4113,-3.1348,-3.01,-3.007,0.0,0.0,0.0,0.0,0.0,0.0,0.0,0.0,0.0,0.0,0.0,0.0,0.0,0.0,0.0,0.0,0.0,0.0,0.0,0.0,0.0,0.0,0.0,0.0,0.0,0.0,0.0,0.0,0.0,0.0,0.0,0.0,-3.9863,-3.9021,-4.1992,-4.4518,-4.5202,-4.7426,-4.857,-4.7776,-4.8268,-4.8491,-4.8125,-4.8888,-4.938,-4.9507,-4.9682,-4.9825,-4.9905,-5.0032,-5.0127,-5.0302,-5.0254,-5.0254,-5.0302,-5.0127,-5.0079,-5.0048,-4.9698,-4.9428,-4.9126,-4.9633,-5.0255,-5.0793,-5.208,-5.2753,-5.3218,-5.2472,-5.1959,-5.1495,-5.111,-5.0211,-4.9056,0.0,0.0,0.0,0.0,0.0,0.0,-2.8154,-2.9139,-2.9112,-2.7058,-2.9381,-3.0478,-2.8922,-3.0817,-3.2338,-3.2845,-3.225,-3.1921,-3.2695,-3.2265,-3.172,-3.1141,-3.0301,-3.0498,-3.2156,-3.2442,-3.3304,-3.4801,-3.5513,-3.614,-3.6684,-3.7106,-3.7504,-3.7854,-3.7987,-3.7951,-3.7782,-3.7504,-3.7142,-3.6563,-3.4245,-3.2688,-3.1777,-3.1692,-3.1788,-3.1985,-3.2476,-3.2738,-3.2883,-3.2693,0.0,0.0,0.0,0.0,0.0,0.0,0.0,0.0,0.0,0.0,0.0,0.0,0.0,0.0,0.0,0.0,0.0,0.0,0.0,0.0,0.0,0.0,0.0,0.0,-4.1246,-4.2898,-4.3025,-4.4932,-4.679,-4.8173,-4.9682,-5.062,-5.0572,-5.0763,-5.0715,-5.0365,-5.0667,-5.0794,-5.0667,-5.0667,-5.0667,-5.0667,-5.0794,-5.089,-5.0969,-5.1064,-5.1064,-5.0969,-5.089,-5.089,-5.0858,-5.1019,-5.0911,0.0,-5.1449,-5.1964,-5.262,-5.3186,-5.3651,0.0,0.0,0.0,0.0,0.0,-5.0651,-4.968,0.0,0.0,0.0,0.0,0.0,0.0,-2.8106,-2.9107,-2.9004,-2.6805,-2.9589,-3.0757,-2.8581,-3.0817,-3.2338,-3.2169,-3.2357,-3.2815,-3.3229,-3.3052,-3.1911,-2.9899,-3.0921,-3.188,-3.2724,-3.3859,-3.503,-3.6297,-3.6563,-3.6973,-3.7504,-3.7758,-3.8144,-3.8639,-3.8893,-3.8989,-3.8989,-3.8736,-3.847,-3.8144,-3.7179,-3.6068,-3.4986,-3.4056,-3.4132,-3.4875,-3.4309,-3.394,-3.3519,-3.2766,0.0,0.0,0.0,0.0,0.0,0.0,0.0,0.0,0.0,0.0,0.0,0.0,0.0,0.0,0.0,0.0,0.0,0.0,0.0,0.0,0.0,0.0,0.0,0.0,-4.3661,-4.5901,-4.7728,-4.8348,-4.9142,-5.062,-5.116,-5.1557,-5.1875,-5.1922,-5.1827,-5.1525,-5.1779,-5.1827,-5.1525,0.0,0.0,0.0,0.0,-5.17,-5.1382,-5.2002,-5.2002,-5.1382,-5.1652,-5.1779,-5.1795,-5.2622,-5.2992,-5.2613,-5.3114,-5.383,-5.423,-5.3911,-5.4172,-5.4759,-5.4026,-5.3256,-5.243,-5.166,-5.0872,-5.0138,0.0,0.0,0.0,0.0,0.0,0.0,-2.8074,-2.89,-2.8742,-2.6777,-2.9589,-3.0438,-2.7549,-2.9707,-3.1457,-3.1855,-3.1908,-3.227,-3.2883,-3.0921,-3.0386,-3.1539,-3.1962,-3.2567,-3.3859,-3.5126,-3.6237,-3.7142,-3.7408,-3.7794,-3.8313,-3.8603,-3.8893,-3.9182,-3.9243,-3.9279,-3.9279,-3.9219,-3.905,-3.876,-3.8337,-3.701,-3.5187,-3.4281,-3.3665,-3.3017,-3.2644,-3.3736,-3.5084,-3.518,-3.6034,-3.7264,-3.7396,-3.6971,0.0,0.0,0.0,0.0,0.0,0.0,0.0,0.0,0.0,0.0,0.0,0.0,0.0,0.0,0.0,0.0,0.0,0.0,0.0,-4.3252,-4.5504,-4.7903,-5.0222,-5.1112,-5.1414,-5.1207,-5.1954,-5.2574,-5.2621,-5.2892,-5.3035,-5.2955,-5.2987,-5.3035,-5.2955,-5.2669,-5.2526,-5.2526,-5.232,-5.2177,-5.2097,-5.2224,-5.2224,-5.2097,0.0,0.0,-5.1748,-5.1378,-5.1626,-5.2233,-5.2062,-5.2863,-5.4266,-5.4177,-5.4261,-5.4393,-5.3916,-5.3256,-5.2467,-5.199,-5.1293,-5.0541,0.0,0.0,0.0,0.0,0.0,0.0,-2.8043,-2.8837,-2.8873,-2.79,-3.0294,-3.129,-2.9182,-3.0831,-3.2145,-3.2003,-3.1574,-3.1811,-3.2537,-3.1235,-3.1112,-3.2549,-3.3163,-3.4149,-3.5742,-3.6684,-3.7492,-3.818,-3.8567,-3.8893,-3.9158,-4.0456,-4.0754,-3.9931,-4.0989,-4.0915,-3.9738,-3.9738,-3.9569,-3.9315,-3.905,-3.8241,-3.707,-3.6128,-3.5356,-3.4949,-3.5293,-3.5732,-3.6313,-3.7206,-3.7581,-3.8031,-3.8476,-3.7784,-3.7024,0.0,0.0,0.0,0.0,0.0,0.0,0.0,0.0,0.0,0.0,0.0,0.0,0.0,0.0,-4.1792,-4.1663,0.0,-4.5689,-4.6795,-4.8872,-5.0718,-5.1573,-5.2912,-5.3474,-5.2592,-5.2764,-5.3114,-5.3114,-5.3257,-5.3432,-5.3606,-5.3606,-5.3606,-5.3606,-5.3289,-5.3114,-5.3114,-5.2749,-5.2574,-5.2574,-5.2574,-5.2494,-5.232,-5.2129,-5.2049,-5.2049,-5.3183,-5.3439,-5.3629,-5.4526,-5.504,-5.5464,-5.5085,-5.4555,-5.4319,-5.4117,-5.3421,-5.2504,-5.2302,-5.1843,-5.122,0.0,0.0,0.0,0.0,0.0,0.0,0.0,-2.89,-2.9289,-2.8806,-3.0765,-3.1685,-3.0664,-3.1854,-3.2758,-3.2379,-3.1485,-3.1482,-3.2772,-3.2182,-3.2199,-3.334,-3.4511,-3.5875,-3.7492,-3.8144,-3.8736,-3.9279,-3.9738,-3.9991,-4.0063,-4.2144,-4.2101,-4.0679,-4.2561,-4.2126,-4.0281,-4.022,-4.032,-4.0308,-4.0038,-4.0032,-4.0221,-3.9323,-3.851,-3.784,-3.8803,-3.8924,-3.8611,-3.9514,-3.927,-3.8693,-3.9404,-3.8798,-3.8225,-3.9088,-3.9125,0.0,0.0,0.0,0.0,0.0,0.0,0.0,0.0,0.0,-4.1257,-4.1051,-4.3403,-4.5622,-4.5697,-4.7656,-4.9537,-5.0822,-5.2295,-5.3401,-5.2992,-5.438,-5.477,-5.3805,-5.3479,-5.3479,-5.3559,-5.3606,-5.3781,-5.4051,-5.4099,-5.4051,-5.3972,-5.3654,-5.3432,-5.3352,-5.3066,-5.2892,-5.2844,-5.2892,-5.2749,-5.2399,-5.2672,-5.264,-5.2832,-5.5091,-5.5909,-5.5666,-5.7195,-5.7345,-5.6685,-5.5878,-5.5071,-5.4338,-5.4338,-5.3641,-5.2632,-5.2559,-5.2284,-5.1788,0.0,0.0,0.0,0.0,0.0,0.0,0.0,0.0,-2.9477,-2.8687,-3.02,-3.0694,-2.9285,-3.0087,-3.1338,-3.2631,-3.1218,-3.1363,-3.4413,-3.276,-3.2859,-3.503,-3.6358,-3.7372,-3.8048,-3.905,-3.9834,-4.0377,-4.0643,-4.0933,-4.1162,-4.1463,-4.1499,-4.1234,-4.1499,-4.1365,-4.0836,-4.0607,-4.1386,-4.2959,-4.2687,-4.3452,-4.4733,-4.484,-4.2995,-4.073,-4.038,-4.1609,-4.2944,-4.3568,-4.3713,-4.3673,-4.381,-4.3273,-4.2437,-4.1343,-4.0474,-4.0061,-4.0122,-4.0216,-3.997,-3.8663,-3.9199,-3.9931,0.0,0.0,-4.2313,-4.2446,-4.4419,-4.6554,-4.7701,-4.9417,-5.1481,-5.3461,-5.3668,-5.4181,-5.5324,-5.4801,-5.4172,-5.4242,-5.4004,-5.3924,-5.4274,-5.4576,-5.4766,-5.4798,-5.4798,-5.4671,-5.4369,-5.4004,-5.3654,-5.3352,-5.3305,-5.3162,-5.2844,-5.3114,-5.3114,-5.2796,-5.407,-5.4387,-5.4075,-5.5563,-5.6444,-5.6876,-5.7056,-5.685,-5.6685,-5.5878,-5.5071,-5.4338,-5.4338,-5.3806,-5.2999,-5.265,-5.2284,-5.1862,0.0,0.0,0.0,0.0,0.0,0.0,0.0,0.0,0.0,-2.9539,-3.0685,-3.145,-3.0997,-3.1692,-3.2525,-3.2995,-3.1578,-3.184,-3.4733,-3.35,-3.3992,-3.6877,-3.7818,-3.8699,-3.9544,-4.0124,-4.1164,-4.2877,-4.1983,-4.2155,-4.3496,-4.366,-4.291,-4.179,-4.3003,-4.2501,-4.1138,-4.2229,-4.2925,-4.3317,-4.4689,-4.5393,-4.5608,-4.5762,-4.5079,-4.3818,-4.3248,-4.3144,0.0,-4.3891,-4.4082,-4.4169,-4.4169,-4.3671,-4.2749,-4.2097,-4.1013,-3.9822,-3.868,-3.8648,-3.8959,-3.8241,-3.9907,-4.1978,-4.2502,-4.4728,-4.668,-4.6833,-4.916,-5.16,-5.2497,-5.3924,-5.5318,0.0,-5.7231,-5.7057,-5.6143,-5.6225,-5.5603,-5.3773,-5.3527,-5.3877,-5.4623,-5.4846,-5.5116,-5.5513,-5.5338,-5.5164,-5.5021,-5.4496,-5.402,-5.3654,-5.3654,-5.3479,-5.3114,-5.3257,-5.3682,-5.4119,-5.442,-5.4971,-5.558,-5.6824,-5.7813,-5.8033,-5.7128,-5.663,-5.6373,-5.5768,-5.5071,-5.4338,-5.4338,-5.3842,-5.3091,-5.2925,-5.2614,-5.2192,0.0,0.0,0.0,0.0,0.0,0.0,0.0,0.0,0.0,0.0,-3.1172,-3.1903,-3.2237,-3.2825,-3.3079,-3.2825,-3.1993,-3.2407,-3.4528,-3.4286,-3.5182,-3.7794,-3.8724,-3.9931,-4.1807,-4.1377,-4.2526,-4.509,-4.3834,-4.3934,-4.5364,-4.5611,-4.4831,-4.3344,-4.4537,-4.4243,-4.2514,-4.4412,-4.528,-4.5275,-4.7035,-4.765,-4.7359,-4.6899,-4.6577,-4.6231,-4.5408,-4.4124,-4.314,-4.3795,-4.3915,-4.3786,-4.3996,-4.3632,-4.3106,-4.2737,-4.151,-4.0086,-3.8472,-3.8828,-3.9524,-3.9852,-4.2073,-4.4689,-4.6493,-4.8801,-5.077,-5.1292,-5.3939,-5.6123,-5.6817,-5.7854,-5.8737,-5.9506,-5.9948,-5.9345,-5.7513,-5.7101,-5.6112,-5.3281,-5.2704,-5.286,-5.3829,-5.4449,-5.5068,-5.5783,-5.5481,-5.5291,-5.5291,-5.4719,-5.4226,-5.3877,-5.3877,-5.3702,-5.3352,-5.3352,-5.3698,-5.4393,-5.4849,-5.5428,-5.6337,-5.7883,-5.8584,-5.8702,-5.7437,-5.6685,-5.6263,-5.5878,-5.5181,-5.4338,-5.4338,-5.3842,-5.3109,-5.3109,-5.287,-5.243,0.0,0.0,0.0,0.0,0.0,0.0,0.0,0.0,0.0,0.0,0.0,0.0,0.0,-3.2237,-3.2444,-3.2428,-3.251,-3.2988,-3.3598,-3.4806,-3.5961,-3.7275,-3.8893,-4.1287,-4.4568,-4.2935,-4.3468,-4.629,-4.6276,-4.6276,-4.6276,-4.6276,-4.6133,-4.5885,-4.5859,-4.5572,-4.5012,-4.6909,-4.8576,-4.9858,-4.9809,-5.0322,-5.1352,-4.9644,-4.8821,-4.8014,-4.5731,-4.4098,-4.3329,-4.3942,-4.3716,-4.3224,-4.3772,-4.4228,-4.431,-4.3626,-4.2532,-4.1451,-4.0927,-4.194,-4.356,-4.4525,-4.6002,-4.7793,-5.0116,-5.2076,-5.375,-5.5674,-5.7435,-5.8757,-5.9546,-6.0078,-6.0646,-6.1453,-6.062,-6.0118,-5.9878,-5.7125,-5.4478,-5.3438,-5.1475,-5.0588,0.0,-5.3209,-5.4719,-5.5386,-5.5148,-5.4941,-5.4941,-5.4592,-5.4226,-5.3877,-5.3877,-5.3702,-5.3352,-5.3352,-5.3178,-5.286,-5.5626,-5.6714,-5.6303,-5.8339,-5.9179,-5.9087,-5.7914,-5.7107,-5.6703,-5.6318,-5.542,-5.4338,-5.4338,-5.3842,-5.3109,-5.3109,-5.287,-5.2467,0.0,0.0,0.0,0.0,0.0,0.0,0.0,0.0,0.0,0.0,0.0,0.0,0.0,0.0,0.0,0.0,-3.2128,-3.25,-3.3916,-3.4442,-3.5304,-3.7104,-3.9907,-4.174,-4.1869,-4.361,-4.4908,-4.6316,-4.4911,-4.4911,-4.6316,-4.6316,-4.6276,-4.6172,-4.5964,-4.5677,-4.5299,-4.5657,-4.5914,-4.6095,-4.8509,-4.9713,-5.0135,-5.065,-4.9106,-4.7043,0.0,-4.4413,-4.2277,-4.1544,-4.1339,-4.1425,-4.1919,-4.2382,-4.2662,-4.1796,-4.2487,-4.3215,-4.1012,-4.3146,-4.6181,-4.6286,-4.8733,-5.1577,-5.3964,-5.5788,-5.7456,-5.8165,-5.8224,-5.828,-5.8537,-5.8702,-5.9142,-6.0206,-6.0912,-6.0889,-5.9069,-5.8033,-5.6017,-5.2464,-5.1572,0.0,0.0,0.0,0.0,-5.4623,-5.4846,-5.4941,-5.4941,-5.4798,-5.4496,-5.3877,-5.4099,-5.4484,-5.4656,-5.4656,-5.5512,-5.6902,-5.843,-5.9416,-5.947,-5.9438,-5.9711,-5.9876,-5.8134,-5.7272,-5.7107,-5.6153,-5.5181,-5.4338,-5.4594,-5.4062,-5.3146,-5.3421,-5.3274,-5.2852,0.0,0.0,0.0,0.0,0.0,0.0,0.0,0.0,0.0,0.0,0.0,0.0,0.0,0.0,0.0,0.0,0.0,-3.2674,-3.3903,-3.4088,-3.507,-3.7224,-3.9746,-4.1221,-4.1825,-4.3233,-4.4853,-4.6398,-4.4279,-4.4112,-4.6213,-4.5473,-4.5299,-4.5403,-4.5325,-4.5051,-4.4673,-4.5126,-4.5225,-4.5091,-4.7078,-4.82,-4.8369,-4.8374,-4.7089,0.0,-4.462,-4.3252,-4.1611,-4.0631,-4.0456,-4.0683,-4.0771,-4.1002,-4.1383,-4.1367,-4.2913,-4.4617,-4.3739,-4.6268,-4.9418,-4.9839,-5.2391,-5.5175,-5.6776,-5.8329,-5.9142,-5.8977,-5.8079,-5.7217,-5.6942,-5.652,-5.674,-5.8225,-5.9234,-5.9482,-5.9066,-5.7953,-5.6056,-5.258,-5.1498,-5.0492,0.0,0.0,0.0,-5.3702,-5.4581,-5.4917,-5.4893,-5.5479,-5.527,-5.4274,-5.4869,-5.5174,-5.5634,-5.602,-5.7057,-5.8948,-5.9576,-6.0093,-6.0939,-5.9986,-5.9876,-6.0298,-5.8555,-5.7639,-5.7327,-5.652,-5.5548,-5.4558,-5.4814,-5.4283,-5.3384,-5.3641,-5.3476,-5.3054,0.0,0.0,0.0,0.0,0.0,0.0,0.0,0.0,0.0,0.0,0.0,0.0,0.0,0.0,0.0,0.0,0.0,0.0,-3.3551,-3.3903,-3.5087,-3.7486,-3.8113,-4.011,-4.3701,-4.2302,-4.3116,-4.6206,-4.4302,-4.4186,-4.5748,-4.4205,-4.3705,-4.4021,-4.4299,-4.4127,-4.3559,-4.5656,-4.6599,-4.6774,-4.5712,-4.596,-4.6298,-4.401,-4.3121,-4.3128,-4.1426,-4.0898,-4.1024,-4.106,-4.106,-4.0987,-4.062,-4.0529,-4.0877,-4.2491,-4.3903,-4.5645,-4.8799,-5.1183,-5.3256,-5.5028,-5.6887,-5.8225,-5.9014,-5.9142,-5.8977,-5.8445,-5.7015,-5.5621,0.0,0.0,-5.3659,-5.5731,-5.5933,-5.6923,-6.0059,-5.7351,-5.5058,0.0,0.0,0.0,0.0,0.0,0.0,-5.2863,0.0,-5.4982,-5.5114,-5.6268,-5.6251,-5.4957,-5.5942,-5.6376,-5.6259,-5.7157,-5.8047,-5.92,-5.879,-5.9308,-6.0939,-5.9766,-5.9656,-6.0353,-5.9087,-5.8079,-5.7382,-5.7327,-5.6373,-5.4924,-5.4924,-5.4448,-5.3751,-5.3751,-5.3476,-5.3054,0.0,0.0,0.0,0.0,0.0,0.0,0.0,0.0,0.0,0.0,0.0,0.0,0.0,0.0,0.0,0.0,0.0,0.0,-3.2692,-3.3874,-3.4636,-3.4784,-3.8671,-4.0378,-3.9127,-4.1731,-4.278,-4.2158,-4.1702,-4.1906,-4.2683,-4.418,-4.4995,-4.5578,-4.5878,-4.5803,-4.5382,-4.3694,-4.2774,-4.2494,-4.279,-4.3043,-4.3475,-4.4374,-4.4132,-4.3269,-4.3289,-4.2152,-4.0657,-4.095,-4.106,-4.1042,-4.0241,-4.0808,-4.2142,-4.3738,-4.636,-4.8982,-5.0148,-5.3215,-5.6233,-5.6704,-5.7833,-5.8922,-5.9124,-5.8702,-5.7639,-5.5438,-5.3439,-5.1587,-4.9845,0.0,0.0,-5.4448,-5.7253,0.0,-6.062,-6.0358,0.0,-5.693,0.0,-5.4899,-5.3956,-5.2822,0.0,0.0,-5.4469,-5.5258,-5.6421,-5.5941,-5.6102,-5.6928,-5.6819,-5.7253,-5.7937,-5.829,-5.9307,-6.0457,-6.0075,-6.0342,-6.0939,-6.0041,-5.9931,-6.0298,-5.8757,-5.7859,-5.7327,-5.674,-5.5841,-5.4961,-5.5291,-5.4704,-5.3787,-5.4062,-5.3751,-5.3091,0.0,0.0,0.0,0.0,0.0,0.0,0.0,0.0,0.0,0.0,0.0,0.0,0.0,0.0,0.0,0.0,0.0,0.0,0.0,-3.3762,-3.4454,-3.5272,-3.8136,-3.9177,-3.7629,-4.017,-4.1343,-4.1014,-3.9964,-4.0406,-4.1828,-4.2477,-4.294,-4.3293,-4.36,-4.3554,-4.3216,-4.1368,-4.0699,0.0,0.0,-4.087,-4.1879,-4.2539,-4.2622,-4.23,-4.2736,-4.1996,-4.0947,-4.0815,-4.1305,-4.1768,-4.1405,-4.2353,-4.4064,-4.6754,-4.8999,-5.0831,-5.2244,-5.4963,-5.7412,-5.7472,-5.7806,-5.8159,-5.7585,-5.6942,-5.5456,-5.2284,-5.0285,-4.8561,-4.6709,-4.7736,-4.9716,0.0,0.0,0.0,-6.0821,-6.129,-6.0727,0.0,-5.8249,0.0,-5.6159,-5.479,-5.4854,0.0,-5.5476,-5.5336,-5.6938,-5.7098,-5.7378,-5.7829,-5.802,-5.8599,-5.9383,-5.9198,-5.9991,-6.1251,-6.0664,-6.0609,-6.0994,-6.0353,-6.0243,-6.0573,0.0,-5.8445,-5.7859,-5.7015,-5.6208,-5.5456,-5.5346,-5.4869,-5.4228,-5.4117,-5.3787,-5.3366,0.0,0.0,0.0,0.0,0.0,0.0,0.0,0.0,0.0,0.0,0.0,0.0,0.0,0.0,0.0,0.0,0.0,0.0,0.0,0.0,-3.4659,-3.6656,-3.702,-3.7276,-3.7612,-3.8094,-3.9104,-4.0649,-3.9066,-3.9484,-4.1851,-4.0279,-3.9662,-3.9996,-4.0106,-4.0091,-4.0011,-3.9441,-3.9799,-4.0384,-3.8843,-3.9379,-4.0895,0.0,-4.0363,-4.0987,-4.0987,-4.117,-4.1323,-4.0797,-4.1832,-4.3321,-4.3306,-4.4604,-4.6786,-5.0335,-5.1766,-5.2592,-5.4958,-5.6518,-5.7686,-5.7795,-5.7757,-5.6984,-5.5722,-5.4649,-5.287,-4.9129,-4.7424,-4.6122,-4.4435,-4.5333,-4.7314,-5.0303,0.0,-5.674,-6.1251,-6.1306,-6.0784,-6.0829,-5.9971,-5.8682,-5.7326,-5.6754,-5.7422,-5.9728,-5.6869,-5.5695,-5.7637,-5.8824,-5.9145,-5.8348,-5.9128,-6.0181,-6.0963,-5.9941,-6.0296,-6.1581,-6.0774,-6.0573,-6.0884,-6.0554,-6.0518,-6.0719,-5.9986,0.0,-5.8372,-5.7602,-5.685,-5.6098,-5.5291,-5.4979,-5.4814,-5.4172,-5.3842,-5.3696,0.0,0.0,0.0,0.0,0.0,0.0,0.0,0.0,0.0,0.0,-3.0283,-3.0315,0.0,0.0,0.0,0.0,0.0,0.0,0.0,0.0,0.0,-3.5112,-3.5519,-3.6112,-3.6817,-3.7062,-3.7557,-3.8522,-3.8852,-3.9533,-4.0368,-4.0664,-4.1002,-4.139,-4.1779,-4.192,-4.1796,-4.109,-4.0841,-4.0922,-3.9964,-3.9848,-4.0198,-4.0363,0.0,0.0,-4.0565,-4.04,-4.0268,-4.0946,-4.2988,-4.5118,-4.4004,-4.6816,-5.0635,-5.2208,-5.4219,-5.6074,-5.6671,-5.8267,-5.9693,-5.8505,-5.8231,-5.7749,-5.5163,-5.3146,-5.0615,-4.6287,-4.4728,-4.3518,-4.1555,-4.3554,-4.6764,-5.0578,-5.4136,-5.8115,-6.2902,-6.3489,-6.3562,0.0,-6.3447,-6.284,-6.2749,-6.1366,0.0,0.0,0.0,-5.8052,-6.1393,-5.9651,-5.8757,-5.9295,-5.9495,-6.0675,-6.2534,-6.0471,-6.0296,-6.1581,-6.0774,-6.0444,-6.0499,-6.0444,-6.0078,-5.9491,-5.9344,0.0,-5.7547,-5.707,-5.6593,-5.6116,-5.5621,-5.5236,-5.4924,-5.4759,-5.4283,-5.3732,0.0,0.0,0.0,0.0,0.0,0.0,0.0,-2.8916,-2.9488,-3.1443,-3.1697,-3.1411,-3.068,-3.0108,0.0,0.0,0.0,0.0,0.0,0.0,0.0,0.0,-3.6052,-3.6729,-3.7102,-3.7283,-3.7656,-3.8346,0.0,-3.9667,-4.0473,-4.0877,-4.117,-4.1372,-4.1555,-4.1647,-4.161,-4.1005,-4.0749,-4.0694,-4.0088,-3.9978,-4.0198,-4.04,0.0,0.0,-4.0767,-4.0785,-4.0983,-4.1559,-4.4685,-4.7835,-4.6475,-4.8789,-5.2462,-5.4638,-5.5631,-5.617,-5.7226,-5.838,-5.9165,-5.7857,-5.6891,-5.5301,-5.2946,-5.056,-4.7644,-4.3628,-4.2674,-4.2124,-4.073,-4.2931,-4.5883,-4.8671,-5.1642,-5.5511,-6.1031,-6.1783,-6.259,-6.4662,-6.4754,-6.4552,-6.4332,-6.2631,-6.2014,0.0,0.0,-6.0434,-6.1352,-6.004,-5.96,-6.0812,-5.9806,-6.0202,-6.1723,-6.0197,-6.0296,-6.1581,-6.0774,-6.0408,-6.0408,-6.0609,-6.0408,-5.9821,-5.9601,0.0,-5.8225,-5.7437,-5.685,-5.6428,-5.5768,-5.5438,-5.5181,-5.4759,-5.4503,-5.4283,0.0,0.0,0.0,0.0,0.0,0.0,0.0,-2.9933,-3.0601,-3.3286,-3.3492,-3.2888,-3.157,-3.0553,-2.9997,0.0,0.0,0.0,0.0,0.0,0.0,0.0,0.0,0.0,-3.7249,0.0,0.0,-3.864,-3.9135,0.0,0.0,0.0,0.0,0.0,-4.106,-4.106,-4.1024,-4.0639,-4.0529,0.0,0.0,-4.0217,0.0,0.0,0.0,0.0,0.0,-4.1225,-4.1531,-4.2136,-4.537,-4.8723,-4.767,-5.0242,-5.4128,-5.6276,-5.621,-5.5807,-5.692,-5.7884,-5.8271,-5.7002,-5.5217,-5.321,-5.1229,-4.8396,-4.5242,-4.1776,-4.1317,-4.1335,-4.0602,-4.2491,-4.4746,-4.6544,-4.8873,-5.254,-5.8555,-5.9766,-6.1306,-6.4772,-6.5286,0.0,-6.5029,-6.3526,0.0,0.0,0.0,0.0,-6.0953,-6.0866,-6.0927,-6.1856,-6.0411,-6.0027,-6.1223,-6.0543,-6.064,-6.1581,-6.0884,-6.0499,-6.0408,-6.0829,-6.0719,-6.0243,-5.9931,0.0,0.0,-5.7859,-5.7162,-5.6795,-5.5988,-5.5658,-5.5603,-5.4869,-5.4759,-5.4814,0.0,0.0,0.0,0.0,0.0,0.0,0.0,-3.0553,-3.1951,-3.5367,-3.5256,-3.443,-3.3365,-3.2571,-3.1395,0.0,0.0,0.0,0.0,0.0,0.0,0.0,0.0,0.0,0.0,0.0,0.0,-3.864,-3.941,0.0,0.0,0.0,0.0,0.0,0.0,-4.106,-4.1024,-4.0639,0.0,0.0,0.0,0.0,0.0,0.0,0.0,0.0,0.0,-4.0859,-4.0819,-4.2242,-4.3916,-4.527,-4.5375,-5.0604,-5.6576,-5.5623,-5.6123,-5.6714,-5.6474,-5.7674,-5.8554,-5.671,-5.5499,-5.4023,-5.1367,-4.7956,-4.4581,-4.1666,-4.1097,-4.0987,-4.0547,-4.1574,-4.3261,-4.5627,-4.8029,-5.1605,-5.7327,-5.9711,-6.1948,-6.4864,-6.5506,-6.5873,-6.6203,-6.562,0.0,0.0,0.0,0.0,-6.2704,-6.2386,-6.1997,-6.1856,-6.1185,-6.1616,-6.2534,-6.2114,-6.1712,-6.1581,-6.1141,-6.0719,-6.0408,-6.0829,-6.0573,-5.9821,-5.9784,0.0,0.0,-5.7749,-5.7382,-5.7217,-5.6428,-5.6098,-5.6043,-5.5603,-5.5236,-5.4869,0.0,0.0,0.0,0.0,0.0,0.0,-3.0156,-3.0044,-3.1315,-3.6098,-3.6114,-3.5605,-3.5383,-3.4731,-3.2968,0.0,0.0,0.0,0.0,0.0,0.0,0.0,0.0,0.0,0.0,0.0,-3.724,-3.8273,-3.9318,0.0,0.0,0.0,0.0,0.0,0.0,-4.106,-4.1042,-4.0895,0.0,0.0,0.0,0.0,0.0,0.0,0.0,0.0,0.0,0.0,-4.0987,-4.1586,-4.3269,-4.4891,-4.4088,-4.7509,-5.2003,-5.368,-5.4368,-5.4926,-5.6611,-5.7971,-5.866,-5.695,-5.5153,-5.2999,-5.1147,-4.7149,-4.3316,-4.1445,-4.106,-4.1005,-4.0859,-4.1225,-4.2014,-4.3481,-4.3921,-4.5883,-5.1055,-5.2907,-5.5676,-6.0939,-6.2792,0.0,0.0,0.0,0.0,0.0,0.0,0.0,-6.4408,-6.3208,-6.253,-6.3195,-6.2778,-6.2658,-6.2792,-6.2425,-6.2003,-6.1581,-6.1196,-6.0774,-6.0408,-6.0554,-6.0298,-5.9766,-5.9509,0.0,0.0,-5.7969,-5.7583,-5.7327,-5.7015,-5.6593,-5.6153,-5.5988,-5.5658,-5.5181,0.0,0.0,0.0,0.0,0.0,-2.6756,-3.0044,-3.0076,-3.1379,-3.605,-3.6431,-3.6304,-3.6431,-3.5462,-3.3572,-3.0489,0.0,0.0,0.0,0.0,0.0,0.0,0.0,0.0,0.0,0.0,-3.7436,-3.8365,-3.9355,-3.9905,0.0,0.0,-4.106,-4.106,0.0,0.0,0.0,0.0,0.0,0.0,0.0,0.0,0.0,0.0,0.0,0.0,0.0,0.0,0.0,0.0,0.0,-4.3848,-4.2692,-4.4285,-4.7178,-5.1403,-5.2459,-5.308,-5.5642,-5.7543,-5.8277,-5.7036,-5.4599,-5.2357,-5.1018,-4.6745,-4.2674,-4.1335,-4.106,-4.106,-4.106,-4.106,-4.1244,-4.1831,-4.15,-4.2747,-4.724,-4.8781,-5.1697,-5.7749,0.0,0.0,0.0,0.0,0.0,0.0,0.0,0.0,-6.5194,-6.3743,-6.3346,-6.4002,-6.3489,-6.3067,-6.2792,-6.2425,-6.2003,-6.1581,-6.1196,-6.0774,-6.0408,-6.0298,-6.0133,-5.9931,-5.9289,0.0,0.0,-5.817,-5.7804,-5.7528,-5.7272,-5.685,-5.6318,-5.6061,-5.5768,-5.5438,0.0,0.0,0.0,0.0,0.0,0.0,-2.9409,-3.0998,-3.2777,-3.5272,-3.6177,-3.6463,-3.6145,-3.4239,-3.2825,-3.2412,0.0,0.0,0.0,0.0,0.0,0.0,0.0,0.0,0.0,0.0,-3.7042,-3.9226,-3.963,-4.0052,-4.0473,-4.0877,-4.106,-4.106,0.0,0.0,0.0,0.0,0.0,0.0,0.0,0.0,0.0,0.0,0.0,0.0,0.0,0.0,0.0,0.0,0.0,0.0,0.0,-4.1666,-4.3389,-4.8653,-5.0411,-5.1002,-5.3423,-5.5523,-5.7296,-5.6526,-5.4798,-5.2687,-5.1092,-4.6965,-4.3023,-4.139,-4.106,-4.106,-4.106,-4.106,-4.106,-4.1079,-4.2069,-4.4123,-4.7809,-4.9698,-5.221,0.0,0.0,0.0,0.0,0.0,0.0,0.0,0.0,0.0,-6.5194,-6.4809,-6.4442,-6.402,-6.3213,-6.2792,-6.2792,-6.2425,-6.2003,-6.1581,-6.1196,-6.0774,-6.0408,-5.9986,-5.9986,-6.0353,0.0,0.0,0.0,-5.828,-5.7969,-5.7859,-5.707,-5.674,-5.6648,-5.5823,-5.5548,-5.5493,0.0,0.0,0.0,0.0,0.0,0.0,0.0,-2.8201,-2.9472,-3.2666,-3.3047,-3.354,-3.4874,-3.3349,-3.2205,-3.2078,-3.1331,0.0,0.0,0.0,0.0,0.0,0.0,0.0,0.0,0.0,-3.6178,-3.7042,-3.8311,-3.905,-3.9228,-4.0289,-4.0804,-4.106,-4.106,0.0,0.0,0.0,0.0,0.0,0.0,0.0,0.0,0.0,0.0,0.0,0.0,0.0,0.0,0.0,0.0,0.0,0.0,0.0,0.0,-4.4783,-4.7119,-4.9176,-5.0825,-5.262,-5.3805,-5.2219,-5.0867,-4.9533,-4.8487,-4.5352,-4.2362,-4.128,-4.106,-4.106,-4.106,-4.106,-4.1427,-4.2546,-4.2803,-4.3554,-4.5553,-4.8414,0.0,-5.5511,-6.0829,0.0,0.0,0.0,0.0,0.0,0.0,0.0,-6.4827,-6.4387,-6.413,-6.402,-6.3489,-6.3067,-6.2792,-6.2682,-6.226,-6.1581,-6.1471,-6.105,-6.0408,-6.0243,-6.0133,0.0,0.0,0.0,0.0,-5.8189,-5.7969,-5.7914,-5.7382,-5.7015,-5.6685,-5.6153,-5.5768,-5.5493,0.0,0.0,0.0,0.0,0.0,0.0,0.0,-2.6978,-2.8043,-3.0235,-3.068,-3.1538,-3.3508,-3.1935,-3.1045,-3.1856,-3.1141,0.0,0.0,0.0,0.0,0.0,0.0,0.0,0.0,-3.5004,-3.5755,-3.6696,-3.8653,-3.9558,-3.9635,-4.1069,-4.1574,-4.1519,-4.1372,-4.1207,0.0,0.0,0.0,0.0,0.0,0.0,-4.106,0.0,0.0,0.0,0.0,0.0,0.0,0.0,0.0,0.0,0.0,0.0,0.0,0.0,-4.4647,-4.668,-4.8312,-5.0091,-5.1286,-5.0255,-4.8927,-4.7846,-4.7057,-4.449,-4.2051,-4.1225,-4.106,-4.106,-4.106,-4.106,-4.139,-4.2417,-4.2344,-4.2821,-4.4655,0.0,0.0,-5.5475,0.0,0.0,0.0,0.0,0.0,0.0,0.0,0.0,-6.4644,-6.4222,-6.3965,-6.38,-6.3379,-6.3067,-6.2792,-6.2645,-6.226,-6.1581,-6.1416,-6.1031,-6.0408,-6.0243,-6.0096,0.0,0.0,0.0,0.0,-5.8189,-5.7969,-5.7914,-5.7382,-5.696,-5.6685,-5.6153,-5.5768,-5.5493,0.0,0.0,0.0,0.0,0.0,0.0,0.0,0.0,-2.8043,-2.8074,-2.8964,-3.0219,-3.1856,-3.006,-2.952,-3.149,0.0,0.0,0.0,0.0,0.0,0.0,0.0,0.0,-3.4062,-3.4615,-3.5646,-3.7335,-3.9706,-4.0854,-4.1178,-4.2637,-4.2968,-4.2252,-4.1867,-4.1445,0.0,0.0,0.0,0.0,-4.106,-4.106,0.0,0.0,0.0,0.0,0.0,0.0,0.0,0.0,0.0,0.0,0.0,0.0,0.0,0.0,0.0,0.0,0.0,-4.8012,-4.9442,-4.9319,-4.8447,-4.7149,-4.636,-4.4141,0.0,-4.1225,-4.106,-4.106,-4.106,-4.106,-4.1097,-4.1207,-4.1207,-4.2161,-4.4985,-4.7406,0.0,0.0,0.0,0.0,0.0,0.0,0.0,0.0,0.0,0.0,-6.4607,-6.4222,-6.38,-6.3342,-6.2957,-6.2737,-6.2737,-6.237,-6.1948,-6.1526,-6.116,-6.0774,-6.0408,-5.9986,-6.0023,0.0,0.0,0.0,0.0,-5.828,-5.7969,-5.7859,-5.707,-5.674,-5.6648,-5.5823,-5.5548,-5.5548,0.0,0.0,0.0,0.0,0.0,0.0,0.0,0.0,0.0,0.0,-2.7089,-2.7677,-2.8344,-2.8376,-2.8551,0.0,0.0,0.0,0.0,0.0,0.0,0.0,0.0,0.0,-3.3259,-3.4066,-3.4501,-3.4925,-3.7024,-3.8653,-3.9512,-4.0472,-4.1467,-4.2252,-4.1867,-4.1445,0.0,0.0,0.0,0.0,-4.106,-4.106,0.0,0.0,0.0,0.0,-4.106,-4.106,0.0,0.0,0.0,0.0,0.0,0.0,0.0,0.0,-4.1482,-4.1886,-4.2705,0.0,-4.5688,-4.447,-4.4088,-4.3866,0.0,-4.2527,-4.1684,0.0,0.0,0.0,-4.106,-4.106,-4.1464,-4.2729,-4.2656,-4.3316,-4.5847,0.0,0.0,0.0,0.0,0.0,0.0,0.0,0.0,0.0,0.0,0.0,-6.4185,-6.4075,-6.369,-6.2957,-6.2535,-6.237,-6.237,-6.1948,-6.1526,-6.1141,-6.105,-6.0774,-6.0408,-6.0298,-6.0133,0.0,0.0,0.0,-5.8665,-5.817,-5.7969,-5.7859,-5.707,-5.674,-5.6648,-5.5823,-5.5548,-5.5548,0.0,0.0,0.0,0.0,0.0,0.0,0.0,0.0,0.0,0.0,0.0,0.0,0.0,0.0,0.0,0.0,0.0,0.0,0.0,0.0,0.0,0.0,0.0,-3.1999,-3.2698,-3.3265,-3.3842,-3.4477,-3.6765,-3.8478,-3.9819,-4.0895,-4.1804,-4.2509,-4.1739,-4.117,0.0,0.0,0.0,0.0,-4.106,0.0,0.0,0.0,0.0,0.0,-4.106,-4.106,0.0,-4.106,-4.106,-4.106,0.0,0.0,0.0,0.0,-4.106,-4.1115,-4.1335,-4.2472,-4.3408,-4.2729,-4.2564,-4.2546,-4.2326,-4.1831,-4.1335,0.0,0.0,0.0,0.0,-4.106,-4.1409,-4.2491,-4.2619,-4.4031,0.0,0.0,0.0,0.0,0.0,0.0,0.0,0.0,0.0,0.0,0.0,-6.4662,-6.4057,-6.38,-6.3434,-6.2792,-6.2223,-6.2003,-6.2205,-6.1783,-6.1361,-6.0994,-6.0994,-6.0774,-6.0408,-6.0188,-5.9986,0.0,0.0,0.0,-5.8555,-5.8134,-5.7749,-5.7382,-5.6905,-5.6538,-5.6098,-5.5493,-5.5383,-5.5493,0.0,0.0,0.0,0.0,0.0,0.0,0.0,0.0,0.0,0.0,0.0,0.0,0.0,0.0,0.0,0.0,0.0,0.0,0.0,0.0,0.0,0.0,0.0,-3.1713,-3.2396,-3.2504,-3.3318,-3.4874,-3.7416,-3.93,-4.0731,-4.221,-4.2919,-4.2821,-4.1721,-4.0987,0.0,0.0,0.0,0.0,-4.106,0.0,0.0,0.0,0.0,0.0,0.0,0.0,0.0,-4.106,-4.106,-4.106,-4.106,0.0,0.0,0.0,0.0,0.0,-4.128,-4.1922,-4.2564,-4.2582,-4.2381,-4.2179,-4.2106,-4.1555,-4.106,0.0,0.0,0.0,0.0,-4.1115,0.0,0.0,0.0,0.0,0.0,0.0,0.0,0.0,0.0,0.0,0.0,0.0,0.0,0.0,0.0,-6.4387,-6.402,-6.3544,-6.3122,-6.2737,-6.1893,-6.1673,-6.2003,-6.1618,-6.1251,-6.0884,-6.0829,-6.0628,-6.0298,-5.9876,-5.9656,-5.9564,0.0,0.0,-5.839,-5.7969,-5.7327,-5.6648,-5.6538,-5.6043,-5.5401,-5.5071,-5.5126,-5.5401,0.0,0.0,0.0,0.0,0.0,0.0,0.0,0.0,0.0,0.0,0.0,0.0,0.0,0.0,0.0,0.0,0.0,0.0,0.0,0.0,0.0,-3.1363,-3.1395,-3.1713,-3.2396,-3.2504,-3.3074,-3.4175,-3.7031,-3.9148,-4.0782,-4.2785,-4.3451,-4.2839,-4.2326,-4.1666,-4.0969,0.0,0.0,-4.106,-4.106,0.0,0.0,0.0,0.0,0.0,0.0,0.0,0.0,-4.106,-4.106,-4.106,-4.106,0.0,0.0,0.0,0.0,0.0,-4.2307,-4.3188,-4.3408,-4.1757,-4.1555,-4.1684,-4.1335,0.0,-4.106,-4.106,0.0,0.0,0.0,-4.1409,0.0,0.0,0.0,0.0,0.0,0.0,0.0,0.0,0.0,0.0,0.0,0.0,0.0,0.0,0.0,0.0,-6.402,-6.3287,-6.27,-6.2315,-6.1508,-6.1105,-6.1196,-6.0774,-6.0554,-6.0499,-6.0133,-5.9931,-5.9876,-5.9454,-5.9087,-5.8757,0.0,-5.817,-5.7528,-5.7107,-5.6648,-5.6171,-5.5456,-5.5126,-5.5016,-5.4924,-5.4961,-5.5071,0.0,0.0,0.0,0.0,0.0,0.0,0.0,0.0,0.0,0.0,0.0,0.0,0.0,0.0,0.0,0.0,0.0,0.0,0.0,0.0,-3.0886,-3.2189,-3.1872,-3.1903,-3.2396,-3.2793,-3.3788,-3.5415,-3.8401,-4.0989,-4.2881,-4.4115,-4.3942,-4.2527,-4.1904,-4.1299,-4.0749,-4.0969,-4.106,-4.106,0.0,0.0,0.0,0.0,0.0,0.0,0.0,0.0,0.0,0.0,-4.106,-4.106,-4.106,0.0,0.0,0.0,0.0,0.0,-4.1739,-4.2326,-4.2564,-4.1629,-4.2197,-4.2711,0.0,0.0,0.0,0.0,0.0,0.0,0.0,0.0,0.0,0.0,0.0,0.0,0.0,0.0,0.0,0.0,0.0,0.0,0.0,0.0,0.0,0.0,0.0,0.0,-6.3654,-6.27,-6.2168,-6.2205,-6.1416,-6.0994,-6.0994,-6.0609,-6.0408,-6.0408,-5.9986,-5.9766,-5.9766,-5.9142,-5.8757,-5.8592,0.0,-5.7694,-5.7327,-5.6905,-5.6373,-5.5768,-5.5401,-5.4979,-5.4649,-5.4869,-5.4924,-5.4979,0.0,0.0,0.0,0.0,0.0,0.0,0.0,0.0,0.0,0.0,0.0,0.0,0.0,0.0,0.0,0.0,0.0,0.0,0.0,0.0,-3.0966,-3.2396,-3.2348,-3.2555,-3.3143,-3.3699,-3.5205,-3.7756,-4.0663,-4.3399,-4.5665,-4.5598,-4.4545,-4.2656,-4.1757,-4.1079,-4.062,-4.0932,-4.106,-4.106,0.0,0.0,0.0,0.0,0.0,0.0,0.0,0.0,0.0,0.0,0.0,0.0,0.0,0.0,0.0,-4.106,-4.106,-4.1115,-4.1409,-4.1794,-4.2087,-4.1996,0.0,0.0,0.0,0.0,0.0,0.0,0.0,0.0,0.0,0.0,0.0,0.0,0.0,0.0,0.0,0.0,0.0,0.0,0.0,0.0,0.0,0.0,0.0,0.0,0.0,0.0,-6.3232,-6.2113,-6.1581,-6.1893,-6.1215,-6.0829,-6.0829,-6.0554,-6.0408,-6.0408,-5.9986,-5.9711,-5.9619,-5.8922,-5.8482,-5.828,-5.7639,-5.7272,-5.7052,-5.6538,-5.5896,-5.5236,-5.5071,-5.4649,-5.4228,-5.4649,-5.4869,-5.4961,0.0,0.0,0.0,0.0,0.0,0.0,0.0,0.0,0.0,0.0,0.0,0.0,0.0,0.0,0.0,0.0,0.0,0.0,0.0,0.0,-3.0521,-3.0998,-3.2523,-3.3985,-3.5319,-3.5399,-3.7144,-4.0941,-4.3692,-4.6434,-4.9129,-4.7332,-4.5517,-4.3903,-4.2711,-4.1757,-4.1024,-4.1042,-4.106,-4.106,-4.106,0.0,0.0,0.0,0.0,0.0,0.0,0.0,0.0,0.0,0.0,0.0,0.0,0.0,-4.106,-4.106,-4.106,-4.1299,-4.2436,-4.3041,-4.3279,-4.2876,-4.2014,0.0,-4.3518,-4.3609,0.0,-4.4765,0.0,0.0,0.0,0.0,0.0,0.0,0.0,0.0,0.0,0.0,0.0,0.0,0.0,0.0,0.0,0.0,0.0,0.0,0.0,0.0,-6.2792,-6.1691,-6.105,-6.1086,-6.0664,-6.0444,-6.0444,-6.0408,-6.0408,-6.0408,-5.9986,-5.9564,-5.9234,-5.8757,-5.817,-5.7473,-5.7382,-5.696,-5.6208,-5.5401,-5.4814,-5.4338,-5.3586,-5.3494,-5.3842,-5.4228,-5.4594,-5.4924,0.0,0.0,0.0,0.0,0.0,0.0,0.0,0.0,0.0,0.0,0.0,0.0,0.0,0.0,0.0,0.0,0.0,0.0,0.0,-2.9949,-3.0553,-3.1776,-3.2682,-3.381,-3.5208,-3.7178,-4.0062,-4.4206,-4.7736,-4.9565,-4.9845,-4.7552,-4.5352,-4.3279,-4.2069,-4.1354,-4.106,-4.106,-4.106,-4.106,-4.106,-4.106,0.0,0.0,0.0,0.0,0.0,0.0,0.0,0.0,-4.106,-4.106,-4.106,-4.106,-4.106,-4.106,-4.106,-4.1152,-4.161,-4.2051,-4.2326,-4.2179,-4.1977,0.0,0.0,-4.4911,-4.5553,-4.6269,0.0,0.0,0.0,0.0,0.0,0.0,0.0,0.0,0.0,0.0,0.0,0.0,0.0,0.0,0.0,0.0,0.0,0.0,0.0,0.0,-6.2058,-6.1141,-6.0719,-6.0994,-6.0609,-6.0408,-6.0408,-6.0408,-6.0243,-5.9986,-5.9601,-5.9344,-5.9142,-5.8225,-5.7657,-5.7327,-5.685,-5.6428,-5.6098,-5.5254,-5.4814,-5.4594,-5.3806,-5.3586,-5.3751,-5.3897,-5.4374,-5.4924,0.0,0.0,0.0,0.0,0.0,0.0,0.0,0.0,0.0,0.0,0.0,0.0,0.0,0.0,0.0,0.0,0.0,0.0,-2.9615,-2.9758,-3.0394,-3.1697,-3.2523,-3.388,-3.5681,-3.9143,-4.2504,-4.5977,-5.0232,-5.1243,-4.9313,-4.713,-4.5077,-4.3188,-4.1721,-4.128,-4.161,-4.1225,-4.106,-4.106,-4.106,-4.106,0.0,0.0,0.0,0.0,0.0,0.0,0.0,0.0,-4.106,-4.106,-4.106,-4.106,-4.106,-4.106,-4.106,-4.106,-4.106,-4.117,-4.1335,0.0,0.0,0.0,-4.5443,-4.6855,-4.8011,-4.9313,0.0,0.0,0.0,0.0,0.0,0.0,0.0,0.0,0.0,0.0,0.0,0.0,0.0,0.0,0.0,0.0,0.0,0.0,0.0,0.0,0.0,-6.0774,-6.0518,-6.0774,-6.0554,-6.0353,-6.0188,-6.0188,-5.9986,-5.9564,-5.9179,-5.9014,-5.8977,-5.8005,-5.7382,-5.696,-5.6263,-5.5823,-5.5511,-5.4814,-5.4484,-5.4283,-5.3751,-5.3641,-5.3751,-5.3897,-5.4338,-5.4924,0.0,0.0,0.0,0.0,0.0,0.0,0.0,0.0,0.0,0.0,0.0,0.0,0.0,0.0,0.0,0.0,0.0,0.0,-2.9266,-2.9615,-2.9965,-3.0299,-3.1999,-3.4419,-3.7392,-4.1199,-4.406,-4.6264,-5.0846,-5.122,-4.7626,-4.603,-4.4838,-4.3958,-4.1959,-4.1739,-4.2766,-4.1574,-4.106,-4.106,-4.106,-4.106,-4.106,0.0,0.0,0.0,0.0,0.0,0.0,0.0,-4.106,-4.106,-4.106,-4.106,-4.106,-4.106,-4.106,-4.106,-4.106,-4.0767,0.0,0.0,0.0,0.0,-4.7937,-4.9569,-5.1055,-5.4283,0.0,0.0,0.0,0.0,0.0,0.0,0.0,0.0,0.0,0.0,0.0,0.0,0.0,0.0,0.0,0.0,0.0,0.0,0.0,0.0,0.0,-6.0609,-6.0408,-6.0408,-6.0408,-6.0188,-5.9766,-5.9766,-5.9564,-5.9179,-5.8757,-5.8592,-5.8592,-5.8134,-5.7272,-5.6116,-5.5713,-5.5071,-5.4283,-5.3897,-5.3476,-5.3109,-5.3109,-5.3366,-5.3787,-5.4172,-5.4558,-5.4869,0.0,0.0,0.0,0.0,0.0,0.0,0.0,0.0,0.0,0.0,0.0,0.0,0.0,0.0,0.0,0.0,0.0,0.0,-2.89,-2.925,-2.9615,-2.9949,-3.1411,-3.2759,-3.3661,-3.8357,-4.3103,-4.8087,-5.0099,-4.8873,-4.4728,-4.4545,-4.3408,-4.1574,-4.2087,-4.2051,-4.1574,-4.1207,-4.106,-4.106,-4.106,-4.106,-4.106,0.0,0.0,0.0,0.0,0.0,0.0,0.0,0.0,0.0,-4.106,-4.1262,-4.1445,-4.1152,-4.106,-4.1005,-4.0712,0.0,0.0,0.0,0.0,0.0,0.0,-5.122,0.0,0.0,0.0,0.0,0.0,0.0,0.0,0.0,0.0,0.0,0.0,0.0,0.0,0.0,0.0,0.0,0.0,0.0,0.0,0.0,0.0,0.0,0.0,-6.0463,-6.0243,-5.9986,-5.9986,-5.9766,-5.9344,-5.9344,-5.9014,-5.8335,-5.8225,-5.817,-5.8115,-5.7125,-5.6355,-5.5713,-5.4979,-5.4539,-5.4283,-5.3897,-5.3476,-5.3109,-5.3109,-5.3164,-5.3329,-5.3439,-5.3751,-5.4062,0.0,0.0,0.0,0.0,0.0,0.0,0.0,0.0,0.0,0.0,-2.6899,-2.6803,0.0,0.0,0.0,0.0,0.0,0.0,0.0,-2.8885,-2.9314,-2.9806,-3.0759,-3.2284,-3.439,-3.8954,-4.2712,-4.5716,-4.7216,-4.6103,-4.2564,-4.3921,-4.3701,-4.2216,-4.3995,-4.4031,-4.2729,-4.2564,-4.2032,-4.1317,-4.1482,-4.1445,-4.1335,0.0,0.0,0.0,0.0,0.0,0.0,0.0,0.0,0.0,-4.106,-4.1225,-4.139,-4.1134,-4.095,-4.0767,-4.0529,0.0,0.0,0.0,0.0,0.0,0.0,0.0,0.0,0.0,0.0,0.0,0.0,0.0,0.0,0.0,0.0,0.0,0.0,0.0,0.0,0.0,0.0,0.0,0.0,0.0,0.0,0.0,0.0,0.0,0.0,-6.0133,-5.9986,-5.9564,-5.9546,-5.9289,-5.8702,-5.8702,-5.828,-5.7492,-5.7492,-5.7382,-5.7217,-5.6318,-5.5676,-5.5236,-5.4448,-5.4117,-5.4062,-5.3842,-5.3586,-5.3366,-5.3366,-5.3366,-5.3366,-5.3366,-5.3641,-5.3952,0.0,0.0,-2.5119,-2.5151,0.0,0.0,0.0,0.0,0.0,0.0,-2.6914,-2.6851,0.0,0.0,0.0,0.0,0.0,0.0,0.0,-2.8551,-2.9075,-2.9743,-3.0335,-3.2862,-3.7767,-4.1114,-4.2197,-4.0675,-4.3206,-4.3206,-4.0895,-4.3903,-4.5058,-4.471,-4.669,-4.6709,-4.5205,-4.46,-4.3298,-4.1666,-4.2014,-4.1959,-4.1666,-4.2032,0.0,0.0,0.0,0.0,0.0,0.0,0.0,0.0,-4.106,-4.1079,-4.1115,-4.1079,-4.0804,-4.0529,-4.0565,0.0,0.0,0.0,0.0,0.0,0.0,0.0,0.0,0.0,0.0,0.0,0.0,0.0,0.0,0.0,0.0,0.0,0.0,0.0,0.0,0.0,0.0,0.0,0.0,0.0,0.0,0.0,0.0,0.0,0.0,-5.9729,-5.9509,-5.9032,-5.9069,-5.8665,-5.7804,-5.7859,-5.7492,-5.6703,-5.6703,-5.6483,-5.6043,-5.5713,-5.5291,-5.4814,-5.4117,-5.3787,-5.3787,-5.3751,-5.3751,-5.3751,-5.3696,-5.3696,-5.3696,-5.3696,-5.3916,-5.4172,0.0,0.0,-2.5199,-2.5469,0.0,0.0,0.0,0.0,0.0,0.0,0.0,0.0,0.0,0.0,0.0,0.0,0.0,0.0,0.0,-2.8424,-2.8964,-2.9393,-3.1861,-3.4179,-3.6465,-3.8018,-3.8401,-3.7741,-4.1134,-4.1537,-3.9263,-4.3371,-4.4911,-4.4288,-4.5975,-4.6012,-4.4673,-4.2674,-4.1592,-4.1207,-4.128,-4.128,-4.1207,-4.128,-4.1207,0.0,0.0,0.0,0.0,0.0,0.0,0.0,-4.106,-4.128,-4.1482,-4.1152,-4.1005,-4.1005,0.0,-4.1886,0.0,0.0,0.0,0.0,0.0,0.0,0.0,0.0,0.0,0.0,0.0,0.0,0.0,0.0,0.0,0.0,0.0,0.0,0.0,0.0,0.0,0.0,0.0,0.0,0.0,0.0,0.0,0.0,-5.9766,-5.9491,-5.8812,-5.7804,-5.806,-5.7694,-5.6575,-5.685,-5.6758,0.0,-5.6263,-5.5896,-5.5199,-5.5438,-5.5126,-5.4448,-5.4283,-5.4228,-5.4172,-5.3861,-5.3751,-5.3696,-5.3384,-5.3274,-5.3274,-5.3274,-5.3311,-5.3384,0.0,0.0,0.0,0.0,0.0,0.0,0.0,0.0,0.0,0.0,0.0,0.0,0.0,0.0,0.0,0.0,0.0,0.0,0.0,0.0,-2.9026,-3.0341,-3.3225,-3.4942,-3.561,-3.695,-3.7319,-3.6531,-3.9025,-3.9795,-3.9006,-4.2894,-4.4691,-4.4746,-4.6764,-4.6544,-4.4581,-4.3316,-4.2234,-4.1372,-4.1574,-4.1537,-4.1372,-4.1574,-4.139,-4.106,-4.106,0.0,0.0,0.0,0.0,0.0,0.0,0.0,-4.1335,-4.1115,-4.0932,-4.0859,0.0,0.0,0.0,0.0,0.0,0.0,0.0,0.0,0.0,0.0,0.0,0.0,0.0,0.0,0.0,0.0,0.0,0.0,0.0,0.0,0.0,0.0,0.0,0.0,0.0,0.0,0.0,0.0,0.0,-5.9399,-5.9197,-5.8812,-5.8225,-5.7382,-5.7382,-5.7015,-5.6153,-5.6153,-5.5988,-5.5566,-5.5365,-5.5071,-5.4649,-5.4869,-5.4539,-5.3751,-5.3952,-5.4062,-5.4026,-5.3842,-5.3751,-5.3732,-5.3494,-5.3274,-5.3109,-5.3109,-5.3109,-5.3109,0.0,0.0,0.0,0.0,0.0,0.0,0.0,0.0,0.0,0.0,0.0,0.0,0.0,0.0,0.0,0.0,0.0,0.0,0.0,0.0,0.0,-3.1859,-3.4203,-3.5415,-3.522,-3.7004,-3.7448,-3.6311,-3.7594,-3.8676,-3.9612,-4.2656,-4.46,-4.559,-4.7461,-4.6984,-4.4746,-4.4251,-4.3096,-4.161,-4.1941,-4.1831,-4.1519,-4.1849,-4.15,-4.084,-4.084,-4.084,-4.0859,-4.0932,0.0,0.0,0.0,0.0,-4.106,-4.106,-4.0822,-4.0675,0.0,0.0,0.0,0.0,0.0,0.0,0.0,0.0,0.0,0.0,0.0,0.0,0.0,0.0,0.0,0.0,0.0,0.0,0.0,0.0,0.0,0.0,0.0,0.0,0.0,0.0,0.0,0.0,0.0,-5.8812,-5.8445,-5.8024,-5.7547,-5.7052,-5.6795,-5.6373,-5.5841,-5.5566,-5.5181,-5.4704,-5.4393,-5.4172,-5.4117,-5.4117,-5.3842,-5.3329,-5.3696,-5.3842,-5.3842,-5.3787,-5.3751,-5.3732,-5.3641,-5.3421,-5.3109,-5.3109,-5.3109,-5.3109,0.0,0.0,0.0,0.0,0.0,0.0,0.0,0.0,0.0,0.0,-2.72,-2.72,0.0,-2.72,-2.72,-2.72,-2.72,-2.7328,-2.7645,0.0,0.0,-3.2952,-3.4364,-3.5379,-3.6018,-3.7294,-3.7594,-3.6751,-3.831,-3.9667,-4.0859,-4.3059,-4.4875,-4.6305,-4.5938,-4.5572,-4.5058,-4.2582,-4.139,-4.1152,-4.1207,-4.0987,-4.0639,-4.0694,-4.0418,-3.9997,-3.9997,-3.9997,-4.0052,-4.0418,-4.0547,0.0,0.0,0.0,-4.106,-4.106,-4.1024,-4.1152,0.0,0.0,0.0,0.0,0.0,0.0,0.0,0.0,0.0,0.0,0.0,0.0,0.0,0.0,0.0,0.0,0.0,0.0,0.0,0.0,0.0,0.0,0.0,0.0,0.0,0.0,0.0,0.0,-5.8537,-5.8115,-5.806,-5.7327,-5.6575,-5.5823,-5.6098,-5.5731,-5.4594,-5.4869,-5.4649,-5.3897,-5.3842,-5.3641,-5.3274,-5.3274,-5.3586,-5.4172,-5.4228,-5.4264,-5.4228,-5.3897,-5.3751,-5.3696,-5.3329,-5.3164,-5.3109,-5.3109,-5.3109,-5.3109,0.0,0.0,0.0,0.0,0.0,0.0,0.0,0.0,0.0,0.0,0.0,-2.72,-2.72,-2.72,-2.72,-2.72,-2.7391,-2.7861,-2.8834,-2.9724,-3.1178,-3.3465,-3.4115,-3.502,-3.611,-3.7203,-3.7411,-3.6842,-3.8438,-4.0327,0.0,-4.3793,-4.504,-4.6085,-4.4838,-4.4288,-4.4141,-4.1977,-4.106,-4.106,-4.106,-4.095,-4.0767,-4.0565,-4.0363,-4.0162,-3.9923,-3.985,-3.9868,0.0,-4.0272,-4.051,-4.0675,0.0,0.0,0.0,-4.106,0.0,-4.4545,0.0,0.0,0.0,0.0,0.0,0.0,0.0,0.0,0.0,0.0,0.0,0.0,0.0,0.0,0.0,0.0,0.0,0.0,0.0,0.0,0.0,0.0,0.0,0.0,0.0,0.0,0.0,-5.7492,-5.7272,-5.7272,-5.652,-5.5933,-5.5548,-5.5291,-5.4869,-5.4338,-5.4062,-5.3531,-5.2742,-5.2962,-5.2852,-5.2467,-5.2687,-5.298,-5.3329,-5.3329,-5.3439,-5.3641,-5.3476,-5.3384,-5.3384,-5.3164,-5.3109,-5.3109,-5.3109,-5.3109,-5.3109,0.0,0.0,0.0,0.0,0.0,0.0,0.0,0.0,0.0,0.0,0.0,-2.72,-2.72,0.0,0.0,0.0,-2.7717,-2.8559,-3.011,-3.0483,-3.1554,-3.3511,-3.4088,-3.4755,-3.5885,-3.6856,-3.7228,-3.6842,-3.8438,0.0,-4.3811,-4.4508,-4.57,-4.7185,-4.537,-4.4453,-4.4141,-4.2417,-4.1794,-4.1922,-4.1129,-4.0819,-4.0877,-4.0417,-4.0234,-4.0253,-3.9832,-3.9685,0.0,0.0,0.0,0.0,0.0,0.0,0.0,0.0,0.0,0.0,0.0,0.0,-4.8928,-5.3494,-5.5786,-5.7162,0.0,0.0,0.0,0.0,0.0,0.0,0.0,0.0,0.0,0.0,0.0,0.0,0.0,0.0,0.0,0.0,0.0,0.0,0.0,0.0,0.0,0.0,-5.6648,-5.6593,-5.6593,-5.5823,-5.5401,-5.5401,-5.4704,-5.4283,-5.4172,-5.3274,-5.2522,-5.1935,-5.2119,-5.2119,-5.1935,-5.2137,-5.2284,-5.2375,-5.2375,-5.265,-5.3109,-5.2999,-5.2962,-5.298,-5.3072,-5.3054,-5.298,-5.3072,-5.3109,-5.3109,0.0,0.0,0.0,0.0,0.0,0.0,0.0,0.0,0.0,0.0,0.0,-2.72,-2.72,-2.72,-2.7343,-2.7677,-2.8386,-2.9512,-3.0787,-3.2368,-3.2981,-3.2818,0.0,0.0,-3.5139,-3.6551,-3.7228,-3.6842,-3.8438,0.0,-4.4618,-4.5058,-4.7332,-5.0927,-4.8543,-4.7057,-4.6195,-4.4215,-4.3793,-4.4288,-4.1114,-4.015,-4.0492,-3.9474,-3.9555,-3.9813,-3.941,0.0,0.0,0.0,0.0,0.0,0.0,0.0,0.0,0.0,0.0,0.0,0.0,-4.4801,0.0,-4.979,-5.3072,0.0,0.0,0.0,0.0,0.0,0.0,0.0,0.0,0.0,0.0,0.0,0.0,0.0,0.0,0.0,0.0,0.0,0.0,0.0,0.0,0.0,0.0,0.0,-5.6428,-5.6208,-5.6208,-5.5401,-5.4961,-5.4961,-5.4539,-5.4172,-5.3787,-5.2595,-5.1972,-5.1935,-5.155,-5.1568,-5.1935,-5.155,-5.1587,-5.1972,-5.1972,-5.2412,-5.3091,-5.2705,-5.2559,-5.2595,-5.2962,-5.2889,-5.2595,-5.298,-5.3109,-5.3109,0.0,0.0,0.0,0.0,0.0,0.0,0.0,0.0,0.0,0.0,0.0,0.0,0.0,-2.76,-2.7878,-2.7693,-2.9021,-3.0467,-3.1679,-3.2481,-3.3384,-3.4501,0.0,0.0,0.0,-3.6746,-3.7228,-3.7594,-3.8438,-4.0455,-4.3554,-4.5003,-4.7002,-4.9294,-4.7387,-4.6379,-4.592,-4.3114,-4.2087,-4.2271,-4.1069,-4.0632,-4.0822,-4.0232,-4.005,0.0,0.0,0.0,0.0,0.0,0.0,0.0,0.0,0.0,0.0,0.0,0.0,0.0,0.0,0.0,0.0,-4.8854,-5.1495,-5.3641,0.0,0.0,0.0,0.0,0.0,0.0,0.0,0.0,0.0,0.0,0.0,0.0,0.0,0.0,0.0,0.0,0.0,0.0,0.0,0.0,0.0,0.0,0.0,-5.5346,-5.5346,-5.4594,-5.4172,-5.4172,-5.3751,-5.3366,-5.2962,-5.2009,-5.1532,-5.1532,-5.1385,-5.1385,-5.1532,-5.166,-5.1788,-5.1917,-5.1642,-5.1843,-5.2357,-5.221,-5.2137,-5.2192,-5.2577,-5.265,-5.2577,-5.2962,-5.3109,-5.3109,0.0,0.0,0.0,0.0,0.0,0.0,0.0,0.0,0.0,0.0,0.0,0.0,0.0,0.0,-2.8061,-2.8668,-3.012,-3.1565,-3.2537,-3.3331,-3.4173,-3.5156,-3.5136,-3.5682,-3.6824,-3.6842,-3.7228,-3.8016,-3.8291,-3.996,-4.2894,-4.438,-4.6305,-4.8414,-4.6379,-4.6158,-4.713,0.0,0.0,-4.2601,-4.0944,-4.0663,-4.1079,0.0,0.0,0.0,0.0,0.0,0.0,0.0,0.0,0.0,0.0,0.0,0.0,0.0,0.0,0.0,-4.2711,0.0,0.0,0.0,0.0,-5.1055,-5.3897,0.0,0.0,0.0,0.0,0.0,0.0,0.0,0.0,0.0,0.0,0.0,0.0,0.0,0.0,0.0,0.0,0.0,0.0,0.0,0.0,0.0,0.0,0.0,-5.4704,-5.4117,-5.3696,-5.3531,-5.3127,-5.2724,-5.2339,-5.1642,-5.1238,-5.111,-5.111,-5.1183,-5.1312,-5.1458,-5.1605,-5.1697,-5.1293,-5.1422,-5.1935,-5.1788,-5.1733,-5.177,-5.2174,-5.232,-5.2375,-5.2779,-5.2999,-5.3109,0.0,0.0,0.0,0.0,0.0,0.0,0.0,0.0,0.0,-2.72,0.0,0.0,0.0,0.0,0.0,-3.0412,-3.1649,-3.2589,-3.3304,-3.4758,-3.5339,-3.4605,-3.5573,-3.6421,-3.6861,-3.6861,-3.7246,-3.8034,-3.8016,-3.9648,-4.2766,-4.3224,-4.5333,-4.8634,-4.592,-4.6672,-4.9881,0.0,-4.6837,-4.5366,0.0,-3.9872,-4.1074,0.0,0.0,0.0,-4.1537,-4.0914,0.0,0.0,0.0,0.0,0.0,0.0,0.0,0.0,-4.106,-4.106,0.0,0.0,0.0,0.0,0.0,0.0,-5.3476,0.0,0.0,0.0,0.0,0.0,0.0,0.0,0.0,0.0,0.0,0.0,0.0,0.0,0.0,0.0,0.0,0.0,0.0,0.0,0.0,0.0,-5.5126,-5.4704,-5.4338,-5.3916,-5.3531,-5.3109,-5.2705,-5.2302,-5.1917,-5.1495,-5.1092,-5.0706,-5.0688,-5.089,-5.1257,-5.0872,-5.0908,-5.1275,-5.089,-5.1165,-5.1862,-5.1458,-5.1293,-5.133,-5.1752,-5.1935,-5.199,-5.2375,-5.2779,-5.3109,0.0,0.0,0.0,0.0,0.0,0.0,-2.72,-2.72,-2.72,0.0,0.0,0.0,-2.7582,-2.9028,-3.0534,-3.2004,-3.343,-3.3961,-3.3388,-3.5007,-3.6034,-3.6176,-3.6454,-3.6989,-3.7668,-3.7411,-3.7649,-3.8475,-3.8163,-3.8768,-4.0253,-4.1262,-4.2894,-4.5003,-4.5388,-4.5957,-4.647,-4.3958,0.0,-4.3536,-4.1061,-4.1097,0.0,0.0,0.0,0.0,0.0,-3.8856,0.0,0.0,-3.867,-3.952,0.0,0.0,-4.106,-4.106,-4.106,-4.106,-4.106,0.0,0.0,0.0,0.0,0.0,-4.7552,-4.8964,-5.0541,0.0,0.0,0.0,0.0,0.0,0.0,0.0,0.0,0.0,0.0,0.0,0.0,0.0,0.0,0.0,0.0,0.0,0.0,0.0,-5.4283,-5.4007,-5.3897,-5.3256,-5.2815,-5.2687,-5.2009,-5.1587,-5.1477,-5.0798,-5.0413,-5.0285,-4.9991,-5.0065,-5.045,-5.034,-5.0505,-5.0872,-5.0761,-5.0853,-5.1055,-5.0927,-5.089,-5.0927,-5.133,-5.166,-5.199,-5.2375,-5.2779,-5.3109,0.0,0.0,-2.7248,-2.7391,0.0,-2.7804,-2.7645,-2.7757,-2.7804,0.0,0.0,0.0,-2.8551,-3.0816,-3.2414,-3.2467,-3.4031,-3.4847,-3.4309,-3.5537,-3.6402,-3.6824,-3.6842,-3.7209,-3.7998,-3.7631,-3.7833,-3.864,-3.8218,-3.8346,-3.9006,-3.9887,-4.0987,-4.2271,-4.3206,-4.3683,-4.3683,0.0,0.0,0.0,-4.1203,0.0,0.0,-4.1134,-4.1015,0.0,0.0,0.0,-4.0173,-4.0193,-4.025,0.0,0.0,0.0,0.0,0.0,-4.106,-4.106,-4.106,-4.106,-4.1409,-4.2913,0.0,0.0,-4.5608,-4.6489,-4.7626,0.0,0.0,0.0,0.0,0.0,0.0,0.0,0.0,0.0,0.0,0.0,0.0,0.0,0.0,0.0,-5.4117,-5.4539,-5.4649,-5.4338,-5.3952,-5.3586,-5.3256,-5.2632,-5.2284,-5.2284,-5.1495,-5.1055,-5.1055,-5.0266,-4.9863,-4.9863,-4.9624,-4.9624,-4.9863,-4.9863,-5.0083,-5.0468,-5.0285,-5.0303,-5.0486,-5.0651,-5.0725,-5.0743,-5.0963,-5.1422,-5.1972,-5.2192,-5.2632,-5.3109,0.0,0.0,-2.7328,-2.7725,-2.8329,-2.8678,-2.844,-2.8787,-2.8882,0.0,-2.8956,-2.9672,-3.0534,-3.2884,-3.3897,-3.293,-3.4302,-3.542,-3.5559,-3.6054,-3.6457,-3.6879,-3.6897,-3.7283,-3.8071,-3.7686,-3.7869,-3.864,-3.8273,-3.8273,-3.8658,-3.9006,-3.9575,-4.0345,-4.0382,-4.084,-4.1537,0.0,0.0,-4.1469,-4.1116,-4.144,0.0,0.0,-4.2653,0.0,-4.4045,-4.3279,-4.2159,-4.2694,-4.2271,0.0,0.0,0.0,0.0,0.0,-4.106,-4.106,-4.106,-4.1097,-4.1629,-4.3738,-4.2784,0.0,-4.5608,-4.515,-4.4856,-4.7772,0.0,0.0,0.0,0.0,0.0,0.0,0.0,0.0,0.0,-5.3696,-5.3586,-5.3164,-5.3219,-5.3366,-5.3641,-5.3751,-5.3897,-5.4117,-5.3751,-5.3219,-5.243,-5.2027,-5.1807,-5.1807,-5.1018,-5.056,-5.0523,-4.979,-4.9404,-4.9368,-4.9368,-4.9368,-4.9368,-4.9368,-4.9588,-4.9973,-4.9606,-4.968,-5.0083,-5.0431,-5.0615,-5.067,-5.0798,-5.1293,-5.1935,-5.199,-5.2467,-5.3109,-2.6597,-2.6962,-2.7391,-2.8027,-2.8487,-2.8932,-2.9441,-2.9887,-3.0063,-2.9838,-3.1088,-3.2911,-3.5168,-3.594,-3.6305,-3.6393,-3.6659,-3.6424,-3.5235,-3.6026,-3.6897,-3.7301,-3.7319,-3.7686,-3.8511,-3.8108,-3.8144,-3.864,-3.8566,-3.8566,-3.864,-3.8731,-3.9006,-3.9483,-3.9813,-4.0235,-4.073,0.0,0.0,-4.05,-4.0597,0.0,-4.3515,-4.221,-4.284,-4.4248,-4.4263,-4.3883,-4.319,0.0,-4.2963,-4.2454,0.0,0.0,0.0,0.0,0.0,0.0,0.0,0.0,0.0,0.0,0.0,0.0,-4.1959,-4.2729,-4.3884,0.0,-4.5608,0.0,0.0,0.0,-4.9716,-4.9294,-5.0725,-5.221,-5.3109,-5.3531,-5.3586,-5.3164,-5.3696,-5.3861,-5.3274,-5.3842,-5.3842,-5.2944,-5.2504,-5.2064,-5.1568,-5.1165,-5.0963,-5.0963,-5.0156,-4.9588,-4.9276,-4.9111,-4.8854,-4.8524,-4.8524,-4.8524,-4.8524,-4.8524,-4.8744,-4.9148,-4.9056,-4.9258,-4.9624,-4.9716,-4.9936,-5.034,-5.1312,-5.1807,-5.1972,-5.2302,-5.2705,-5.3109,-2.6867,-2.7232,-2.7677,-2.8376,-2.9075,-2.9727,-3.0267,-3.0772,-3.1227,-3.13,-3.3074,-3.4903,-3.6268,-3.699,-3.6958,-3.5905,-3.6587,-3.6709,-3.5641,-3.6303,-3.7007,-3.7411,-3.7613,-3.8016,-3.8621,-3.8438,-3.8438,-3.864,-3.864,-3.864,-3.864,-3.864,-3.886,-3.9245,-3.9667,-4.007,-4.0473,0.0,-4.0414,-4.009,-4.1209,0.0,-4.4125,-4.3107,-4.4018,-4.5843,-4.5086,-4.487,-4.4556,-4.3049,-4.3099,0.0,0.0,-4.1828,-4.2747,0.0,-4.1614,-4.1867,0.0,0.0,0.0,-4.1666,0.0,0.0,0.0,-4.1849,-4.2454,-4.3059,-4.3664,-4.4581,-4.6177,0.0,-4.7827,-4.8212,-4.9478,-5.0688,-5.1513,-5.2504,-5.298,-5.2577,-5.2705,-5.2742,-5.254,-5.2705,-5.2669,-5.2265,-5.1862,-5.144,-5.1037,-5.0633,-5.034,-5.012,-4.9533,-4.9111,-4.8909,-4.8708,-4.8487,-4.8286,-4.8286,-4.8286,-4.8286,-4.8286,-4.8506,-4.8909,-4.8689,-4.8836,-4.9221,-4.9423,-4.9624,-4.99,-5.0725,-5.1403,-5.1954,-5.2155,-5.2614,-5.3109,-2.7153,-2.7439,-2.7852,-2.8535,-2.952,-3.0362,-3.0791,-3.1613,-3.2267,-3.2794,-3.4653,-3.6125,-3.6317,-3.724,-3.709,-3.5429,-3.5969,-3.6569,-3.6612,0.0,0.0,-3.7301,-3.7613,-3.8016,-3.8511,-3.8456,-3.8475,-3.864,-3.864,-3.864,-3.864,-3.864,-3.886,-3.9245,-3.9504,-3.9869,0.0,0.0,0.0,-4.0228,0.0,-4.2908,-4.3675,-4.3718,-4.5151,-4.6888,-4.6406,-4.6407,-4.6234,-4.3556,0.0,-4.4254,-4.092,-4.2044,0.0,0.0,0.0,0.0,0.0,0.0,0.0,0.0,0.0,-4.2436,0.0,0.0,0.0,-4.1959,-4.2289,0.0,0.0,0.0,0.0,0.0,0.0,0.0,0.0,-5.0596,0.0,-5.1568,-5.1293,-5.1238,-5.166,-5.1037,-5.0908,-5.1642,-5.0963,-5.0486,-5.0486,-5.012,-4.9735,-4.9404,-4.9001,-4.8799,-4.8799,-4.8451,-4.8286,-4.8286,-4.8286,-4.8286,-4.8286,-4.8286,-4.8469,-4.8781,-4.8432,-4.8469,-4.8818,-4.9129,-4.9368,-4.9569,-5.0138,-5.1,-5.1954,-5.2027,-5.2504,-5.3109,-2.72,-2.7232,-2.7471,-2.817,-2.9171,-3.0108,-3.0759,-3.2058,-3.3296,-3.4621,-3.5672,-3.6566,-3.7301,0.0,0.0,0.0,0.0,0.0,-3.7912,0.0,-3.6444,-3.6916,-3.6952,-3.7319,-3.8071,-3.7741,-3.7924,-3.864,-3.864,-3.864,-3.864,-3.864,-3.886,0.0,-3.8833,0.0,0.0,0.0,-4.0072,0.0,-4.1797,-4.178,0.0,-4.2754,-4.4306,-4.642,-4.8367,-4.9054,-4.8895,0.0,-4.5822,-4.4816,0.0,-4.3121,-4.4453,0.0,0.0,0.0,0.0,0.0,0.0,0.0,-4.4398,0.0,0.0,0.0,-4.2381,-4.139,0.0,0.0,0.0,0.0,0.0,0.0,0.0,0.0,-4.7295,-4.7277,-4.7956,-5.0083,-5.0303,-5.0413,-5.0817,-4.9184,-4.8873,-5.0725,-4.8818,-4.8194,-4.9569,-4.9258,-4.9038,-4.8983,-4.8579,-4.8359,-4.8359,-4.8304,-4.8286,-4.8286,-4.8286,-4.8286,-4.8286,-4.8286,-4.8304,-4.8359,-4.8304,-4.8304,-4.8359,-4.8414,-4.8854,-4.9606,-5.0743,-5.1495,-5.1972,-5.232,-5.2742,-5.3109,-2.7169,-2.7375,-2.7725,-2.8424,-2.9075,-2.9886,-3.0998,-3.3114,-3.5141,-3.7131,-3.7217,-3.7923,0.0,0.0,0.0,0.0,0.0,0.0,0.0,0.0,-3.7167,-3.6512,0.0,0.0,-3.7686,-3.8199,-3.8401,-3.8273,-3.853,-3.864,-3.864,-3.864,-3.8988,0.0,-3.9195,0.0,-4.0529,0.0,0.0,0.0,0.0,0.0,0.0,-4.345,-4.5449,-4.7139,-4.8264,-4.8952,-4.8954,0.0,-4.6676,0.0,0.0,0.0,0.0,0.0,0.0,0.0,0.0,0.0,0.0,0.0,0.0,0.0,-4.3059,0.0,-4.2381,0.0,0.0,0.0,0.0,0.0,0.0,0.0,-4.3554,0.0,0.0,0.0,-4.6158,0.0,0.0,0.0,-4.7882,-4.7992,-4.8194,-4.8598,-4.7461,-4.724,-4.8396,-4.8304,-4.8304,-4.8543,-4.8377,-4.8286,-4.8286,-4.8286,-4.8286,-4.8286,-4.8286,-4.8286,-4.8286,-4.8286,-4.8286,-4.8286,-4.8286,-4.8286,-4.8304,-4.8543,-4.8983,-4.9569,-5.034,-5.1018,-5.1623,-5.2027,-5.243,-5.2797,-2.728,-2.755,-2.7884,-2.8392,0.0,-2.9774,-3.1172,-3.3206,-3.537,0.0,0.0,0.0,-4.0851,-3.989,0.0,0.0,0.0,-3.8548,0.0,0.0,-3.7499,0.0,0.0,0.0,0.0,-3.8346,-3.8603,-3.8346,-3.8548,-3.8695,-3.8805,-3.8695,-3.908,-3.985,0.0,-3.9995,-4.0705,0.0,0.0,-4.1224,-4.1261,-4.1741,-4.264,-4.4286,-4.6176,-4.8255,-4.7999,-4.8311,-4.8519,-4.7127,-4.6652,0.0,-4.492,0.0,0.0,0.0,0.0,0.0,-4.5056,0.0,0.0,0.0,0.0,0.0,0.0,0.0,0.0,0.0,0.0,0.0,0.0,0.0,0.0,-4.2894,0.0,-4.2986,0.0,-4.3774,0.0,0.0,0.0,0.0,0.0,-4.6507,-4.6837,-4.6929,-4.5938,-4.5883,-4.713,-4.7295,-4.7589,-4.8102,-4.8231,-4.8286,-4.8286,-4.8286,-4.8286,-4.8286,-4.8286,-4.8286,-4.8286,-4.8286,-4.8286,-4.8286,-4.8286,-4.8286,-4.8322,-4.8744,-4.9148,-4.9551,-4.9973,-5.0541,-5.122,-5.1733,-5.2192,-5.2577,-2.7645,-2.7725,0.0,0.0,0.0,0.0,0.0,0.0,0.0,0.0,0.0,0.0,0.0,0.0,0.0,0.0,0.0,-3.832,-3.8285,0.0,-3.6454,0.0,0.0,0.0,0.0,0.0,-3.8053,-3.919,-3.8823,-3.8841,-3.9208,-3.8823,-3.908,-3.9887,0.0,-4.0008,-3.9642,-4.1693,-4.2703,-4.3164,-4.4163,-4.5031,-4.5365,0.0,-4.6604,-4.9386,-4.8239,0.0,0.0,-4.6504,-4.6141,0.0,0.0,0.0,0.0,0.0,0.0,0.0,0.0,0.0,0.0,-4.4948,0.0,0.0,0.0,0.0,-4.3793,0.0,0.0,0.0,0.0,0.0,-4.3426,-4.3463,-4.2821,0.0,0.0,0.0,0.0,0.0,0.0,0.0,0.0,-4.438,-4.3995,0.0,-4.3958,-4.3444,-4.5828,-4.6305,-4.6892,-4.7681,-4.8084,-4.8286,-4.8286,-4.8286,-4.8286,-4.8286,-4.8286,-4.8286,-4.8286,-4.8286,-4.8286,-4.8286,-4.8286,-4.8286,-4.8322,-4.8744,-4.9148,-4.9551,-4.9973,-5.0376,-5.0835,-5.1642,-5.2192,-5.2577,-2.8344,-2.8614,0.0,0.0,0.0,0.0,0.0,-3.2285,0.0,0.0,0.0,0.0,0.0,0.0,-4.3444,0.0,0.0,-4.1929,-3.9396,-3.9873,0.0,0.0,0.0,-3.9116,0.0,0.0,-3.9245,-3.8841,-3.9245,-3.9502,0.0,0.0,-3.9575,-3.9868,0.0,-4.059,0.0,0.0,0.0,0.0,0.0,-4.6234,-4.7861,0.0,0.0,-4.7939,-4.7949,-4.8255,0.0,-4.9585,-4.8077,-4.6423,-4.8815,-4.7995,-4.6556,-4.8431,-4.925,0.0,0.0,0.0,-4.9496,-4.6122,0.0,0.0,0.0,0.0,0.0,0.0,0.0,0.0,0.0,0.0,-4.3316,-4.2766,-4.2454,-4.2179,0.0,-4.1409,0.0,0.0,0.0,0.0,0.0,0.0,0.0,0.0,-4.2821,0.0,-4.3829,-4.504,-4.5938,-4.6489,-4.7406,-4.8029,-4.8286,-4.8286,-4.8286,-4.8286,-4.8286,-4.8286,-4.8286,-4.8286,-4.8286,-4.8286,-4.8286,-4.8286,-4.8341,-4.9019,-4.9386,-4.9569,-5.0248,-5.0761,-5.1183,-5.1733,-5.2027,-5.2229,-2.8885,-2.9043,0.0,0.0,0.0,0.0,0.0,0.0,0.0,0.0,-3.9995,0.0,-4.576,0.0,-4.5644,0.0,-4.5432,-4.3962,-4.0247,-4.1508,0.0,-3.8746,-4.0046,0.0,0.0,-4.0179,-3.9942,-3.886,-3.9667,-3.9978,0.0,0.0,0.0,0.0,0.0,-4.1214,-4.1352,0.0,-4.4524,0.0,0.0,-4.7129,0.0,0.0,-4.733,-4.7842,0.0,-4.8255,-4.9147,-5.0255,-4.9331,-4.7927,-5.0608,-4.9559,-4.7587,-4.9668,-5.0197,-4.9981,-4.911,-4.99,0.0,-4.7277,-4.7149,0.0,-4.4508,0.0,0.0,0.0,0.0,0.0,0.0,0.0,-4.3536,-4.3004,-4.2564,-4.1996,0.0,-4.106,0.0,0.0,0.0,0.0,0.0,0.0,0.0,0.0,0.0,0.0,0.0,-4.3995,-4.5058,-4.5443,-4.691,-4.7809,-4.8066,-4.8212,-4.8286,-4.8286,-4.8286,-4.8286,-4.8286,-4.8286,-4.8286,-4.8286,-4.8286,-4.8286,-4.8341,-4.9166,-4.9496,-4.9588,-5.0395,-5.0872,-5.1165,-5.1733,-5.2027,-5.2229,-2.9282,-2.9091,0.0,0.0,-3.0187,0.0,0.0,0.0,-3.6273,0.0,-4.0983,-4.3605,-4.5392,-4.688,-4.7283,-4.6171,-4.6155,0.0,-4.1048,-4.2508,0.0,0.0,-4.0384,-4.0931,-4.0175,-4.0385,-4.0235,0.0,0.0,0.0,0.0,0.0,0.0,0.0,-4.1739,0.0,-4.072,-4.5273,-4.6163,-4.491,-4.7213,-4.7879,-4.7323,-4.7289,-4.7974,-4.8816,-4.8056,-4.7776,-4.7809,-4.9147,-4.9386,-4.9386,-4.9608,-5.0232,-5.0666,-4.9886,-5.081,-5.1568,-4.9624,-5.023,-5.0817,-4.8432,0.0,0.0,0.0,0.0,-4.636,0.0,0.0,0.0,0.0,0.0,0.0,-4.3995,-4.3004,-4.1941,-4.117,-4.106,-4.106,0.0,0.0,0.0,0.0,0.0,0.0,0.0,0.0,0.0,0.0,-4.3151,-4.4215,-4.46,-4.6562,-4.7644,-4.7699,-4.8066,-4.8267,-4.8286,-4.8286,-4.8286,-4.8322,-4.8286,-4.8286,-4.8322,-4.8286,-4.8286,-4.8341,-4.9148,-4.9478,-4.9551,-5.0376,-5.0706,-5.0835,-5.1623,-5.2155,-5.2504,-3.0044,-3.0203,-3.0267,0.0,-3.0505,-3.1045,0.0,0.0,0.0,0.0,-4.2948,-4.5343,-4.7919,-4.8313,-4.8233,-4.7982,-4.7728,0.0,0.0,0.0,0.0,-4.4676,-4.4306,-4.4057,-4.3562,-4.2118,0.0,-4.1141,0.0,0.0,-4.1629,-4.073,-4.0363,-4.0529,0.0,0.0,-4.2892,-4.5549,-4.677,-4.7067,-4.7426,-4.7955,0.0,0.0,-4.7974,-4.8799,-4.6961,-4.6479,-4.6703,-4.7809,-4.7585,-4.7361,-5.0017,-5.0424,-5.0232,-5.128,-5.2288,-5.2632,-5.1825,-5.2119,-5.221,-5.0395,-5.0101,-4.9753,0.0,0.0,0.0,0.0,0.0,0.0,0.0,0.0,0.0,-4.2894,-4.1977,-4.1299,-4.1097,0.0,0.0,-4.106,0.0,0.0,0.0,0.0,0.0,0.0,0.0,0.0,-4.0804,0.0,-4.3371,-4.3793,-4.5462,-4.6782,-4.7681,-4.7791,-4.7992,-4.8286,-4.8286,-4.8451,-4.8744,-4.8432,-4.8451,-4.8726,-4.8414,-4.8286,-4.8322,-4.8854,-4.9056,-4.9148,-4.9955,-5.0633,-5.1183,-5.1385,-5.1733,-5.2082,-3.0553,0.0,0.0,-3.0934,0.0,0.0,-3.3317,0.0,0.0,-4.0705,-4.3263,0.0,-4.7156,-4.8395,-4.8967,-4.8697,-4.8475,0.0,0.0,0.0,0.0,-4.6246,-4.5735,-4.5275,-4.4385,-4.3103,0.0,-4.1585,0.0,0.0,-4.1482,-4.0969,-4.0639,-4.0529,0.0,-4.2481,-4.3163,-4.5309,-4.7167,-4.8189,-4.8211,-4.8341,0.0,-4.7822,-4.7792,-4.7946,-4.6575,-4.6237,-4.6912,-4.8239,-4.8049,-4.7825,-5.0034,-5.0255,-4.9778,-5.089,-5.1855,-5.2418,-5.1983,-5.2509,-5.2889,-5.199,-5.1642,-5.1092,-4.9459,-4.9698,-4.9771,0.0,0.0,0.0,0.0,0.0,0.0,-4.1941,-4.1354,-4.106,0.0,0.0,0.0,0.0,-4.106,0.0,0.0,0.0,0.0,0.0,0.0,0.0,0.0,0.0,-4.2803,-4.3206,-4.5132,-4.6654,-4.7681,-4.8047,-4.8249,-4.8286,-4.8469,-4.8579,-4.8634,-4.8579,-4.8579,-4.8634,-4.8396,-4.8286,-4.8322,-4.8744,-4.8909,-4.9001,-4.9808,-5.0505,-5.1055,-5.1055,-5.1312,-5.166,-3.0871,0.0,0.0,0.0,0.0,0.0,0.0,-3.6177,0.0,-4.0531,0.0,-4.5249,-4.5504,-4.7998,-4.9412,-4.8697,0.0,-4.8026,-4.6762,-4.759,-4.7657,-4.629,-4.6589,-4.6042,-4.4665,-4.4091,0.0,0.0,0.0,0.0,0.0,-4.073,-4.0657,-4.0418,0.0,0.0,0.0,-4.4902,-4.6758,-4.8454,-4.8403,-4.8524,-4.8261,-4.8127,-4.7767,-4.7108,-4.6558,-4.6896,-4.7776,-4.8718,-4.9163,-4.9386,-4.9591,-4.9812,-4.983,-5.0051,-5.0714,-5.1595,-5.1595,-5.2235,-5.3109,-5.3109,-5.2852,-5.2247,-5.0835,-4.9973,-4.9203,-4.8286,-4.6892,-4.5957,0.0,0.0,0.0,-4.1189,0.0,0.0,0.0,0.0,0.0,0.0,0.0,0.0,0.0,0.0,0.0,0.0,0.0,0.0,0.0,0.0,-4.2454,-4.3004,-4.5058,-4.6709,-4.7846,-4.8396,-4.8598,-4.8451,-4.8708,-4.8671,-4.8377,-4.8689,-4.8653,-4.8359,-4.8304,-4.8286,-4.8304,-4.8671,-4.8891,-4.9056,-4.9771,-5.0321,-5.0725,-5.0725,-5.0945,-5.1238,0.0,0.0,0.0,0.0,0.0,-3.6352,-3.783,-4.0562,-4.2882,-4.401,-4.6838,0.0,-4.8443,-4.9205,-4.9412,-4.8697,-4.892,0.0,0.0,0.0,0.0,-5.0623,-5.0914,-5.0452,-4.9757,-4.6705,-4.4728,0.0,0.0,0.0,0.0,0.0,0.0,0.0,0.0,0.0,-4.1799,-4.3821,0.0,-4.5507,-4.644,-4.7249,-4.8084,-4.8602,-4.8214,-4.7346,-4.8601,-4.7809,-4.6237,-4.6462,-4.7377,-4.8255,-4.9352,-5.0272,-5.1155,-5.2253,-5.2654,-5.2691,-5.2691,-5.2891,-5.3109,-5.3109,-5.3054,-5.2944,-5.265,-5.2485,-5.1954,-5.0486,-4.9423,-4.8194,-4.6342,0.0,0.0,0.0,0.0,0.0,0.0,0.0,0.0,0.0,0.0,-4.0694,0.0,0.0,0.0,0.0,0.0,0.0,0.0,0.0,-4.2436,0.0,-4.4288,-4.5847,0.0,0.0,-4.8047,-4.9276,-4.8689,-4.8543,-4.8799,-4.8524,-4.8543,-4.8781,-4.8432,-4.8286,-4.8286,-4.8359,-4.8799,-4.9404,-4.9551,-5.0065,-5.0725,-5.0725,-5.0761,-5.0817,0.0,0.0,0.0,0.0,0.0,0.0,0.0,-4.3002,0.0,-4.4026,-4.5694,-4.6933,-4.6759,-4.8173,-4.9015,-4.8697,-4.8618,-4.8618,-4.8618,-4.9627,-5.0153,-4.977,-4.9572,0.0,-4.8735,-4.5854,-4.4145,-4.3956,0.0,0.0,0.0,0.0,0.0,-3.9557,0.0,-4.0565,0.0,0.0,0.0,-4.5647,-4.66,-4.7705,-4.8838,-4.897,-4.8925,-4.8483,-4.9335,-4.8958,-4.7809,-4.7809,-4.8389,-4.9161,-4.9437,-5.0189,-5.0737,-5.1191,-5.1797,-5.2307,-5.247,-5.2818,-5.3164,-5.3384,-5.3274,-5.3109,-5.3109,-5.2797,-5.2155,-5.0963,-4.99,-4.8451,-4.603,-4.3774,0.0,0.0,0.0,0.0,0.0,0.0,0.0,0.0,0.0,0.0,0.0,0.0,0.0,0.0,0.0,0.0,0.0,0.0,-4.1904,0.0,0.0,0.0,-4.7626,0.0,-4.8102,-4.8873,-4.8689,-4.8598,-4.8579,-4.8598,-4.8598,-4.8579,-4.8377,-4.8286,-4.8304,-4.8524,-4.8964,-4.9514,-4.9735,-5.0193,-5.0725,-5.0725,-5.0725,-5.0725,0.0,-3.4204,0.0,0.0,-3.7478,0.0,0.0,-4.3713,-4.5938,-4.4169,-4.4741,-4.5329,-4.5281,-4.741,-4.8792,-4.857,-4.8427,-4.83,-4.8252,-4.8409,-4.8628,-4.8725,-4.8154,-4.7639,-4.7364,-4.5332,-4.3791,0.0,0.0,0.0,0.0,0.0,0.0,0.0,0.0,0.0,0.0,0.0,-4.3951,-4.5952,-4.7214,-4.8277,-4.9141,-4.9353,-4.9434,-4.9471,-5.022,-5.0255,-5.0051,-5.0272,-5.0515,-5.0552,-5.0241,-5.0654,-5.1086,-5.0394,-5.104,-5.2119,-5.2316,-5.2889,-5.3439,-5.3787,-5.3549,-5.3274,-5.3274,-5.2632,-5.1807,-5.0908,-4.9624,-4.7992,-4.5828,-4.405,0.0,0.0,0.0,0.0,0.0,0.0,0.0,0.0,0.0,0.0,-4.0473,0.0,0.0,0.0,0.0,0.0,-4.0492,0.0,0.0,0.0,0.0,-4.5205,-4.6599,0.0,-4.8249,-4.8414,-4.8653,-4.8598,-4.8286,-4.8634,-4.8598,-4.8286,-4.8286,-4.8341,-4.8432,-4.8781,-4.9203,-4.9661,-5.001,-5.0376,-5.0725,-5.0725,-5.0725,-5.0725,0.0,0.0,0.0,0.0,0.0,0.0,0.0,-4.1886,-4.5544,-4.6956,-4.7807,-4.8125,-4.7807,-4.8888,-4.9205,-4.8252,-4.8713,-4.8935,-4.8618,-4.9245,-4.9902,-5.0214,-5.04,-5.0233,-5.0233,-4.8311,-4.6065,0.0,0.0,0.0,0.0,0.0,0.0,0.0,0.0,0.0,0.0,-4.0949,-4.2601,-4.3643,-4.6504,-4.7703,-4.7926,-4.9898,-4.9936,-4.9365,-5.189,-5.2016,-5.1358,-5.2472,-5.2268,-5.172,-5.189,-5.2842,-5.3691,-5.2909,-5.3402,-5.3914,-5.3585,-5.3767,-5.4228,-5.4283,-5.3971,-5.3696,-5.3696,-5.3054,-5.2137,-5.0963,-4.9166,-4.7406,-4.6085,-4.5388,-4.4416,0.0,0.0,0.0,0.0,0.0,-4.2472,-4.1721,0.0,0.0,-4.051,-4.0822,0.0,0.0,-4.106,0.0,0.0,0.0,0.0,-4.2252,-4.3481,-4.5077,-4.702,-4.7516,-4.8121,-4.8854,-4.8506,-4.8322,-4.8286,-4.8322,-4.8322,-4.8286,-4.8286,-4.8506,-4.8854,-4.8891,-4.9368,-5.0083,-5.012,-5.0376,-5.0725,-5.0725,-5.0725,-5.0725,0.0,0.0,0.0,0.0,0.0,0.0,0.0,-4.1006,-4.3367,-4.4283,-4.6691,-4.8443,-4.8713,-4.8745,-4.884,-4.9062,-4.8745,-4.857,-4.8649,-4.8789,-4.8896,-4.9025,-4.9575,-4.9818,-4.9567,-4.8649,-4.6973,0.0,0.0,0.0,0.0,0.0,0.0,0.0,0.0,-3.8932,-4.0046,-4.123,-4.29,-4.5251,-4.6145,-4.784,-4.9865,-5.0366,-5.1079,-5.194,-5.3,-5.3218,-5.3233,-5.3914,-5.3914,-5.3378,-5.316,-5.3727,-5.4594,-5.4007,-5.4062,-5.4338,-5.4429,-5.4393,-5.4393,-5.4613,-5.4228,-5.3751,-5.3751,-5.2925,-5.1898,-5.0927,-4.9294,-4.7827,-4.7112,-4.625,-4.5462,0.0,0.0,0.0,0.0,0.0,0.0,-4.1757,0.0,-4.0272,0.0,-4.0675,0.0,0.0,0.0,0.0,0.0,0.0,0.0,-4.1189,0.0,-4.4123,-4.493,-4.6544,-4.7626,-4.8176,-4.8011,-4.8047,-4.8286,-4.8286,-4.8286,-4.8304,-4.8561,-4.8763,-4.8946,-4.9441,-4.9826,-5.0156,-5.0395,-5.0578,-5.0725,-5.0725,-5.0725,-5.0725,-3.4828,0.0,-3.4557,0.0,-3.6091,-3.6919,-3.7908,-3.9601,-4.0917,-4.1218,-4.4221,-4.686,-4.7834,-4.8363,-4.8697,-4.9333,-4.8792,-4.8491,-4.8649,-4.83,-4.8345,-4.858,-4.8927,0.0,-4.8915,-4.8449,-4.6982,-4.4661,-4.3539,0.0,0.0,0.0,0.0,0.0,-3.9128,-4.0485,-4.2142,-4.2144,-4.4016,-4.6549,-4.6829,-4.8414,-5.0733,-5.0813,-5.2056,-5.3586,-5.3696,-5.3916,-5.4228,-5.4594,-5.4649,-5.4448,-5.4172,-5.4484,-5.4869,-5.4448,-5.4503,-5.4704,-5.4869,-5.4814,-5.4759,-5.5034,-5.4503,-5.3897,-5.3751,-5.2815,-5.1642,-5.0578,-4.9258,-4.8194,-4.7919,-4.6984,-4.6269,-4.6305,0.0,0.0,0.0,0.0,0.0,0.0,-4.0804,-4.0107,-3.9868,-4.0473,0.0,0.0,0.0,0.0,0.0,0.0,0.0,0.0,0.0,0.0,-4.3664,-4.6177,-4.7479,-4.7534,-4.7754,-4.8011,-4.8286,-4.8286,-4.8286,-4.8304,-4.8726,-4.8983,-4.9148,-4.9845,-5.0193,-5.034,-5.0615,-5.0725,-5.0725,-5.0725,-5.0725,-5.0743,-3.4424,-3.4914,-3.4991,-3.5326,-3.5356,-3.5452,-3.5742,-3.7443,-3.8714,-3.9001,-4.0936,-4.3067,-4.4996,-4.7517,-4.9015,-4.8697,-4.8967,-4.9015,-4.8665,-4.83,-4.858,0.0,0.0,-4.8106,-4.8865,-4.7825,-4.5794,-4.3043,0.0,0.0,-3.9243,0.0,-4.0026,-3.9876,-4.107,-4.2031,-4.3033,-4.4008,-4.5415,-4.6965,-4.9199,-4.9973,-4.9903,-5.1781,-5.276,-5.3164,-5.3586,-5.3751,-5.3806,-5.4228,-5.4594,-5.4924,-5.4924,-5.4924,-5.4869,-5.4448,-5.4906,-5.5438,-5.5034,-5.5236,-5.5548,-5.5548,-5.4924,-5.4228,-5.3842,-5.2815,-5.1477,-4.9845,-4.8854,-4.8286,-4.8286,-4.7626,-4.6837,-4.603,0.0,0.0,0.0,0.0,0.0,-4.1886,-4.1299,-4.073,-3.9923,-4.0235,0.0,0.0,0.0,0.0,0.0,0.0,0.0,-4.106,-4.3389,0.0,-4.4086,-4.6855,-4.7882,-4.713,-4.7901,-4.8286,-4.8286,-4.8286,-4.8286,-4.8304,-4.8726,-4.9129,-4.9533,-4.9955,-5.0358,-5.0706,-5.0725,-5.0725,-5.0725,-5.0725,-5.0725,-5.078,-3.4577,-3.4848,-3.4962,-3.5006,-3.5416,-3.5682,-3.5778,-3.6417,-3.7035,-3.711,-3.8864,-4.0347,-4.1081,-4.3124,-4.5201,0.0,-4.6735,-4.7045,0.0,-4.83,-4.8345,-4.858,-4.8969,-4.9062,-4.8915,-4.9249,-4.835,-4.5985,0.0,0.0,0.0,-4.1835,-4.2116,-4.1515,-4.2526,-4.3626,-4.4654,-4.4777,-4.6093,-4.7917,-4.8703,-4.9908,-5.1345,-5.1813,-5.2705,-5.3586,-5.4007,-5.4338,-5.4558,-5.4704,-5.4649,-5.4539,-5.4539,-5.4906,-5.5291,-5.4869,-5.5126,-5.5493,-5.5383,-5.5438,-5.5548,-5.5548,-5.4924,-5.4283,-5.4172,-5.2559,-5.0798,-4.9716,-4.8854,-4.8286,-4.8286,-4.8084,-4.7736,-4.7204,-4.6764,0.0,0.0,0.0,-4.2362,-4.1024,-4.0492,-4.0015,-3.9483,-3.9795,0.0,0.0,0.0,0.0,0.0,0.0,0.0,0.0,-4.2472,0.0,-4.3683,-4.6213,-4.7351,-4.7112,-4.7644,-4.8029,-4.8286,-4.8579,-4.8561,-4.8304,-4.8726,-4.9129,-4.9533,-4.9955,-5.0358,-5.0725,-5.0725,-5.0725,-5.0725,-5.0725,-5.0725,-5.0743,-3.474,-3.4861,-3.4994,-3.509,-3.5416,-3.5682,-3.5778,-3.5911,-3.6068,-3.6165,-3.7364,-3.8114,-3.8216,-3.934,0.0,-4.4768,-4.4792,-4.5142,-4.6434,-4.6145,-4.6423,-4.7622,-4.8077,-4.8525,-4.9146,-4.921,0.0,-4.6672,-4.6011,-4.4698,-4.3156,-4.4195,-4.4461,-4.3812,-4.4796,-4.5629,-4.6034,-4.6206,-4.7366,-4.9088,-4.9232,-5.0244,-5.1715,-5.188,-5.2504,-5.3366,-5.3916,-5.4283,-5.4503,-5.4649,-5.4539,-5.4338,-5.4338,-5.4704,-5.5071,-5.4961,-5.5126,-5.5346,-5.5493,-5.5438,-5.5291,-5.5291,-5.4814,-5.4228,-5.3751,-5.2137,-5.0578,-5.0065,-4.9184,-4.8524,-4.8524,-4.8267,-4.7937,-4.7534,-4.6672,-4.548,-4.3848,0.0,-4.1427,0.0,0.0,0.0,0.0,-3.9685,-3.985,0.0,0.0,0.0,0.0,0.0,0.0,-4.0914,-4.2491,-4.3518,-4.394,-4.6195,-4.7259,-4.7112,-4.7662,-4.8121,-4.8524,-4.8634,-4.8616,-4.8543,-4.8946,-4.9276,-4.9551,-5.012,-5.0486,-5.0725,-5.0725,-5.0725,-5.0725,-5.0725,-5.0725,-5.0761,-3.497,-3.497,0.0,0.0,-3.5392,0.0,-3.5778,-3.5778,-3.5839,-3.6128,-3.614,-3.6201,-3.6466,-3.6527,-3.8096,-4.1981,0.0,0.0,0.0,-4.25,-4.3743,-4.6614,-4.568,-4.6475,-4.9211,-4.773,-4.6743,-4.6028,-4.5333,-4.5241,-4.6176,-4.6729,-4.6694,-4.6176,-4.7235,-4.7518,-4.7235,-4.7959,-4.8899,-5.0005,-5.0596,-5.1,-5.1403,-5.1788,-5.2192,-5.2669,-5.3421,-5.3732,-5.3806,-5.4172,-5.4283,-5.4283,-5.4283,-5.4283,-5.4374,-5.4759,-5.4869,-5.4979,-5.5401,-5.5236,-5.4924,-5.4961,-5.4649,-5.4007,-5.2797,-5.1605,-5.0743,-5.0725,-4.9771,-4.8946,-4.8928,-4.8286,-4.7626,-4.7185,-4.6067,-4.4691,-4.3096,-4.1794,-4.0712,0.0,0.0,0.0,0.0,-3.9832,-3.985,0.0,0.0,0.0,0.0,0.0,-4.0877,-4.1702,-4.3224,-4.4251,-4.471,-4.6672,-4.7497,-4.7204,-4.7956,-4.8524,-4.8854,-4.8524,-4.8561,-4.8891,-4.9294,-4.9459,-4.9514,-5.0303,-5.0651,-5.0688,-5.0706,-5.0725,-5.0725,-5.0725,-5.0725,-5.0835,0.0,0.0,-3.532,-3.538,-3.5549,-3.5778,-3.6032,-3.5742,-3.5646,-3.6104,-3.5815,-3.5682,-3.5935,-3.614,-3.676,-3.7807,-3.9509,-4.1088,-4.2444,-4.2374,-4.2587,-4.3504,-4.4489,-4.5322,-4.5932,-4.7024,-4.7013,-4.6028,-4.6339,-4.6556,-4.647,-4.7118,-4.7387,-4.7301,-4.6441,-4.6584,-4.7146,-4.7529,-4.8246,-4.9347,-5.0581,-5.1422,-5.1807,-5.1898,-5.2375,-5.2999,-5.3219,-5.3476,-5.3751,-5.3842,-5.3897,-5.3842,-5.3494,-5.3641,-5.3952,-5.4338,-5.4484,-5.4539,-5.4961,-5.4979,-5.4979,-5.5328,-5.4869,-5.4007,-5.2797,-5.1825,-5.1092,-5.078,-4.9991,-4.9276,-4.8964,-4.8763,-4.8286,-4.7277,-4.5828,-4.4361,-4.3059,-4.1555,-4.0308,0.0,-3.985,-3.996,-3.9428,-3.9667,-3.9978,0.0,0.0,0.0,-4.029,-4.0694,-4.1299,-4.2106,-4.3114,-4.4123,-4.515,-4.6544,-4.7497,-4.8011,-4.8524,-4.8653,-4.8451,-4.8983,-4.8928,-4.8451,-4.8873,-4.9056,-4.9093,-4.9588,-4.9991,-5.0303,-5.0596,-5.0725,-5.0725,-5.0725,-5.0725,-5.078,-3.5163,-3.538,-3.5549,-3.5549,-3.5778,-3.5971,-3.5971,-3.5742,-3.5682,-3.5935,-3.5646,-3.5513,-3.5911,-3.5971,-3.6032,-3.6165,-3.7382,-3.8727,-3.9687,-3.9687,-4.0414,-4.2318,-4.2573,-4.37,-4.6177,-4.6228,-4.6509,-4.7414,-4.7492,-4.7866,-4.8144,-4.8756,-4.867,-4.8175,-4.7539,-4.7585,-4.8485,-4.8698,-4.9336,-5.045,-5.1485,-5.1898,-5.1954,-5.2137,-5.2467,-5.287,-5.3054,-5.3274,-5.3476,-5.3476,-5.3586,-5.3732,-5.3696,-5.3842,-5.4062,-5.4484,-5.4484,-5.4429,-5.4814,-5.4924,-5.4924,-5.4961,-5.4393,-5.3549,-5.2724,-5.2045,-5.1477,-5.1073,-5.0193,-4.9441,-4.9221,-4.8726,-4.7901,-4.6507,-4.5223,-4.3848,-4.2271,-4.0969,-4.0088,-3.9832,-4.0033,-4.0235,-4.0345,-4.0547,-4.0694,-4.073,-4.0639,0.0,-4.073,-4.1831,-4.2399,-4.2289,-4.3426,-4.4526,-4.5553,-4.6764,-4.7681,-4.8286,-4.8506,-4.8616,-4.8579,-4.9038,-4.8983,-4.8598,-4.9001,-4.9184,-4.9221,-4.9624,-5.0028,-5.0413,-5.0633,-5.0725,-5.0725,-5.0725,-5.0725,-5.0798,-3.5452,-3.5609,-3.5778,-3.5778,-3.5935,-3.6008,-3.5839,-3.5742,-3.5718,-3.5935,-3.5609,-3.5609,-3.6225,-3.5971,-3.5911,-3.6201,-3.6394,-3.649,-3.643,-3.649,-3.792,-4.1231,-4.0092,-4.1781,-4.6536,-4.5052,-4.5468,-4.8308,-4.7983,-4.8291,-4.9651,-4.9938,-4.9808,-4.9062,-4.8977,-4.9377,-5.0276,-5.0276,-5.0903,-5.1972,-5.2357,-5.232,-5.2064,-5.2394,-5.2559,-5.265,-5.2925,-5.3072,-5.3127,-5.3164,-5.3439,-5.3806,-5.4228,-5.4338,-5.4393,-5.4759,-5.4649,-5.4503,-5.4814,-5.4924,-5.4814,-5.4429,-5.3751,-5.3091,-5.2632,-5.2229,-5.1825,-5.1403,-5.0395,-4.9569,-4.9514,-4.8561,-4.7277,-4.5737,-4.4636,-4.3353,-4.15,0.0,-4.0088,-4.051,-4.04,-4.0712,-4.1757,-4.1922,-4.1812,-4.1464,-4.2271,-4.2381,-4.1482,-4.3114,-4.3646,-4.2674,-4.4031,-4.5187,-4.6067,-4.7149,-4.7901,-4.8286,-4.8286,-4.8469,-4.8818,-4.8891,-4.8873,-4.8836,-4.9239,-4.9404,-4.9441,-4.9863,-5.0266,-5.0633,-5.0706,-5.0725,-5.0725,-5.0988,-5.1215,-5.1325,-3.5682,-3.5742,-3.5778,-3.5778,-3.5609,-3.5646,-3.6044,-3.5513,-3.5489,-3.6647,-3.5971,-3.5778,-3.6756,-3.6201,-3.5971,-3.6454,-3.6334,-3.614,-3.5911,-3.6104,-3.6371,-3.6862,-3.8253,-3.9454,-4.0168,-4.127,-4.3019,-4.5356,-4.531,-4.6246,-4.7906,-4.7955,-4.8439,-4.8878,-4.8546,-4.9352,-5.0701,-5.0701,-5.1172,-5.1972,-5.2357,-5.2485,-5.243,-5.2504,-5.2742,-5.298,-5.2705,-5.2834,-5.3164,-5.3531,-5.3696,-5.3806,-5.4228,-5.4338,-5.4338,-5.4393,-5.4594,-5.4869,-5.4924,-5.4924,-5.4814,-5.4429,-5.4007,-5.3439,-5.2687,-5.2229,-5.1825,-5.1403,-5.0633,-4.9918,-4.9569,-4.8781,-4.7772,-4.6507,-4.4765,-4.3243,-4.2234,0.0,-4.0529,-4.0914,-4.1812,-4.2472,-4.2656,-4.3004,-4.3188,-4.3114,-4.2656,-4.2582,-4.3096,-4.3738,-4.4141,-4.4288,-4.4893,-4.5755,-4.691,-4.7442,-4.7901,-4.8286,-4.8286,-4.8322,-4.8396,-4.8744,-4.8726,-4.8414,-4.8818,-4.9001,-4.9038,-4.9441,-4.9845,-5.0248,-5.0596,-5.0725,-5.097,-5.2742,-5.3478,-5.3801,-3.5742,-3.5875,-3.5911,-3.5609,-3.5815,-3.5971,-3.5778,-3.5682,-3.5778,-3.6261,-3.5911,-3.5839,-3.6454,-3.5971,-3.5706,-3.6104,-3.6032,-3.5839,-3.5585,-3.5935,-3.6601,-3.7417,-3.738,-3.7873,-3.8857,-4.0712,-4.2777,-4.498,-4.4816,-4.5758,-4.7871,-4.8574,-4.9294,-5.0047,-5.017,-5.1064,-5.2271,-5.1838,-5.2109,-5.2577,-5.2779,-5.2834,-5.2834,-5.2834,-5.2962,-5.3109,-5.3164,-5.3146,-5.3219,-5.3842,-5.4062,-5.4117,-5.4539,-5.4814,-5.4979,-5.4979,-5.4961,-5.4979,-5.5181,-5.4924,-5.4539,-5.4393,-5.3861,-5.3256,-5.265,-5.2394,-5.2082,-5.144,-5.0853,-5.0248,-4.9624,-4.8671,-4.7571,-4.636,-4.4471,0.0,-4.2069,-4.128,-4.1024,-4.1647,-4.2784,-4.3701,-4.4141,-4.4545,-4.46,-4.416,-4.3774,-4.3646,-4.3811,-4.4178,-4.4581,-4.5003,-4.5828,-4.6544,-4.7094,-4.7717,-4.8102,-4.8286,-4.8286,-4.8286,-4.8304,-4.8726,-4.8689,-4.8304,-4.8726,-4.8909,-4.8946,-4.9331,-4.9753,-5.0175,-5.056,-5.133,-5.2138,-5.3153,-5.4189,-5.5286,-3.5778,-3.5935,-3.5935,-3.5549,-3.5935,-3.6128,-3.5646,-3.5839,-3.6068,-3.6068,-3.6008,-3.6068,-3.643,-3.6104,-3.5935,-3.6128,-3.6104,-3.5971,-3.5778,-3.5971,-3.6769,-3.8113,-3.6725,-3.6511,-3.8228,-3.9694,-4.1799,-4.4519,-4.4239,-4.5469,-4.8125,-4.9204,-5.0353,-5.1115,-5.159,-5.2591,-5.3567,-5.2708,-5.2617,-5.3109,-5.2909,-5.2891,-5.3109,-5.3109,-5.3109,-5.3164,-5.3586,-5.3531,-5.3384,-5.4172,-5.4393,-5.4393,-5.4814,-5.5126,-5.5401,-5.5401,-5.5236,-5.5126,-5.5456,-5.4961,-5.4338,-5.4338,-5.3696,-5.3017,-5.2614,-5.2522,-5.2284,-5.1477,-5.1,-5.0468,-4.9643,-4.8506,-4.7277,-4.5957,0.0,-4.2839,0.0,-4.1794,-4.2032,-4.2747,-4.3903,-4.493,-4.5645,-4.5993,-4.5902,-4.5278,-4.515,-4.4948,-4.4655,-4.493,-4.5278,-4.5718,-4.6617,-4.7149,-4.724,-4.7937,-4.8286,-4.8286,-4.8286,-4.8286,-4.8304,-4.8726,-4.8726,-4.8451,-4.8781,-4.9019,-4.9203,-4.9423,-4.9808,-5.0303,-5.0596,-5.1725,-5.3128,-5.3634,-5.5096,-5.6904,-3.5778,-3.5778,-3.5802,-3.5742,-3.5585,-3.5609,-3.6032,-3.5935,-3.6068,-3.678,-3.6659,-3.6684,-3.7239,-3.7239,-3.7239,-3.7239,-3.7046,-3.6877,-3.6853,-3.6201,-3.5682,-3.5678,-3.5428,-3.5525,-3.6043,-3.6528,-3.8432,-4.2573,-4.2573,-4.4474,-4.8125,-4.8959,-4.9968,-5.0721,-5.145,-5.2429,-5.3146,-5.2016,-5.2016,-5.3109,-5.2016,-5.2235,-5.3109,-5.3109,-5.3109,-5.3164,-5.3586,-5.3732,-5.3806,-5.4594,-5.4649,-5.4393,-5.4814,-5.4924,-5.4961,-5.4961,-5.5236,-5.5493,-5.5548,-5.4961,-5.4338,-5.4338,-5.3696,-5.3017,-5.2614,-5.2522,-5.2284,-5.1477,-5.1,-5.0468,-4.9643,-4.8506,-4.7185,-4.5608,0.0,0.0,-4.2399,-4.3169,-4.4013,-4.4435,-4.5572,-4.6489,-4.6929,-4.7002,-4.6984,-4.6929,-4.6562,-4.6324,-4.6305,-4.6324,-4.6544,-4.6965,-4.7057,-4.7277,-4.7644,-4.8066,-4.8286,-4.8286,-4.8286,-4.8286,-4.8304,-4.8726,-4.8891,-4.8873,-4.8891,-4.9349,-5.001,-4.9643,-4.9973,-5.067,-5.0706,-5.1725,-5.3371,-5.5399,-5.7005,-5.8809,-3.5742,-3.5646,-3.5489,-3.5295,-3.5609,-3.5875,-3.5911,-3.6104,-3.6358,-3.6684,-3.6623,-3.6623,-3.6853,-3.672,-3.6623,-3.6623,-3.6684,-3.672,-3.672,-3.6587,-3.6165,-3.5416,-3.5549,-3.5742,-3.6008,-3.6261,-3.7907,-4.0657,-4.1417,-4.3468,-4.6116,-4.9029,-5.0742,-5.1029,-5.2043,-5.2468,-5.2753,-5.0907,-5.0917,-5.2034,-5.1577,-5.1998,-5.3109,-5.3109,-5.2962,-5.2834,-5.3494,-5.3421,-5.3146,-5.4228,-5.4283,-5.4062,-5.4704,-5.4759,-5.4594,-5.4869,-5.5236,-5.5548,-5.5548,-5.5126,-5.4649,-5.4393,-5.4117,-5.3751,-5.3366,-5.3274,-5.3054,-5.2229,-5.1752,-5.122,-5.0413,-4.9258,-4.8157,-4.7295,0.0,-4.438,-4.4178,-4.4325,-4.46,-4.5003,-4.6342,-4.7295,-4.7461,-4.7699,-4.7736,-4.7497,-4.7332,-4.713,-4.6874,-4.6874,-4.7057,-4.7461,-4.7479,-4.7552,-4.7699,-4.8084,-4.8286,-4.8286,-4.8543,-4.8671,-4.8689,-4.9093,-4.9148,-4.8928,-4.9166,-4.9313,-4.9404,-4.9753,-5.0083,-5.0376,-5.1613,-5.3128,-5.4778,-5.6757,-5.8631,-6.0346,-3.5609,-3.5513,-3.532,-3.5126,-3.5609,-3.6008,-3.5911,-3.6261,-3.6563,-3.6563,-3.6623,-3.6659,-3.6563,-3.649,-3.643,-3.643,-3.649,-3.6563,-3.6563,-3.6527,-3.6225,-3.5646,-3.5718,-3.5911,-3.6165,-3.643,-3.7506,-3.9457,-4.0361,-4.2332,-4.4741,-4.8122,-4.9868,-5.0436,-5.1331,-5.1849,-5.145,-4.983,-5.0034,-5.1358,-5.0917,-5.1797,-5.3109,-5.3109,-5.2944,-5.2797,-5.3476,-5.3384,-5.3054,-5.4007,-5.4062,-5.3842,-5.4393,-5.4448,-5.4429,-5.4961,-5.5328,-5.5493,-5.5401,-5.5126,-5.4869,-5.4594,-5.4338,-5.4062,-5.3806,-5.3641,-5.3366,-5.2669,-5.221,-5.1678,-5.0872,-4.9826,-4.8836,-4.8047,-4.6617,-4.5627,-4.5663,-4.5755,-4.5957,-4.6379,-4.7406,-4.8084,-4.8084,-4.8194,-4.8176,-4.7901,-4.7772,-4.7571,-4.7314,-4.7295,-4.7479,-4.7864,-4.7882,-4.7882,-4.7882,-4.8157,-4.8286,-4.8286,-4.8579,-4.8708,-4.8726,-4.9129,-4.9166,-4.8928,-4.9331,-4.9423,-4.9331,-4.99,-5.0211,-5.0546,-5.2417,-5.4149,-5.5789,-5.7373,-5.9193,-6.0921,-3.5392,-3.538,-3.538,-3.538,-3.5609,-3.5875,-3.6128,-3.6394,-3.6563,-3.6563,-3.6816,-3.6877,-3.6587,-3.6816,-3.6973,-3.6973,-3.672,-3.6563,-3.6563,-3.5839,-3.5646,-3.614,-3.5911,-3.5911,-3.6165,-3.643,-3.7506,-3.9457,-3.917,-4.0917,-4.4726,-4.5548,-4.6806,-4.8353,-4.9465,-4.9933,-4.9403,-4.8255,-4.9113,-5.1375,-5.0051,-5.0935,-5.3109,-5.3109,-5.3109,-5.3164,-5.3586,-5.3732,-5.3787,-5.4172,-5.4062,-5.3751,-5.3751,-5.4007,-5.4484,-5.5291,-5.5548,-5.5438,-5.5016,-5.4924,-5.4924,-5.4924,-5.4338,-5.3751,-5.3751,-5.3421,-5.2999,-5.2614,-5.221,-5.1697,-5.0872,-5.0065,-4.8983,-4.7387,-4.7442,-4.7424,-4.6617,-4.7534,-4.8451,-4.8873,-4.8909,-4.8909,-4.8909,-4.8524,-4.8286,-4.8286,-4.7919,-4.7699,-4.7699,-4.7699,-4.7882,-4.8267,-4.8286,-4.8286,-4.8286,-4.8286,-4.8286,-4.8286,-4.8286,-4.8286,-4.8304,-4.8726,-4.8928,-4.8928,-4.9331,-4.9735,-5.012,-5.0138,-5.0358,-5.0914,-5.2512,-5.4149,-5.5789,-5.7393,-5.9001,-6.0484,-3.5875,-3.5646,-3.538,-3.538,-3.5609,-3.5802,-3.5875,-3.6261,-3.6563,-3.6563,-3.6623,-3.6659,-3.6563,-3.6623,-3.6684,-3.6684,-3.6623,-3.6659,-3.6853,-3.6623,-3.6587,-3.672,-3.6128,-3.5971,-3.643,-3.6527,-3.6796,-3.7531,-3.8432,-4.02,-4.2806,-4.531,-4.7172,-4.8733,-4.9172,-4.8972,-4.8639,-4.7234,-4.7825,-5.0034,-4.9812,-5.0935,-5.3109,-5.3109,-5.2944,-5.276,-5.3164,-5.3127,-5.2944,-5.3329,-5.3384,-5.3366,-5.3641,-5.4228,-5.4759,-5.4704,-5.4906,-5.5016,-5.4594,-5.4503,-5.4594,-5.4869,-5.4539,-5.4172,-5.4172,-5.3842,-5.3439,-5.3017,-5.2632,-5.2192,-5.166,-5.0908,-5.001,-4.8964,-4.8653,-4.8469,-4.8212,-4.8487,-4.8873,-4.9276,-4.9074,-4.8909,-4.8909,-4.8524,-4.8286,-4.8286,-4.8176,-4.8102,-4.8102,-4.8102,-4.8157,-4.8286,-4.8286,-4.8286,-4.8286,-4.8286,-4.8286,-4.8286,-4.8579,-4.8726,-4.8744,-4.9441,-4.9459,-4.8964,-4.9936,-5.0101,-4.9735,-5.15,-5.2212,-5.2718,-5.5346,-5.6773,-5.7393,-5.9001,-6.0027,-6.0441,-3.6068,-3.5742,-3.5416,-3.5513,-3.5682,-3.5815,-3.5911,-3.6297,-3.6563,-3.6563,-3.6563,-3.6563,-3.6563,-3.6466,-3.6394,-3.6394,-3.6297,-3.6358,-3.6647,-3.6551,-3.6551,-3.6659,-3.6201,-3.6128,-3.6563,-3.6563,-3.6563,-3.6563,-3.7476,-3.9254,-4.187,-4.3767,-4.5935,-4.8211,-4.8357,-4.8129,-4.7657,-4.6557,-4.7492,-4.9608,-4.9608,-5.0935,-5.3109,-5.3109,-5.2962,-5.2797,-5.3035,-5.2962,-5.2797,-5.3035,-5.3109,-5.3219,-5.3806,-5.4283,-5.4649,-5.4594,-5.4869,-5.5034,-5.4484,-5.4338,-5.4393,-5.4649,-5.4393,-5.4117,-5.4283,-5.3897,-5.3421,-5.3164,-5.2797,-5.2449,-5.221,-5.1495,-5.0743,-5.0083,-4.979,-4.9624,-4.9624,-4.9624,-4.9771,-5.0175,-4.9588,-4.9148,-4.9148,-4.8616,-4.8286,-4.8286,-4.8286,-4.8286,-4.8286,-4.8286,-4.8286,-4.8286,-4.8286,-4.8286,-4.8286,-4.8286,-4.8286,-4.8286,-4.8543,-4.8671,-4.8689,-4.9349,-4.9386,-4.8964,-5.0624,-5.1201,-5.0789,-5.3062,-5.4149,-5.4352,-5.6973,-5.799,-5.8189,-5.981,-6.0419,-6.0419,-3.6032,-3.5742,-3.5489,-3.5706,-3.5778,-3.5875,-3.6104,-3.6358,-3.6563,-3.6563,-3.6587,-3.6587,-3.6563,-3.6394,-3.6261,-3.6201,-3.6008,-3.5971,-3.6237,-3.6008,-3.5971,-3.6201,-3.6201,-3.6334,-3.6563,-3.6563,-3.6563,-3.6563,-3.6334,-3.8127,-4.1912,-4.1912,-4.3901,-4.7108,-4.7458,-4.7235,-4.6616,-4.6828,-4.7963,-4.9659,-4.9625,-5.112,-5.3109,-5.3109,-5.3109,-5.3109,-5.3109,-5.3109,-5.3127,-5.3164,-5.3164,-5.3329,-5.4062,-5.4393,-5.4484,-5.4759,-5.5126,-5.5291,-5.4448,-5.4228,-5.4228,-5.4283,-5.3971,-5.3787,-5.4172,-5.3696,-5.3109,-5.3109,-5.2834,-5.2559,-5.254,-5.188,-5.1238,-5.0835,-5.0743,-5.0725,-5.0725,-5.0725,-5.0835,-5.1165,-5.0193,-4.9478,-4.9459,-4.8744,-4.8286,-4.8286,-4.8286,-4.8304,-4.8341,-4.8304,-4.8304,-4.8341,-4.8304,-4.8286,-4.8286,-4.8286,-4.8286,-4.8286,-4.8322,-4.8341,-4.8359,-4.8818,-4.9001,-4.9001,-5.1397,-5.2329,-5.2734,-5.4782,-5.5588,-5.5991,-5.7593,-5.8189,-5.8387,-5.981,-6.0419,-6.0441,-3.5839,-3.5778,-3.5646,-3.5489,-3.5802,-3.6032,-3.5875,-3.6261,-3.6563,-3.6563,-3.6756,-3.6816,-3.6587,-3.6877,-3.6949,-3.6527,-3.6623,-3.6744,-3.678,-3.6756,-3.6647,-3.649,-3.6466,-3.649,-3.6563,-3.6563,-3.6563,-3.6563,-3.649,-3.8394,-4.222,-4.222,-4.421,-4.7474,-4.7553,-4.7378,-4.6949,-4.756,-4.8755,-5.0002,-5.0819,-5.1815,-5.3109,-5.3109,-5.3109,-5.3109,-5.3109,-5.3109,-5.3164,-5.3476,-5.3586,-5.3696,-5.4172,-5.4759,-5.5126,-5.4264,-5.4503,-5.4814,-5.3696,-5.3384,-5.3439,-5.3787,-5.3549,-5.3366,-5.3787,-5.3476,-5.3109,-5.3109,-5.3035,-5.2889,-5.2577,-5.2119,-5.166,-5.1257,-5.0927,-5.0725,-5.0725,-5.0725,-5.0633,-5.0413,-4.9863,-4.9386,-4.9074,-4.8579,-4.8286,-4.8286,-4.8286,-4.8432,-4.8763,-4.8469,-4.8432,-4.8763,-4.8451,-4.8286,-4.8286,-4.8286,-4.8286,-4.8286,-4.8616,-4.8781,-4.8799,-4.9533,-4.968,-4.9423,-5.0641,-5.1612,-5.2734,-5.4782,-5.6393,-5.7593,-5.9198,-5.981,-6.0006,-6.0223,-6.0419,-6.0528,-3.5742,-3.5682,-3.5609,-3.5742,-3.5875,-3.6008,-3.6128,-3.6394,-3.6563,-3.6563,-3.6684,-3.672,-3.6563,-3.6816,-3.6913,-3.678,-3.6877,-3.6973,-3.6973,-3.6973,-3.6853,-3.6563,-3.6563,-3.6563,-3.6563,-3.6563,-3.6563,-3.6563,-3.6563,-3.847,-4.2332,-4.2332,-4.4177,-4.7855,-4.7855,-4.7648,-4.7299,-4.8293,-4.9282,-5.0361,-5.1146,-5.216,-5.3384,-5.3164,-5.3109,-5.3109,-5.3109,-5.3109,-5.3146,-5.3366,-5.3586,-5.3787,-5.4007,-5.4484,-5.4814,-5.4007,-5.4172,-5.4429,-5.3384,-5.3274,-5.3421,-5.3439,-5.3274,-5.3219,-5.3641,-5.3421,-5.3109,-5.3109,-5.3109,-5.3054,-5.2852,-5.232,-5.1862,-5.1642,-5.111,-5.078,-5.0982,-5.0835,-5.0706,-5.0688,-4.9991,-4.9276,-4.8671,-4.8414,-4.8286,-4.8286,-4.8286,-4.8377,-4.8598,-4.8396,-4.8377,-4.8598,-4.8396,-4.8286,-4.8286,-4.8286,-4.8286,-4.8286,-4.8506,-4.8616,-4.8634,-4.9459,-4.9716,-4.9551,-5.1984,-5.3421,-5.424,-5.6891,-5.8408,-5.9177,-5.9767,-6.0222,-6.0397,-6.0157,-6.0222,-6.0528,-3.5609,-3.5513,-3.5513,-3.5971,-3.5935,-3.6008,-3.643,-3.6527,-3.6563,-3.6563,-3.6587,-3.6623,-3.6563,-3.6587,-3.6756,-3.7082,-3.707,-3.7046,-3.7046,-3.7046,-3.6913,-3.6563,-3.6587,-3.6623,-3.6563,-3.6563,-3.6563,-3.6563,-3.7054,-3.8957,-4.2332,-4.2587,-4.4743,-4.8125,-4.8077,-4.7903,-4.7664,-4.8801,-4.9744,-5.0652,-5.1473,-5.2434,-5.3586,-5.3274,-5.3109,-5.3109,-5.3109,-5.3109,-5.3127,-5.3219,-5.3439,-5.3751,-5.3751,-5.4062,-5.4338,-5.3806,-5.3952,-5.4172,-5.3329,-5.3366,-5.3531,-5.3219,-5.3109,-5.3219,-5.3531,-5.3366,-5.3109,-5.3109,-5.3109,-5.3109,-5.3109,-5.2467,-5.1935,-5.1935,-5.1257,-5.0817,-5.1073,-5.0835,-5.0688,-5.0872,-4.9955,-4.9019,-4.8341,-4.8286,-4.8286,-4.8286,-4.8286,-4.8322,-4.8396,-4.8322,-4.8322,-4.8396,-4.8322,-4.8286,-4.8286,-4.8286,-4.8249,-4.8194,-4.8322,-4.8432,-4.8524,-4.9276,-4.9643,-4.9938,-5.3574,-5.5266,-5.5668,-5.8612,-5.9984,-6.0135,-5.972,-5.9829,-6.0135,-5.9807,-6.0004,-6.0484,-3.5163,-3.5259,-3.5416,-3.5489,-3.5839,-3.614,-3.6201,-3.643,-3.6563,-3.6563,-3.678,-3.6816,-3.6587,-3.678,-3.7106,-3.7601,-3.7432,-3.7311,-3.7311,-3.7311,-3.7082,-3.6587,-3.678,-3.6816,-3.6563,-3.6563,-3.6563,-3.6563,-3.8264,-4.0172,-4.2346,-4.4011,-4.5948,-4.8125,-4.7807,-4.7807,-4.8217,-4.9305,-5.017,-5.0652,-5.2321,-5.2909,-5.3219,-5.3127,-5.3109,-5.3109,-5.3109,-5.3109,-5.3164,-5.3531,-5.3696,-5.3751,-5.3751,-5.4228,-5.4613,-5.3531,-5.3751,-5.4172,-5.3329,-5.3164,-5.3164,-5.3127,-5.3109,-5.3127,-5.3164,-5.3164,-5.3109,-5.3109,-5.3109,-5.3109,-5.3109,-5.2467,-5.1935,-5.1935,-5.1257,-5.0615,-5.0321,-5.0248,-4.9973,-4.9313,-4.8763,-4.8414,-4.8286,-4.8286,-4.8286,-4.8286,-4.8286,-4.8432,-4.8799,-4.8487,-4.8451,-4.8818,-4.8469,-4.8286,-4.8286,-4.8286,-4.8121,-4.7791,-4.8487,-4.9001,-4.9349,-4.9826,-5.023,-5.0541,-5.2113,-5.36,-5.4964,-5.6571,-5.7978,-5.9152,-5.9086,-5.9108,-5.9196,-5.9567,-6.0004,-6.0484,-3.503,-3.5066,-3.5187,-3.5356,-3.5585,-3.5839,-3.6128,-3.6261,-3.6394,-3.6527,-3.6659,-3.6684,-3.6563,-3.6816,-3.7179,-3.7722,-3.7661,-3.7529,-3.7372,-3.7372,-3.7142,-3.6587,-3.6684,-3.6684,-3.6563,-3.6563,-3.6563,-3.6563,-3.7531,-3.8957,-4.0899,-4.2587,-4.4743,-4.6438,-4.726,-4.768,-4.8041,-4.9634,-5.0669,-5.1188,-5.2681,-5.3586,-5.3751,-5.3274,-5.3109,-5.3109,-5.3109,-5.3109,-5.3146,-5.3329,-5.3531,-5.3696,-5.3476,-5.3806,-5.4117,-5.3329,-5.3384,-5.3586,-5.3219,-5.3109,-5.3109,-5.3109,-5.2944,-5.2779,-5.2779,-5.2614,-5.2577,-5.3017,-5.2944,-5.2779,-5.2779,-5.2137,-5.1513,-5.1293,-5.0761,-5.0248,-4.9845,-4.9771,-4.9569,-4.8983,-4.8744,-4.8543,-4.8304,-4.8286,-4.8286,-4.8286,-4.8286,-4.8359,-4.8561,-4.8377,-4.8359,-4.8561,-4.8377,-4.8286,-4.8286,-4.8286,-4.8194,-4.8029,-4.8396,-4.8543,-4.8524,-5.0602,-5.1365,-5.1119,-5.4243,-5.5582,-5.5901,-5.7567,-5.862,-5.8934,-5.8693,-5.8737,-5.9065,-5.9829,-6.0244,-6.0463]}]]